[[{"header":{"parameterUnit":"m.s-1","parameterCategory":1,"la1":30.6,"la2":28.766,"lo1":-90.7593,"lo2":-88.6598,"dy":0.0162,"dx":0.0183,"nx":116,"ny":114,"refTime":"2023-03-20T00:00:00:Z","depth":0,"parameterNumber":2,"parameterNumberName":"U-component_of_WINDS"},"data":[0.0,0.0,0.0,0.0,0.0,0.0,0.0,0.0,0.0,0.0,0.0,0.0,0.0,0.0,0.0,0.0,0.0,0.0,0.0,0.0,0.0,0.0,0.0,0.0,0.0,0.0,0.0,0.0,0.0,0.0,0.0,0.0,0.0,0.0,0.0,0.0,0.0,0.0,0.0,0.0,0.0,0.0,0.0,0.0,0.0,0.0,0.0,0.0,0.0,0.0,0.0,0.0,0.0,0.0,0.0,0.0,0.0,0.0,0.0,0.0,0.0,0.0,0.0,0.0,0.0,0.0,0.0,0.0,0.0,0.0,0.0,0.0,0.0,0.0,0.0,0.0,0.0,0.0,0.0,0.0,0.0,0.0,0.0,0.0,0.0,0.0,0.0,0.0,0.0,0.0,0.0,0.0,0.0,0.0,0.0,0.0,0.0,0.0,0.0,0.0,0.0,0.0,0.0,0.0,0.0,0.0,0.0,0.0,0.0,0.0,0.0,0.0,0.0,0.0,0.0,0.0,0.0,0.0,0.0,0.0,0.0,0.0,0.0,0.0,0.0,0.0,0.0,0.0,0.0,0.0,0.0,0.0,0.0,0.0,0.0,0.0,0.0,0.0,0.0,0.0,0.0,0.0,0.0,0.0,0.0,0.0,0.0,0.0,0.0,0.0,0.0,0.0,0.0,0.0,0.0,0.0,0.0,0.0,0.0,0.0,0.0,0.0,0.0,0.0,0.0,0.0,0.0,0.0,0.0,0.0,0.0,0.0,0.0,0.0,0.0,0.0,0.0,0.0,0.0,0.0,0.0,0.0,0.0,0.0,0.0,0.0,0.0,0.0,0.0,0.0,0.0,0.0,0.0,0.0,0.0,0.0,0.0,0.0,0.0,0.0,0.0,0.0,0.0,0.0,0.0,0.0,0.0,0.0,0.0,0.0,0.0,0.0,0.0,0.0,0.0,0.0,0.0,0.0,0.0,0.0,0.0,0.0,0.0,0.0,0.0,0.0,0.0,0.0,0.0,0.0,0.0,0.0,0.0,0.0,0.0,0.0,0.0,0.0,0.0,0.0,0.0,0.0,0.0,0.0,0.0,0.0,0.0,0.0,0.0,0.0,0.0,0.0,0.0,0.0,0.0,0.0,0.0,0.0,0.0,0.0,0.0,0.0,0.0,0.0,0.0,0.0,0.0,0.0,0.0,0.0,0.0,0.0,0.0,0.0,0.0,0.0,0.0,0.0,0.0,0.0,0.0,0.0,0.0,0.0,0.0,0.0,0.0,0.0,0.0,0.0,0.0,0.0,0.0,0.0,0.0,0.0,0.0,0.0,0.0,0.0,0.0,0.0,0.0,0.0,0.0,0.0,0.0,0.0,0.0,0.0,0.0,0.0,0.0,0.0,0.0,0.0,0.0,0.0,0.0,0.0,0.0,0.0,0.0,0.0,0.0,0.0,0.0,0.0,0.0,0.0,0.0,0.0,0.0,0.0,0.0,0.0,0.0,0.0,0.0,0.0,0.0,0.0,0.0,0.0,0.0,0.0,0.0,0.0,0.0,0.0,0.0,0.0,0.0,0.0,0.0,0.0,0.0,0.0,0.0,0.0,0.0,0.0,0.0,0.0,0.0,0.0,0.0,0.0,0.0,0.0,0.0,0.0,0.0,0.0,0.0,0.0,0.0,0.0,0.0,0.0,0.0,0.0,0.0,0.0,0.0,0.0,0.0,0.0,0.0,0.0,0.0,0.0,0.0,0.0,0.0,0.0,0.0,0.0,0.0,0.0,0.0,0.0,0.0,0.0,0.0,0.0,0.0,0.0,0.0,0.0,0.0,0.0,0.0,0.0,0.0,0.0,0.0,0.0,0.0,0.0,0.0,0.0,0.0,0.0,0.0,0.0,0.0,0.0,0.0,0.0,0.0,0.0,0.0,0.0,0.0,0.0,0.0,0.0,0.0,0.0,0.0,0.0,0.0,0.0,0.0,0.0,0.0,0.0,0.0,0.0,0.0,0.0,0.0,0.0,0.0,0.0,0.0,0.0,0.0,0.0,0.0,0.0,0.0,0.0,0.0,0.0,0.0,0.0,0.0,0.0,0.0,0.0,0.0,0.0,0.0,0.0,0.0,0.0,0.0,0.0,0.0,0.0,0.0,0.0,0.0,0.0,0.0,0.0,0.0,0.0,0.0,0.0,0.0,0.0,0.0,0.0,0.0,0.0,0.0,0.0,0.0,0.0,0.0,0.0,0.0,0.0,0.0,0.0,0.0,0.0,0.0,0.0,0.0,0.0,0.0,0.0,0.0,0.0,0.0,0.0,0.0,0.0,0.0,0.0,0.0,0.0,0.0,0.0,0.0,0.0,0.0,0.0,0.0,0.0,0.0,0.0,0.0,0.0,0.0,0.0,0.0,0.0,0.0,0.0,0.0,0.0,0.0,0.0,0.0,0.0,0.0,0.0,0.0,0.0,0.0,0.0,0.0,0.0,0.0,0.0,0.0,0.0,0.0,0.0,0.0,0.0,0.0,0.0,0.0,0.0,0.0,0.0,0.0,0.0,0.0,0.0,0.0,0.0,0.0,0.0,0.0,0.0,0.0,0.0,0.0,0.0,0.0,0.0,0.0,0.0,0.0,0.0,0.0,0.0,0.0,0.0,0.0,0.0,0.0,0.0,0.0,0.0,0.0,0.0,0.0,0.0,0.0,0.0,0.0,0.0,0.0,0.0,0.0,0.0,0.0,0.0,0.0,0.0,0.0,0.0,0.0,0.0,0.0,0.0,0.0,0.0,0.0,0.0,0.0,0.0,0.0,0.0,0.0,0.0,0.0,0.0,0.0,0.0,0.0,0.0,0.0,0.0,0.0,0.0,0.0,0.0,0.0,0.0,0.0,0.0,0.0,0.0,0.0,0.0,0.0,0.0,0.0,0.0,0.0,0.0,0.0,0.0,0.0,0.0,0.0,0.0,0.0,0.0,0.0,0.0,0.0,0.0,0.0,0.0,0.0,0.0,0.0,0.0,0.0,0.0,0.0,0.0,0.0,0.0,0.0,0.0,0.0,0.0,0.0,0.0,0.0,0.0,0.0,0.0,0.0,0.0,0.0,0.0,0.0,0.0,0.0,0.0,0.0,0.0,0.0,0.0,0.0,0.0,0.0,0.0,0.0,0.0,0.0,0.0,0.0,0.0,0.0,0.0,0.0,0.0,0.0,0.0,0.0,0.0,0.0,0.0,0.0,0.0,0.0,0.0,0.0,0.0,0.0,0.0,0.0,0.0,0.0,0.0,0.0,0.0,0.0,0.0,0.0,0.0,0.0,0.0,0.0,0.0,0.0,0.0,0.0,0.0,0.0,0.0,0.0,0.0,0.0,0.0,0.0,0.0,0.0,0.0,0.0,0.0,0.0,0.0,0.0,0.0,0.0,0.0,0.0,0.0,0.0,0.0,0.0,0.0,0.0,0.0,0.0,0.0,0.0,0.0,0.0,0.0,0.0,0.0,0.0,0.0,0.0,0.0,0.0,0.0,0.0,0.0,0.0,0.0,0.0,0.0,0.0,0.0,0.0,0.0,0.0,0.0,0.0,0.0,0.0,0.0,0.0,0.0,0.0,0.0,0.0,0.0,0.0,0.0,0.0,0.0,0.0,0.0,0.0,0.0,0.0,0.0,0.0,0.0,0.0,0.0,0.0,0.0,0.0,0.0,0.0,0.0,0.0,0.0,0.0,0.0,0.0,0.0,0.0,0.0,0.0,0.0,0.0,0.0,0.0,0.0,0.0,0.0,0.0,0.0,0.0,0.0,0.0,0.0,0.0,0.0,0.0,0.0,0.0,0.0,0.0,0.0,0.0,0.0,0.0,0.0,0.0,0.0,0.0,0.0,0.0,0.0,0.0,0.0,0.0,0.0,0.0,0.0,0.0,0.0,0.0,0.0,0.0,0.0,0.0,0.0,0.0,0.0,0.0,0.0,0.0,0.0,0.0,0.0,0.0,0.0,0.0,0.0,0.0,0.0,0.0,0.0,0.0,0.0,0.0,0.0,0.0,0.0,0.0,0.0,0.0,0.0,0.0,0.0,0.0,0.0,0.0,0.0,0.0,0.0,0.0,0.0,0.0,0.0,0.0,0.0,0.0,0.0,0.0,0.0,0.0,0.0,0.0,0.0,0.0,0.0,0.0,0.0,0.0,0.0,0.0,0.0,0.0,0.0,0.0,0.0,0.0,0.0,0.0,0.0,0.0,0.0,0.0,0.0,0.0,0.0,0.0,0.0,0.0,0.0,0.0,0.0,0.0,0.0,0.0,0.0,0.0,0.0,0.0,0.0,0.0,0.0,0.0,0.0,0.0,0.0,0.0,0.0,0.0,0.0,0.0,0.0,0.0,0.0,0.0,0.0,0.0,0.0,0.0,0.0,0.0,0.0,0.0,0.0,0.0,0.0,0.0,0.0,0.0,0.0,0.0,0.0,0.0,0.0,0.0,0.0,0.0,0.0,0.0,0.0,0.0,0.0,0.0,0.0,0.0,0.0,0.0,0.0,0.0,0.0,0.0,0.0,0.0,0.0,0.0,0.0,0.0,0.0,0.0,0.0,0.0,0.0,0.0,0.0,0.0,0.0,0.0,0.0,0.0,0.0,0.0,0.0,0.0,0.0,0.0,0.0,0.0,0.0,0.0,0.0,0.0,0.0,0.0,0.0,0.0,0.0,0.0,0.0,0.0,0.0,0.0,0.0,0.0,0.0,0.0,0.0,0.0,0.0,0.0,0.0,0.0,0.0,0.0,0.0,0.0,0.0,0.0,0.0,0.0,0.0,0.0,0.0,0.0,0.0,0.0,0.0,0.0,0.0,0.0,0.0,0.0,0.0,0.0,0.0,0.0,0.0,0.0,0.0,0.0,0.0,0.0,0.0,0.0,0.0,0.0,0.0,0.0,0.0,0.0,0.0,0.0,0.0,0.0,0.0,0.0,0.0,0.0,0.0,0.0,0.0,0.0,0.0,0.0,0.0,0.0,0.0,0.0,0.0,0.0,0.0,0.0,0.0,0.0,0.0,0.0,0.0,0.0,0.0,0.0,0.0,0.0,0.0,0.0,0.0,0.0,0.0,0.0,0.0,0.0,0.0,0.0,0.0,0.0,0.0,0.0,0.0,0.0,0.0,0.0,0.0,0.0,0.0,0.0,0.0,0.0,0.0,0.0,0.0,0.0,0.0,0.0,0.0,0.0,0.0,0.0,0.0,0.0,0.0,0.0,0.0,0.0,0.0,0.0,0.0,0.0,0.0,0.0,0.0,0.0,0.0,0.0,0.0,0.0,0.0,0.0,0.0,0.0,0.0,0.0,0.0,0.0,0.0,0.0,0.0,0.0,0.0,0.0,0.0,0.0,0.0,0.0,0.0,0.0,0.0,0.0,0.0,0.0,0.0,0.0,0.0,0.0,0.0,0.0,0.0,0.0,0.0,0.0,0.0,0.0,0.0,0.0,0.0,0.0,0.0,0.0,0.0,0.0,0.0,0.0,0.0,0.0,0.0,0.0,0.0,0.0,0.0,0.0,0.0,0.0,0.0,0.0,0.0,0.0,0.0,0.0,0.0,0.0,0.0,0.0,0.0,0.0,0.0,0.0,0.0,0.0,0.0,0.0,0.0,0.0,0.0,0.0,0.0,0.0,0.0,0.0,0.0,0.0,0.0,0.0,0.0,0.0,0.0,0.0,0.0,0.0,0.0,0.0,0.0,0.0,0.0,0.0,0.0,0.0,0.0,0.0,0.0,0.0,0.0,0.0,0.0,0.0,0.0,0.0,0.0,0.0,0.0,0.0,0.0,0.0,0.0,0.0,0.0,0.0,0.0,0.0,0.0,0.0,0.0,0.0,0.0,0.0,0.0,0.0,0.0,0.0,0.0,0.0,0.0,0.0,0.0,0.0,0.0,0.0,0.0,0.0,0.0,0.0,0.0,0.0,0.0,0.0,0.0,0.0,0.0,0.0,0.0,0.0,0.0,0.0,0.0,0.0,0.0,0.0,0.0,0.0,0.0,0.0,0.0,0.0,0.0,0.0,0.0,0.0,0.0,0.0,0.0,0.0,0.0,0.0,0.0,0.0,0.0,0.0,0.0,0.0,0.0,0.0,0.0,-7.1403,-7.199,0.0,0.0,0.0,0.0,0.0,0.0,0.0,0.0,0.0,0.0,0.0,0.0,0.0,0.0,0.0,0.0,0.0,0.0,0.0,0.0,0.0,0.0,0.0,0.0,0.0,0.0,0.0,0.0,0.0,0.0,0.0,0.0,0.0,0.0,0.0,0.0,0.0,0.0,-6.6008,-6.602,-6.6005,-6.6029,-6.5982,-6.591,0.0,0.0,0.0,0.0,0.0,0.0,0.0,0.0,0.0,0.0,0.0,0.0,0.0,0.0,0.0,0.0,0.0,0.0,0.0,0.0,0.0,0.0,0.0,0.0,0.0,0.0,0.0,0.0,0.0,0.0,0.0,0.0,0.0,0.0,0.0,0.0,0.0,0.0,0.0,0.0,0.0,0.0,0.0,0.0,0.0,0.0,0.0,0.0,0.0,0.0,0.0,0.0,0.0,0.0,0.0,0.0,0.0,0.0,0.0,0.0,0.0,0.0,0.0,0.0,0.0,0.0,0.0,0.0,0.0,0.0,-7.0343,-7.0736,0.0,0.0,0.0,0.0,0.0,0.0,0.0,0.0,0.0,0.0,0.0,0.0,0.0,0.0,0.0,0.0,0.0,0.0,0.0,0.0,0.0,0.0,0.0,0.0,0.0,0.0,0.0,0.0,0.0,0.0,0.0,0.0,0.0,0.0,0.0,0.0,0.0,0.0,-6.6032,-6.6017,-6.6024,-6.6123,-6.6108,-6.5935,-6.6008,0.0,0.0,0.0,0.0,0.0,0.0,0.0,0.0,0.0,0.0,0.0,0.0,0.0,0.0,0.0,0.0,0.0,0.0,0.0,0.0,0.0,0.0,0.0,0.0,0.0,0.0,0.0,0.0,0.0,0.0,0.0,0.0,0.0,0.0,0.0,0.0,0.0,0.0,0.0,0.0,0.0,0.0,0.0,0.0,0.0,0.0,0.0,0.0,0.0,0.0,0.0,0.0,0.0,0.0,0.0,0.0,0.0,0.0,0.0,0.0,0.0,0.0,0.0,-6.9108,-6.903,-6.8872,-6.8872,-6.8864,-6.8853,-6.8867,-6.9076,-6.9441,-7.0183,0.0,0.0,0.0,0.0,0.0,0.0,0.0,0.0,0.0,0.0,0.0,0.0,0.0,0.0,0.0,0.0,0.0,0.0,0.0,0.0,0.0,0.0,-6.6091,-6.6091,-6.4568,-6.3602,0.0,0.0,0.0,0.0,0.0,0.0,0.0,-6.5993,-6.6024,-6.608,-6.608,-6.608,-6.6091,-6.6102,-6.6069,-6.599,-6.6047,-6.6052,-6.5984,0.0,0.0,0.0,0.0,0.0,0.0,0.0,0.0,0.0,0.0,0.0,0.0,0.0,0.0,0.0,0.0,0.0,0.0,0.0,0.0,0.0,0.0,0.0,0.0,0.0,0.0,0.0,0.0,0.0,0.0,0.0,0.0,0.0,0.0,0.0,0.0,0.0,0.0,0.0,0.0,0.0,-7.1992,-7.1992,0.0,0.0,0.0,0.0,0.0,0.0,0.0,0.0,0.0,0.0,0.0,0.0,0.0,-6.895,-6.895,-6.8984,-6.8577,-6.7846,-6.7846,-6.7438,-6.6704,-6.6704,-6.6697,-6.6697,-6.6697,0.0,-6.9392,-6.9509,0.0,0.0,0.0,0.0,0.0,0.0,0.0,0.0,0.0,0.0,0.0,0.0,0.0,0.0,0.0,0.0,0.0,0.0,0.0,0.0,0.0,-6.7057,-6.6091,-6.6091,-6.4568,-6.3602,-6.3602,0.0,0.0,0.0,0.0,0.0,-6.6005,-6.6024,-6.6069,-6.6102,-6.6134,-6.6144,-6.6144,-6.6144,-6.6134,-6.6112,-6.6134,-6.608,-6.6005,-6.602,0.0,0.0,0.0,0.0,0.0,0.0,0.0,0.0,0.0,0.0,0.0,0.0,0.0,0.0,0.0,0.0,0.0,0.0,0.0,0.0,0.0,0.0,0.0,0.0,0.0,0.0,0.0,0.0,0.0,0.0,0.0,0.0,0.0,0.0,0.0,0.0,0.0,0.0,0.0,-7.1992,-7.1796,-7.1279,-7.1145,-7.0769,0.0,0.0,0.0,0.0,0.0,0.0,0.0,0.0,0.0,-6.7489,-6.7502,-6.7496,-6.7496,-6.7475,-6.726,-6.6888,-6.6888,-6.6679,-6.6314,-6.6314,-6.6314,-6.6314,-6.6314,-6.6828,-6.7686,-6.8198,-6.8398,-6.8447,0.0,0.0,0.0,0.0,-6.9302,-6.9231,0.0,0.0,0.0,0.0,0.0,0.0,0.0,0.0,0.0,0.0,0.0,0.0,-6.8481,-6.7243,-6.6314,-6.6128,-6.4753,-6.3825,-6.3602,0.0,0.0,0.0,0.0,0.0,-6.6024,-6.6091,-6.6123,-6.6123,-6.6165,-6.6185,-6.6185,-6.6185,-6.6185,-6.6185,-6.6185,-6.6134,-6.6024,-6.6005,-6.602,-6.5996,0.0,0.0,0.0,0.0,0.0,0.0,0.0,0.0,0.0,0.0,0.0,0.0,0.0,0.0,0.0,0.0,0.0,0.0,0.0,0.0,0.0,0.0,0.0,0.0,0.0,0.0,0.0,0.0,0.0,0.0,0.0,0.0,0.0,0.0,0.0,0.0,0.0,-7.1638,-7.1279,-7.0336,-7.0192,-6.98,0.0,0.0,0.0,0.0,0.0,0.0,-6.7278,-6.6648,-6.6291,-6.6283,-6.629,-6.6273,-6.6273,-6.623,-6.6096,-6.5863,-6.5863,-6.5756,-6.5523,-6.5523,-6.5523,-6.5523,-6.5523,-6.5678,-6.595,-6.6866,-6.7254,-6.7332,-6.7992,-6.8226,-6.8241,-6.8391,-6.8466,-6.836,0.0,0.0,0.0,0.0,0.0,0.0,0.0,0.0,0.0,0.0,0.0,-6.8481,-6.8481,-6.7763,-6.6945,-6.6165,-6.5274,-6.4419,-6.3653,-6.3963,-6.4369,-6.4765,-6.5253,-6.5705,-6.6091,-6.6155,-6.6185,-6.6185,-6.6185,-6.6185,-6.6185,-6.6185,-6.6185,-6.6185,-6.6185,-6.6155,-6.6091,-6.6024,-6.6017,-6.5996,-6.5923,0.0,0.0,0.0,0.0,0.0,0.0,0.0,0.0,0.0,0.0,0.0,0.0,0.0,0.0,0.0,0.0,0.0,0.0,0.0,0.0,0.0,0.0,0.0,0.0,0.0,0.0,0.0,0.0,0.0,0.0,0.0,0.0,0.0,0.0,0.0,0.0,0.0,0.0,-6.9275,-6.9052,0.0,0.0,0.0,0.0,-6.6201,-6.6124,-6.6101,-6.6094,-6.6044,-6.5982,-6.5909,-6.5947,-6.5947,-6.5947,-6.5909,-6.5512,-6.4703,-6.4703,-6.4241,-6.3472,-6.3472,-6.3472,-6.3472,-6.3472,-6.3933,-6.4778,-6.5902,-6.6353,-6.6353,-6.6431,-6.6431,-6.6431,-6.6438,-6.6438,-6.6446,0.0,0.0,0.0,0.0,0.0,0.0,0.0,0.0,0.0,-6.8481,-6.8481,-6.8481,-6.8481,-6.78,-6.6982,-6.6165,-6.5311,-6.4433,-6.3653,-6.4192,-6.4628,-6.4866,-6.5468,-6.5928,-6.6155,-6.6175,-6.6185,-6.6185,-6.6185,-6.6185,-6.6185,-6.6185,-6.6185,-6.6185,-6.6185,-6.6175,-6.6144,-6.6047,-6.6017,-6.5996,-6.5923,-6.5897,0.0,0.0,0.0,0.0,0.0,0.0,0.0,0.0,0.0,0.0,0.0,0.0,0.0,0.0,0.0,0.0,0.0,0.0,0.0,0.0,0.0,0.0,0.0,0.0,0.0,0.0,0.0,0.0,0.0,0.0,0.0,0.0,0.0,0.0,0.0,0.0,0.0,-6.8274,-6.8093,0.0,-6.665,-6.651,-6.634,-6.6032,-6.5958,-6.569,-6.5127,-6.5088,-6.4845,-6.4243,-6.4243,-6.4243,-6.4243,-6.4243,-6.4089,-6.3782,-6.3782,-6.3589,-6.3308,-6.3308,-6.3308,-6.3308,-6.3308,-6.3462,-6.3794,-6.42,-6.5048,-6.6052,-6.6052,-6.6052,-6.6063,-6.6129,-6.6176,-6.6194,0.0,0.0,0.0,0.0,0.0,0.0,0.0,0.0,0.0,-6.8481,-6.8481,-6.8481,-6.8481,-6.8023,-6.7391,-6.6574,-6.5756,-6.4902,-6.4085,-6.4342,-6.4646,-6.4878,-6.5654,-6.6102,-6.6185,-6.6185,-6.6185,-6.6185,-6.6185,-6.6185,-6.6185,-6.6185,-6.6185,-6.6185,-6.6185,-6.6165,-6.6123,-6.6047,-6.599,-6.5982,-6.5935,-6.5897,-6.591,0.0,0.0,0.0,0.0,0.0,0.0,0.0,0.0,0.0,0.0,0.0,0.0,0.0,0.0,0.0,0.0,0.0,0.0,0.0,0.0,0.0,0.0,0.0,0.0,0.0,0.0,0.0,0.0,0.0,0.0,0.0,0.0,0.0,0.0,-6.8769,-6.8321,-6.7217,-6.7067,-6.6786,-6.6079,-6.597,-6.5856,-6.5548,-6.5499,-6.5089,-6.4205,-6.4166,-6.3897,-6.332,-6.3308,-6.3308,-6.3308,-6.3308,-6.3166,-6.2897,-6.2897,-6.2743,-6.2474,-6.2474,-6.2474,-6.2474,-6.2474,-6.2627,-6.2897,-6.2897,-6.3743,-6.5013,-6.5013,-6.5013,-6.5037,-6.5126,-6.5142,-6.5164,0.0,0.0,0.0,0.0,0.0,0.0,0.0,0.0,0.0,-6.8481,-6.8481,-6.8481,-6.8481,-6.8481,-6.8208,-6.7391,-6.6574,-6.5756,-6.4842,-6.4411,-6.4445,-6.4894,0.0,-6.6185,-6.6185,-6.6185,-6.6185,-6.6185,-6.6185,-6.6185,-6.6185,-6.6185,-6.6185,-6.6185,-6.6185,-6.6123,-6.6013,-6.6013,-6.6001,-6.599,-6.5909,-6.5897,-6.591,0.0,0.0,0.0,0.0,0.0,0.0,0.0,0.0,0.0,0.0,0.0,0.0,0.0,0.0,0.0,0.0,0.0,0.0,0.0,0.0,0.0,0.0,0.0,0.0,0.0,0.0,0.0,0.0,0.0,0.0,0.0,0.0,0.0,-6.7779,-6.7631,-6.72,-6.62,-6.604,-6.6008,-6.5958,-6.5897,-6.5513,-6.4628,-6.4551,-6.4166,-6.3308,-6.3281,-6.3231,-6.3243,-6.3243,-6.3243,-6.3243,-6.3243,-6.282,-6.2062,-6.2062,-6.1639,-6.0781,-6.0781,-6.0781,-6.0781,-6.0781,-6.1293,-6.2062,-6.2062,-6.2512,-6.3231,-6.3269,-6.3308,-6.3308,-6.3308,-6.3308,-6.3308,0.0,0.0,0.0,0.0,0.0,0.0,0.0,0.0,0.0,0.0,-6.8481,-6.8481,-6.8481,-6.8481,-6.8208,-6.7391,-6.6574,-6.5756,-6.4842,-6.4625,-6.4921,0.0,0.0,0.0,-6.6185,-6.6185,-6.6185,-6.6185,-6.6185,-6.6185,-6.6185,-6.6185,-6.6185,-6.6185,-6.6185,-6.6144,-6.6069,-6.6024,-6.5978,-6.5982,-6.5935,-6.5897,-6.591,0.0,0.0,0.0,0.0,0.0,0.0,0.0,0.0,0.0,0.0,0.0,0.0,0.0,0.0,0.0,0.0,0.0,0.0,0.0,0.0,0.0,0.0,0.0,0.0,0.0,0.0,0.0,0.0,0.0,0.0,0.0,-6.7063,-6.6917,-6.6847,-6.6754,-6.6504,-6.609,-6.602,-6.5714,-6.505,-6.4987,-6.4589,-6.3743,-6.3666,-6.332,-6.2474,-6.2435,-6.2127,-6.1512,-6.1473,-6.1473,-6.1473,-6.1473,-6.1396,-6.1166,-6.1166,-6.1012,-6.0781,-6.0781,-6.0781,-6.0781,-6.0781,-6.0935,-6.1166,-6.1166,-6.1281,-6.1627,-6.282,-6.3308,-6.3308,-6.3308,-6.3308,-6.3308,0.0,0.0,0.0,0.0,0.0,0.0,0.0,0.0,0.0,0.0,-6.8481,-6.8481,-6.8481,-6.8481,-6.8296,-6.7837,-6.676,-6.5905,-6.5385,0.0,0.0,0.0,0.0,-6.6123,-6.6185,-6.6185,-6.6185,-6.6185,-6.6185,-6.6185,-6.6185,-6.6185,-6.6185,-6.6185,-6.6185,-6.6144,-6.6058,-6.6024,-6.5993,-6.596,-6.5923,-6.5897,-6.591,-6.5984,-6.5982,-6.6017,-6.6069,-6.6123,-6.6155,-6.6175,0.0,0.0,0.0,0.0,0.0,0.0,0.0,0.0,0.0,0.0,0.0,0.0,0.0,0.0,0.0,0.0,0.0,0.0,0.0,0.0,0.0,0.0,0.0,0.0,-6.6688,-6.6507,-6.6477,-6.6281,-6.6,-6.5531,-6.5433,-6.5062,-6.4128,-6.4051,-6.3705,-6.2858,-6.2781,-6.2435,-6.1589,-6.1562,-6.132,-6.0819,-6.0781,-6.0781,-6.0781,-6.0781,-6.0781,-6.0781,-6.0781,-6.0781,-6.0781,-6.0781,-6.0781,-6.0781,-6.0781,-6.0781,-6.0781,-6.0781,-6.0781,-6.0896,0.0,0.0,0.0,0.0,-6.2243,-6.2243,0.0,0.0,0.0,0.0,0.0,0.0,0.0,0.0,0.0,0.0,0.0,-6.8481,-6.8481,-6.8481,-6.8481,-6.8481,-6.7131,-6.6189,0.0,0.0,0.0,-6.4981,-6.5692,-6.6123,-6.6185,-6.6185,-6.6185,-6.6185,-6.6185,-6.6185,-6.6185,-6.6185,-6.6185,-6.6185,-6.6185,-6.6123,-6.6001,-6.6001,-6.597,-6.5897,-6.5897,-6.5897,-6.591,-6.5972,-6.5996,-6.6032,-6.6058,-6.6102,-6.6112,-6.6165,0.0,0.0,0.0,0.0,0.0,0.0,0.0,0.0,0.0,0.0,0.0,0.0,0.0,0.0,0.0,0.0,0.0,0.0,0.0,0.0,0.0,0.0,0.0,0.0,-6.6635,-6.6438,-6.6242,-6.6002,-6.5572,-6.479,-6.4549,-6.4128,-6.3243,-6.3166,-6.282,-6.2024,-6.1947,-6.1639,-6.0819,-6.0781,0.0,0.0,0.0,-6.0781,-6.0781,-6.0781,-6.0781,-6.0781,-6.0781,-6.0781,-6.0781,-6.0781,-6.0781,-6.0781,-6.0781,-6.0781,-6.0781,-6.0781,-6.0781,-6.0781,-6.0781,-6.0781,-6.0781,-6.0781,-6.0781,-6.0781,0.0,0.0,0.0,0.0,0.0,0.0,0.0,0.0,0.0,-6.8481,-6.8481,-6.8481,-6.8481,-6.8481,-6.8481,-6.8481,-6.7614,-6.6625,0.0,0.0,-6.5644,-6.5394,-6.5781,-6.608,-6.6185,-6.6185,-6.6185,-6.6185,-6.6185,-6.6185,-6.6185,-6.6185,-6.6185,-6.6185,-6.6185,-6.6123,-6.6001,-6.6001,-6.597,-6.5897,-6.5897,-6.5897,-6.5897,-6.5923,-6.5946,-6.599,-6.6013,-6.6091,-6.6175,-6.6185,-6.6185,-6.6185,-6.6185,-6.6263,0.0,0.0,0.0,0.0,0.0,0.0,0.0,0.0,0.0,0.0,0.0,0.0,0.0,0.0,0.0,0.0,0.0,0.0,0.0,-6.668,-6.6522,-6.6118,-6.5222,-6.4988,-6.4806,-6.464,-6.3974,-6.3243,-6.2397,-6.232,-6.1973,-6.1127,-6.105,-6.0973,-6.0819,-6.0781,-6.0781,-6.0781,-6.0781,-6.0781,-6.0781,-6.0781,-6.0781,-6.0781,-6.0781,0.0,-6.0781,-6.0781,-6.0781,-6.0781,-6.0781,-6.0781,-6.0781,-6.0781,-6.0781,-6.0781,-6.0781,-6.0781,-6.0781,-6.0781,-6.0781,-6.0781,0.0,0.0,0.0,0.0,0.0,0.0,0.0,0.0,0.0,0.0,-6.8481,-6.8481,-6.8481,-6.8481,-6.8481,-6.8481,-6.7763,0.0,0.0,-6.5697,-6.5688,-6.5741,-6.5764,-6.5893,-6.6134,-6.6175,-6.6185,-6.6185,-6.6185,-6.6185,-6.6185,-6.6185,-6.6185,-6.6185,-6.6155,-6.6091,-6.6001,-6.6017,-6.5946,-6.5897,-6.5897,-6.5897,-6.5897,-6.5897,-6.5897,-6.5958,-6.599,-6.6047,-6.6112,-6.6165,-6.6185,-6.6185,-6.6185,-6.6254,-6.6351,0.0,0.0,0.0,0.0,0.0,0.0,0.0,0.0,0.0,0.0,0.0,0.0,0.0,0.0,-6.6914,-6.6914,0.0,-6.6708,-6.6034,-6.5834,-6.5382,-6.4337,-6.3698,-6.3358,-6.3358,-6.2974,-6.2358,-6.1512,-6.1447,-6.1281,-6.0819,-6.0781,-6.0781,-6.0781,-6.0781,-6.0781,-6.0781,-6.0781,-6.0781,-6.0781,-6.0781,-6.0781,-6.0781,-6.0781,-6.0781,-6.0781,-6.0781,-6.0781,-6.0781,-6.0781,-6.0781,-6.0781,-6.0781,-6.0781,-6.0781,-6.0781,-6.0781,-6.0781,-6.0781,-6.0781,-6.0781,0.0,0.0,0.0,0.0,0.0,0.0,0.0,0.0,0.0,0.0,-6.8617,-6.8481,-6.8481,-6.8481,-6.8481,0.0,0.0,0.0,0.0,-6.6036,-6.5893,-6.5894,-6.5803,-6.5807,-6.5986,-6.6123,-6.6175,-6.6185,-6.6185,-6.6185,-6.6185,-6.6185,-6.6175,-6.6165,-6.6123,-6.6058,-6.599,-6.5982,-6.596,-6.5897,-6.5897,-6.5897,-6.5897,-6.5897,-6.591,-6.5935,-6.5967,-6.6013,-6.6047,-6.6155,-6.6185,-6.6185,-6.6185,-6.6185,-6.6264,-6.6522,-6.659,0.0,0.0,0.0,0.0,0.0,0.0,0.0,0.0,-6.6914,-6.6914,-6.6914,-6.6914,-6.6914,-6.6914,-6.6757,-6.6357,-6.5442,-6.505,-6.4488,-6.3496,-6.2645,-6.2062,-6.187,-6.187,-6.1562,-6.0858,-6.0781,-6.0781,-6.0781,-6.0781,-6.0781,-6.0781,-6.0781,-6.0781,-6.0781,-6.0781,-6.0781,-6.0781,-6.0781,-6.0781,-6.0781,-6.0781,-6.0781,-6.0781,-6.0781,-6.0781,-6.0781,-6.0781,-6.0781,-6.0781,-6.0781,-6.0781,-6.0781,-6.0781,-6.0781,-6.0781,-6.0781,-6.0781,-6.0781,0.0,0.0,0.0,0.0,0.0,0.0,0.0,0.0,0.0,0.0,0.0,0.0,0.0,0.0,0.0,0.0,0.0,0.0,-6.7243,-6.7419,-6.6954,-6.5631,-6.6146,-6.6231,-6.5654,-6.5963,-6.6134,-6.6185,-6.6185,-6.6185,-6.6185,-6.6185,-6.6155,-6.6112,-6.6102,-6.6074,-6.6008,-6.6008,-6.596,-6.5897,-6.5897,-6.5897,-6.5897,-6.5897,-6.5935,-6.5996,-6.5978,-6.6047,-6.6102,-6.6165,-6.6185,-6.6185,-6.6185,-6.6185,-6.6264,-6.6522,-6.659,-6.6638,-6.6869,-6.6914,-6.6914,-6.6914,-6.6914,-6.6914,0.0,-6.6914,-6.6914,-6.6914,-6.6914,-6.6914,-6.6914,-6.6288,-6.5654,-6.5334,-6.4548,-6.3595,-6.2594,-6.2243,-6.1831,-6.105,-6.0935,-6.0896,-6.0819,-6.0781,-6.0781,-6.0781,-6.0781,-6.0781,-6.0781,-6.0781,-6.0781,-6.0781,-6.0781,-6.0781,-6.0781,-6.0781,-6.0781,-6.0781,-6.0781,-6.0781,-6.0781,-6.0781,-6.0781,-6.0781,-6.0781,-6.0781,-6.0781,-6.0781,-6.0781,-6.0781,-6.0781,-6.0781,-6.0781,-6.0781,-6.0781,-6.0781,0.0,0.0,0.0,0.0,0.0,0.0,0.0,0.0,0.0,0.0,0.0,0.0,0.0,0.0,0.0,0.0,0.0,0.0,-6.8023,-6.7691,-6.7307,-6.6858,-6.6258,-6.602,-6.6179,-6.5936,-6.594,-6.6134,-6.6165,-6.6185,-6.6185,-6.6155,-6.6123,-6.6091,-6.6074,-6.6017,-6.5996,-6.596,-6.5923,-6.5897,-6.5897,-6.5897,-6.5897,-6.5897,-6.5923,-6.596,-6.5978,-6.6024,0.0,0.0,-6.6185,-6.6185,-6.6185,-6.6185,-6.6245,-6.6422,-6.654,-6.6638,-6.6869,-6.6914,-6.6914,-6.6914,-6.6914,-6.6914,-6.6914,-6.6914,-6.6914,-6.6914,-6.6914,-6.6758,-6.625,-6.5858,-6.5225,-6.4052,-6.3385,-6.2709,-6.1682,-6.1432,-6.1204,-6.0819,-6.0781,-6.0781,-6.0781,-6.0781,-6.0781,-6.0781,-6.0781,-6.0781,-6.0781,-6.0781,-6.0781,-6.0781,-6.0781,-6.0781,-6.0781,-6.0781,-6.0781,-6.0781,-6.0781,-6.0781,-6.0781,-6.0781,-6.0781,-6.0781,-6.0781,-6.0781,-6.0781,-6.0781,-6.0781,-6.0781,-6.0781,-6.0781,-6.0781,-6.0781,-6.0781,-6.0781,0.0,0.0,0.0,0.0,0.0,0.0,0.0,0.0,0.0,0.0,0.0,0.0,0.0,0.0,0.0,0.0,0.0,0.0,0.0,-6.7924,-6.7645,-6.765,-6.6666,-6.6352,-6.678,-6.6077,-6.596,-6.6416,-6.6135,-6.6041,-6.6134,-6.6091,-6.6069,-6.6085,-6.6005,-6.5996,-6.5972,-6.5923,-6.5897,-6.5897,-6.5897,-6.5897,-6.5897,-6.5897,-6.5897,-6.5923,-6.5967,-6.6001,0.0,0.0,-6.6185,-6.6185,-6.6185,-6.6185,-6.6225,-6.6337,-6.6522,-6.667,-6.6832,-6.6914,-6.6914,-6.6914,-6.6914,-6.6914,-6.6914,-6.6914,-6.6914,-6.6914,-6.6914,-6.6719,-6.6055,-6.5742,-6.5151,-6.3802,-6.3011,-6.2322,-6.1547,-6.1109,-6.0823,-6.0793,-6.0781,-6.0781,-6.0781,-6.0781,-6.0781,-6.0781,-6.0781,-6.0781,-6.0781,-6.0781,-6.0781,-6.0781,-6.0781,-6.0781,-6.0781,-6.0781,-6.0781,-6.0781,-6.0781,-6.0781,-6.0781,-6.0781,-6.0781,-6.0781,-6.0781,-6.0781,-6.0781,-6.0781,-6.0781,-6.0781,-6.0781,-6.0781,-6.0781,-6.0781,-6.0781,-6.0781,0.0,0.0,0.0,0.0,0.0,0.0,0.0,0.0,0.0,0.0,0.0,0.0,0.0,0.0,0.0,0.0,0.0,0.0,0.0,-6.8506,-6.8134,-6.7378,-6.7591,-6.759,-6.7306,-6.6432,-6.6391,-6.7248,-6.6077,-6.5692,-6.6013,-6.6013,-6.5978,-6.6008,-6.6008,-6.5972,-6.591,-6.5897,-6.5897,-6.5897,-6.5897,-6.5897,-6.5897,-6.5897,-6.5897,-6.5923,-6.5967,0.0,0.0,-6.6144,-6.6185,-6.6185,-6.6185,-6.6185,-6.6225,-6.6337,-6.6546,-6.6727,-6.6873,-6.6914,-6.6914,-6.6914,-6.6914,-6.6914,-6.6914,-6.6914,-6.6914,-6.6914,-6.6914,-6.6875,-6.6875,-6.6172,-6.5586,-6.5508,-6.3996,-6.2738,-6.2552,-6.164,-6.0953,-6.0816,-6.0781,-6.0781,-6.0781,-6.0781,-6.0781,-6.0781,-6.0781,-6.0781,-6.0781,-6.0781,-6.0781,-6.0781,-6.0781,-6.0781,-6.0781,-6.0781,-6.0781,-6.0781,-6.0781,-6.0781,-6.0781,-6.0781,-6.0781,-6.0781,-6.0781,-6.0781,-6.0781,-6.0781,-6.0781,-6.0781,-6.0781,-6.0781,-6.0781,-6.0781,-6.0781,-6.0781,0.0,0.0,0.0,0.0,0.0,0.0,0.0,0.0,0.0,0.0,0.0,0.0,0.0,0.0,0.0,0.0,-6.8481,0.0,0.0,-6.8481,-6.837,-6.8134,-6.7682,-6.7516,-6.7628,-6.7126,-6.6859,-6.6853,-6.6731,-6.6471,-6.6001,-6.6005,-6.5982,-6.5996,-6.596,-6.5923,-6.5897,-6.5897,-6.5897,-6.5897,-6.5897,-6.5897,-6.591,-6.5947,-6.5972,-6.5984,0.0,0.0,0.0,-6.6144,-6.6185,-6.6185,-6.6185,-6.6185,-6.6225,-6.6337,-6.6528,-6.6662,-6.6729,-6.6831,-6.6914,-6.6914,-6.6914,-6.6914,-6.6914,-6.6914,-6.6914,-6.6914,-6.6914,-6.6719,-6.6133,-6.5781,-6.539,-6.4844,-6.4115,-6.3425,-6.2808,-6.2228,-6.164,-6.1021,-6.0845,-6.0781,-6.0781,-6.0781,-6.0781,-6.0781,-6.0781,-6.0781,-6.0781,-6.0781,-6.0781,-6.0781,-6.0781,-6.0781,-6.0781,-6.0781,-6.0781,-6.0781,-6.0781,-6.0781,-6.0781,-6.0781,-6.0781,-6.0781,-6.0781,-6.0781,-6.0781,-6.0781,-6.0781,-6.0781,-6.0781,-6.0781,-6.0781,-6.0781,-6.0781,-6.0781,0.0,0.0,0.0,0.0,0.0,0.0,0.0,0.0,0.0,0.0,0.0,0.0,0.0,0.0,0.0,0.0,0.0,-6.8816,0.0,0.0,-6.8481,-6.8481,-6.8023,-6.7901,-6.8259,-6.7605,-6.7297,-6.7218,-6.7126,-6.6921,-6.6641,-6.664,-6.6564,-6.6383,-6.6346,-6.6167,-6.5897,-6.5897,-6.5897,-6.5897,-6.5897,-6.5923,-6.5986,-6.6292,-6.6444,0.0,0.0,0.0,0.0,-6.6271,-6.6185,-6.6185,-6.6185,-6.6185,-6.6225,-6.6337,-6.6457,-6.6558,-6.6623,-6.6727,-6.6831,-6.6831,-6.6873,-6.6914,-6.6914,-6.6914,-6.6914,-6.6914,-6.6914,-6.6719,-6.6172,-6.6055,-6.5898,-6.5312,-6.4909,-6.4403,-6.379,-6.2974,-6.223,-6.1571,-6.1116,-6.0834,-6.0793,-6.0781,-6.0781,-6.0781,-6.0781,-6.0781,-6.0781,-6.0781,-6.0781,-6.0781,-6.0781,-6.0781,-6.0781,-6.0781,-6.0781,-6.0781,-6.0781,-6.0781,-6.0781,-6.0781,-6.0781,-6.0781,-6.0781,-6.0781,-6.0781,-6.0781,-6.0781,-6.0781,-6.0781,-6.0781,-6.0781,-6.0781,-6.0781,-6.0781,0.0,0.0,0.0,0.0,0.0,0.0,0.0,0.0,0.0,0.0,0.0,0.0,0.0,0.0,0.0,0.0,0.0,0.0,0.0,0.0,0.0,-6.8481,-6.8481,-6.8684,-6.9047,-6.7947,-6.7725,-6.8395,-6.7231,-6.707,-6.7773,-6.7773,-6.7523,-6.7128,-6.7141,-6.6731,-6.6,-6.6013,-6.6013,-6.6013,-6.6013,-6.6063,-6.6201,-6.6972,0.0,0.0,0.0,0.0,0.0,-6.6474,-6.6185,-6.6185,-6.6185,-6.6185,-6.6225,-6.6367,-6.6384,-6.6422,-6.6552,-6.6658,-6.6714,-6.6717,-6.6787,-6.6875,-6.6914,-6.6914,-6.6914,-6.6914,-6.6914,-6.6914,-6.6914,-6.6914,-6.6914,-6.6914,-6.621,-6.5576,-6.5364,-6.3885,-6.2736,-6.2379,-6.1523,-6.0963,-6.0827,-6.0793,-6.0781,-6.0781,-6.0781,-6.0781,-6.0781,-6.0781,-6.0781,-6.0781,-6.0781,-6.0781,-6.0781,-6.0781,-6.0781,-6.0781,-6.0781,-6.0781,-6.0781,-6.0781,-6.0781,-6.0781,-6.0781,-6.0781,-6.0781,-6.0781,-6.0781,-6.0781,-6.0781,-6.0781,-6.0781,-6.0781,-6.0781,-6.0781,0.0,0.0,0.0,0.0,0.0,0.0,0.0,0.0,0.0,0.0,0.0,0.0,0.0,0.0,0.0,0.0,0.0,0.0,0.0,0.0,0.0,0.0,0.0,0.0,0.0,0.0,0.0,-6.794,-6.7936,-6.7732,-6.7347,-6.7347,-6.7286,-6.7216,-6.7477,-6.7508,-6.7331,-6.7651,-6.7782,-6.7782,0.0,-6.7783,-6.7896,0.0,0.0,0.0,0.0,0.0,0.0,-6.6495,-6.6185,-6.6185,-6.6185,-6.6185,-6.6195,-6.6254,-6.6325,-6.64,-6.6436,-6.6546,-6.665,-6.6706,-6.6727,-6.6782,-6.6874,-6.6914,-6.6914,-6.6914,-6.6914,-6.6914,-6.6914,-6.6914,-6.6914,-6.6914,-6.6718,-6.6323,-6.5606,-6.4506,-6.3492,-6.2747,-6.1679,-6.0983,-6.0963,-6.0856,-6.0781,-6.0781,-6.0781,-6.0781,-6.0781,-6.0781,-6.0781,-6.0781,-6.0781,-6.0781,-6.0781,-6.0781,-6.0781,-6.0781,-6.0781,-6.0781,-6.0781,-6.0781,-6.0781,-6.0781,-6.0781,-6.0781,-6.0781,-6.0781,-6.0781,-6.0781,-6.0781,-6.0781,-6.0781,-6.0781,-6.0781,-6.0781,0.0,0.0,0.0,0.0,0.0,0.0,0.0,0.0,0.0,0.0,0.0,0.0,0.0,0.0,0.0,0.0,0.0,0.0,0.0,0.0,0.0,0.0,0.0,0.0,0.0,0.0,0.0,0.0,0.0,0.0,-6.805,-6.805,-6.7921,-6.775,-6.8176,-6.8149,-6.7821,-6.8224,0.0,0.0,0.0,0.0,0.0,0.0,0.0,0.0,0.0,0.0,0.0,-6.6959,-6.6533,-6.6185,-6.6185,-6.6185,-6.6185,-6.6185,-6.6264,-6.6316,-6.6316,-6.64,-6.6528,-6.6561,-6.6635,-6.6727,-6.6785,-6.6873,-6.6914,-6.6914,-6.6914,-6.6914,-6.6914,-6.6914,-6.6914,-6.6914,-6.6913,-6.6715,-6.6241,-6.5355,-6.4411,-6.3453,-6.2334,-6.1488,-6.105,-6.0888,-6.0781,-6.0781,-6.0781,-6.0781,-6.0781,-6.0781,-6.0781,-6.0781,-6.0781,-6.0781,-6.0781,-6.0781,-6.0781,-6.0781,-6.0781,-6.0781,-6.0781,-6.0781,-6.0781,-6.0781,-6.0781,-6.0781,-6.0781,-6.0781,-6.0781,-6.0781,-6.0781,-6.0781,-6.0781,-6.0781,-6.0781,-6.0781,0.0,0.0,0.0,0.0,0.0,0.0,0.0,0.0,0.0,0.0,0.0,0.0,0.0,0.0,0.0,0.0,0.0,0.0,0.0,0.0,0.0,0.0,0.0,0.0,0.0,0.0,0.0,0.0,0.0,0.0,0.0,0.0,0.0,0.0,0.0,0.0,0.0,0.0,0.0,0.0,0.0,0.0,0.0,0.0,0.0,0.0,0.0,0.0,0.0,0.0,-6.692,-6.6185,-6.6185,-6.6185,-6.6185,-6.6185,-6.6185,-6.6185,-6.6185,-6.6272,-6.6361,-6.6384,-6.6535,-6.6658,-6.6675,-6.6785,-6.6874,-6.6914,-6.6914,-6.6914,-6.6914,-6.6914,-6.6914,-6.6914,-6.6913,-6.691,-6.6904,-6.6154,-6.5234,-6.4333,-6.3214,-6.2182,-6.1324,-6.101,-6.0872,-6.0839,-6.0827,-6.0816,-6.0781,-6.0781,-6.0781,-6.0781,-6.0781,-6.0781,-6.0781,-6.0781,-6.0781,-6.0781,-6.0781,-6.0781,-6.0781,-6.0781,-6.0781,-6.0781,-6.0781,-6.0781,-6.0781,-6.0781,-6.0781,-6.0781,-6.0781,-6.0781,-6.0781,-6.0781,-6.0781,-6.0781,0.0,0.0,0.0,0.0,0.0,0.0,0.0,0.0,0.0,0.0,-7.3398,-7.3398,0.0,0.0,0.0,0.0,0.0,0.0,0.0,0.0,0.0,0.0,0.0,0.0,0.0,-6.8481,-6.8481,-6.8481,-6.8481,0.0,0.0,0.0,0.0,0.0,0.0,0.0,0.0,0.0,0.0,0.0,0.0,0.0,0.0,0.0,0.0,0.0,0.0,0.0,0.0,0.0,-6.692,-6.6185,-6.6185,-6.6185,-6.6185,-6.6185,-6.6185,-6.6185,-6.6185,-6.6215,-6.6244,-6.6353,-6.6429,-6.6489,-6.6655,-6.6724,-6.6779,-6.6874,-6.6914,-6.6914,-6.6914,-6.6914,-6.6914,-6.6914,-6.6913,-6.691,-6.6904,-6.6154,-6.5518,-6.534,-6.3791,-6.2668,-6.2491,-6.1666,-6.1087,-6.0964,-6.0983,-6.0913,-6.0793,-6.0781,-6.0781,-6.0781,-6.0781,-6.0781,-6.0781,-6.0781,-6.0781,-6.0781,-6.0781,-6.0781,-6.0781,-6.0781,-6.0781,-6.0781,-6.0781,-6.0781,-6.0781,-6.0781,-6.0781,-6.0781,-6.0781,-6.0781,-6.0781,-6.0781,-6.0781,-6.0781,0.0,0.0,0.0,0.0,0.0,0.0,0.0,-7.3398,-7.3398,-7.3398,-7.3398,-7.3398,-7.3398,-7.3398,0.0,0.0,0.0,0.0,0.0,0.0,0.0,0.0,0.0,0.0,0.0,-6.8704,-6.8481,-6.8481,0.0,-6.8481,-6.8481,-6.8481,-6.8481,-6.8506,-6.8908,-6.9306,-6.9721,0.0,0.0,-7.0898,-7.0898,-7.0965,0.0,0.0,0.0,0.0,0.0,0.0,0.0,0.0,-6.7617,-6.6804,-6.634,-6.6185,-6.6185,-6.6185,-6.6185,-6.6185,-6.6185,-6.6185,-6.6215,-6.6272,-6.6367,-6.645,-6.6594,-6.6655,-6.6731,-6.6874,-6.6914,-6.6914,-6.6914,-6.6914,-6.6914,-6.6914,-6.6912,-6.6907,-6.6904,-6.6502,-6.6061,-6.5663,-6.4708,-6.376,-6.2859,-6.225,-6.1632,-6.105,-6.1002,-6.0943,-6.0793,-6.0781,-6.0781,-6.0781,-6.0781,-6.0781,-6.0781,-6.0781,-6.0781,-6.0781,-6.0781,-6.0781,-6.0781,-6.0781,-6.0781,-6.0781,-6.0781,-6.0781,-6.0781,-6.0781,-6.0781,-6.0781,-6.0781,-6.0781,-6.0781,-6.0781,-6.0781,-6.0781,0.0,0.0,0.0,0.0,0.0,0.0,0.0,-7.3398,-7.3398,-7.3398,-7.3398,-7.3398,-7.3398,-7.3398,-7.3398,0.0,0.0,0.0,0.0,0.0,0.0,0.0,0.0,0.0,0.0,0.0,0.0,-6.8481,-6.8481,0.0,0.0,0.0,0.0,0.0,-6.8855,-6.9261,-6.9721,-7.003,-7.0432,0.0,0.0,-7.0952,0.0,0.0,0.0,0.0,0.0,0.0,0.0,0.0,-6.8506,-6.7617,-6.6766,-6.634,-6.6185,-6.6185,-6.6185,-6.6185,-6.6185,-6.6185,-6.6185,-6.6185,-6.6272,-6.6392,-6.6563,-6.6654,-6.6719,-6.6874,-6.6914,-6.6914,-6.6914,-6.6914,-6.6914,-6.6914,-6.6911,-6.6905,-6.6904,-6.6852,-6.6563,-6.5936,-6.5581,-6.4766,-6.328,-6.2819,-6.2185,-6.1122,-6.0983,-6.0902,-6.0793,-6.0781,-6.0781,-6.0781,-6.0781,-6.0781,-6.0781,-6.0781,-6.0781,-6.0781,-6.0781,-6.0781,-6.0781,-6.0781,-6.0781,-6.0781,-6.0781,-6.0781,-6.0781,-6.0781,-6.0781,-6.0781,-6.0781,-6.0781,-6.0781,-6.0781,-6.0781,-6.0781,0.0,0.0,0.0,0.0,0.0,0.0,0.0,-7.3398,-7.3398,-7.3398,-7.3398,-7.3398,-7.3398,-7.3398,-7.3398,0.0,0.0,0.0,0.0,0.0,0.0,0.0,0.0,0.0,0.0,0.0,0.0,-6.8481,-6.8481,0.0,0.0,0.0,0.0,0.0,0.0,-6.8975,-6.9702,-6.974,0.0,0.0,0.0,0.0,0.0,0.0,0.0,0.0,0.0,-7.1253,-7.1059,0.0,-6.9357,-6.8545,-6.7655,-6.6843,-6.6185,-6.6185,-6.6185,-6.6185,-6.6185,-6.6185,-6.6185,-6.6185,-6.6205,-6.6281,-6.654,-6.66,-6.6658,-6.6872,-6.6914,-6.6914,-6.6914,-6.6914,-6.6914,-6.6914,-6.6913,-6.6909,-6.6904,-6.6856,-6.6768,-6.6719,-6.6012,-6.5187,-6.4253,-6.3427,-6.2469,-6.1271,-6.0973,-6.0804,-6.0781,-6.0781,-6.0781,-6.0781,-6.0781,-6.0781,-6.0781,-6.0781,-6.0781,-6.0781,-6.0781,-6.0781,-6.0781,-6.0781,-6.0781,-6.0781,-6.0781,-6.0781,-6.0781,-6.0781,-6.0781,-6.0781,-6.0781,-6.0781,-6.0781,-6.0781,-6.0781,-6.0781,0.0,0.0,0.0,0.0,0.0,0.0,-7.3398,-7.3398,-7.3398,-7.3398,-7.3398,-7.3398,-7.3398,-7.3398,-7.3398,0.0,0.0,0.0,0.0,0.0,0.0,0.0,0.0,0.0,0.0,0.0,-6.9521,-6.9224,-6.8741,0.0,0.0,0.0,0.0,0.0,0.0,-6.9176,-6.9721,-6.9959,0.0,0.0,0.0,0.0,0.0,0.0,0.0,0.0,0.0,0.0,-7.1175,-7.0286,-6.9783,-6.9396,-6.8545,-6.8042,-6.7578,-6.6495,-6.6572,-6.6998,-6.6998,-6.7384,-6.7771,-6.7771,-6.7384,-6.7028,-6.728,-6.6941,-6.665,-6.6872,-6.6914,-6.6914,-6.6914,-6.6914,-6.6914,-6.6914,-6.6912,-6.6906,-6.6904,-6.6852,-6.6802,-6.6798,-6.6522,-6.578,-6.4416,-6.3984,-6.3091,-6.1518,-6.11,-6.0913,-6.0913,-6.0823,-6.0781,-6.0781,-6.0781,-6.0781,-6.0781,-6.0781,-6.0781,-6.0781,-6.0781,-6.0781,-6.0781,-6.0781,-6.0781,-6.0781,-6.0781,-6.0781,-6.0781,-6.0781,-6.0781,-6.0781,-6.0781,-6.0781,-6.0781,-6.0781,-6.0781,-6.0781,0.0,0.0,0.0,0.0,0.0,-7.3398,-7.3398,-7.3398,-7.3398,-7.3398,-7.3398,-7.3398,-7.3398,-7.3398,-7.3398,-7.3398,0.0,0.0,0.0,0.0,0.0,0.0,0.0,0.0,0.0,0.0,-7.0215,-6.9707,-6.9113,-6.8704,0.0,0.0,-6.8578,-6.8707,0.0,0.0,0.0,0.0,0.0,0.0,0.0,0.0,0.0,0.0,0.0,0.0,0.0,0.0,0.0,0.0,0.0,-6.9899,-6.9319,0.0,0.0,-6.7346,-6.7384,-6.7887,-6.7887,-6.8352,-6.8816,-6.8816,-6.8352,-6.7958,-6.8137,-6.7564,-6.704,-6.7223,-6.707,-6.6914,-6.6914,-6.6914,-6.6914,0.0,0.0,-6.6907,-6.6904,-6.6854,-6.6805,-6.6798,-6.6795,-6.6131,-6.4455,-6.3815,-6.2925,-6.1612,-6.1211,-6.1018,-6.1002,-6.0902,-6.0861,-6.0781,-6.0781,-6.0781,-6.0781,-6.0781,-6.0781,-6.0781,-6.0781,-6.0781,-6.0781,-6.0781,-6.0781,-6.0781,-6.0781,-6.0781,-6.0781,-6.0781,-6.0781,-6.0781,-6.0781,-6.0781,-6.0781,-6.0781,-6.0781,-6.0781,0.0,0.0,0.0,0.0,0.0,0.0,-7.3398,-7.3398,-7.3398,-7.3398,-7.3398,-7.3398,-7.3398,-7.3398,-7.3398,-7.3398,0.0,0.0,0.0,0.0,0.0,0.0,0.0,0.0,0.0,0.0,-7.1366,-6.9707,-6.967,-6.9261,-6.8481,-6.8481,-6.8693,-6.9091,0.0,0.0,0.0,0.0,0.0,0.0,0.0,0.0,0.0,0.0,0.0,0.0,0.0,0.0,0.0,0.0,0.0,0.0,0.0,-6.9435,0.0,0.0,-6.8777,-6.8777,-6.8777,-6.8777,-6.8816,-6.8816,-6.8777,-6.8849,-6.9032,-6.8427,-6.7859,-6.8122,-6.75,-6.6914,-6.6914,-6.6914,-6.6914,-6.6914,0.0,0.0,-6.6905,-6.6902,-6.6859,-6.68,-6.6795,-6.6131,-6.4455,-6.2637,-6.1529,-6.149,-6.1304,-6.1159,-6.1011,-6.0993,-6.0943,-6.0793,-6.0781,-6.0781,-6.0781,-6.0781,-6.0781,-6.0781,-6.0781,-6.0781,-6.0781,-6.0781,-6.0781,-6.0781,-6.0781,-6.0781,-6.0781,-6.0781,-6.0781,-6.0781,-6.0781,-6.0781,-6.0781,-6.0781,-6.0781,-6.0781,0.0,0.0,0.0,0.0,0.0,0.0,0.0,-7.3398,-7.3398,-7.3398,-7.3398,-7.3398,-7.3398,-7.3398,-7.3398,-7.3398,0.0,0.0,0.0,0.0,0.0,0.0,0.0,0.0,0.0,-7.2506,-7.1949,-7.1403,-7.0252,-6.9558,-6.9323,-6.9047,-6.8997,-6.9112,-6.9683,-7.0116,0.0,0.0,0.0,0.0,0.0,0.0,-7.1269,0.0,0.0,0.0,0.0,0.0,0.0,0.0,0.0,0.0,0.0,0.0,0.0,-7.0518,-7.0092,0.0,-6.9628,-7.0054,-7.0518,-7.0518,-7.0054,-6.9663,-6.9928,-6.9323,-6.8756,-6.8981,-6.8359,-6.7773,-6.7773,-6.7305,-6.6914,-6.6914,-6.6914,0.0,-6.6905,-6.6859,-6.6813,-6.6798,-6.5783,-6.4885,-6.4338,-6.268,-6.1651,-6.1651,-6.15,-6.1349,-6.1159,-6.1036,-6.0943,-6.0793,-6.0781,-6.0781,-6.0781,-6.0781,-6.0781,-6.0781,-6.0781,-6.0781,-6.0781,-6.0781,-6.0781,-6.0781,-6.0781,-6.0781,-6.0781,-6.0781,-6.0781,-6.0781,-6.0781,-6.0781,-6.0781,-6.0781,-6.0781,-6.0781,0.0,0.0,0.0,0.0,0.0,0.0,0.0,-7.3398,-7.3398,-7.3398,-7.3398,-7.3398,-7.3398,-7.3398,-7.3398,-7.3398,0.0,0.0,0.0,0.0,0.0,0.0,0.0,0.0,-7.3398,-7.2915,-7.2506,-7.2209,-7.0846,-7.0004,-6.9694,-6.9282,-6.9198,-6.9408,-7.0064,-7.0455,0.0,0.0,0.0,0.0,0.0,0.0,-7.1291,0.0,0.0,0.0,0.0,0.0,0.0,0.0,0.0,0.0,0.0,0.0,0.0,0.0,-7.0905,0.0,0.0,-7.0905,-7.1291,-7.1291,-7.0905,-7.0554,-7.0823,-7.0219,-6.9653,-6.984,-6.8984,-6.8203,-6.8203,-6.75,-6.6914,-6.6914,-6.6914,-6.6911,-6.6905,-6.686,-6.6813,-6.6798,-6.5624,-6.4648,-6.4338,-6.3008,-6.2032,-6.1718,-6.1605,-6.1504,-6.1316,-6.1167,-6.102,-6.0888,-6.0827,-6.0781,-6.0781,-6.0781,-6.0781,-6.0781,-6.0781,-6.0781,-6.0781,-6.0781,-6.0781,-6.0781,-6.0781,-6.0781,0.0,-6.0781,-6.0781,-6.0781,-6.0781,-6.0781,-6.0781,-6.0781,-6.0781,-6.0781,0.0,0.0,0.0,0.0,0.0,0.0,0.0,-7.3398,-7.3398,-7.3398,-7.3398,-7.3398,-7.3398,-7.3398,-7.3398,-7.345,0.0,0.0,0.0,0.0,0.0,0.0,0.0,0.0,-7.3398,-7.3398,-7.3027,-7.2283,-7.1366,-7.0512,-6.9818,-6.9364,-6.9408,-6.9867,-7.0282,-7.0728,0.0,0.0,0.0,0.0,-7.1291,-7.1291,0.0,0.0,0.0,0.0,0.0,0.0,0.0,0.0,0.0,0.0,0.0,0.0,0.0,0.0,0.0,0.0,0.0,-7.1291,-7.1291,-7.1291,-7.1291,-7.1368,-7.1641,-7.1076,0.0,-7.066,-6.9414,-6.8281,-6.8203,-6.75,-6.6914,-6.6914,-6.6914,-6.6913,-6.6905,-6.6902,-6.6857,-6.68,-6.6092,-6.5273,-6.4377,-6.3516,-6.2657,-6.1757,-6.1718,-6.1654,-6.1495,-6.1304,-6.112,-6.103,-6.0877,-6.0781,-6.0781,-6.0781,-6.0781,-6.0781,-6.0781,-6.0781,-6.0781,-6.0781,-6.0781,-6.0781,-6.0781,-6.0781,-6.0781,-6.0781,-6.0781,-6.0781,-6.0781,-6.0781,-6.0781,-6.0781,-6.0781,-6.0781,0.0,0.0,0.0,0.0,0.0,0.0,0.0,0.0,0.0,0.0,-7.3398,-7.3398,-7.3398,-7.3398,-7.3515,0.0,0.0,0.0,0.0,0.0,0.0,0.0,0.0,0.0,-7.3398,-7.3398,-7.3324,-7.3138,-7.1626,-7.1007,-7.1125,-7.0108,-6.9867,-7.0298,-7.0714,-7.103,0.0,0.0,0.0,0.0,-7.1291,-7.1291,0.0,0.0,0.0,0.0,-7.1291,-7.1291,0.0,0.0,0.0,0.0,0.0,0.0,0.0,0.0,-7.1291,0.0,-7.1291,0.0,-7.1291,-7.1291,-7.1291,-7.1368,0.0,-7.1544,-7.1252,-7.0817,-6.9883,-6.8984,-6.832,-6.75,-6.6914,-6.6914,-6.6914,-6.6913,-6.6905,-6.6854,-6.6802,-6.6798,-6.6092,-6.5273,-6.4377,-6.3516,-6.2657,-6.1757,-6.1718,-6.1654,-6.1495,-6.1304,-6.1172,-6.1135,-6.0923,-6.0781,-6.0781,-6.0781,-6.0781,-6.0781,-6.0781,-6.0781,-6.0781,-6.0781,-6.0781,-6.0781,-6.0781,-6.0781,-6.0781,-6.0781,-6.0781,-6.0781,-6.0781,-6.0781,-6.0781,-6.0781,-6.0781,-6.0781,0.0,0.0,0.0,0.0,0.0,0.0,0.0,0.0,0.0,0.0,0.0,0.0,0.0,0.0,0.0,0.0,0.0,0.0,0.0,0.0,0.0,0.0,0.0,-7.3678,-7.3678,-7.3883,-7.3883,-7.3678,-7.2211,-7.1636,-7.1857,-7.0647,-7.0195,-7.0471,-7.0953,-7.1213,-7.1247,-7.128,-7.1291,-7.1291,-7.1291,0.0,0.0,0.0,0.0,0.0,-7.1291,-7.1291,0.0,-7.1291,-7.1291,-7.1291,0.0,0.0,0.0,0.0,-7.1291,-7.1291,-7.1291,-7.1291,-7.1291,-7.1291,-7.1291,-7.1368,-7.1641,-7.17,-7.1525,-7.0856,-7.0078,-6.9219,-6.8359,-6.75,-6.6914,-6.6914,-6.6914,-6.6913,-6.6905,-6.685,-6.6795,-6.6795,-6.6405,-6.5663,-6.4416,-6.3867,-6.3086,-6.1796,-6.1718,-6.1666,-6.1591,-6.1422,-6.1322,-6.1322,-6.1048,-6.091,-6.091,-6.0839,-6.0781,-6.0781,-6.0781,-6.0781,-6.0781,-6.0781,-6.0781,-6.0781,-6.0781,-6.0781,-6.0781,-6.0781,-6.0781,-6.0781,-6.0781,-6.0781,-6.0781,-6.0781,-6.0781,-6.0781,0.0,0.0,0.0,0.0,0.0,0.0,0.0,0.0,0.0,0.0,0.0,0.0,0.0,0.0,0.0,0.0,0.0,0.0,0.0,0.0,0.0,0.0,-7.4374,-7.4124,-7.4124,-7.4519,-7.4502,-7.4109,-7.2838,-7.2262,-7.2282,-7.1014,-7.0501,-7.0647,-7.1116,-7.1291,-7.1291,-7.1291,-7.1291,-7.1291,-7.1291,0.0,0.0,0.0,0.0,0.0,0.0,0.0,0.0,-7.1291,-7.1291,-7.1291,-7.1291,0.0,0.0,0.0,0.0,0.0,-7.1291,-7.1291,-7.1291,-7.1291,-7.1291,-7.1368,-7.1615,-7.1572,-7.1326,-7.0618,-6.9843,-6.9023,-6.8164,-6.7383,-6.6914,-6.6914,-6.6914,-6.6912,-6.6905,-6.685,-6.6795,-6.6795,-6.6795,-6.6131,-6.4455,-6.4299,-6.3594,-6.1835,-6.1718,-6.1718,-6.1718,-6.1576,-6.1495,-6.1513,-6.1205,-6.1011,-6.1048,-6.0877,-6.0781,-6.0781,-6.0781,-6.0781,-6.0781,-6.0781,-6.0781,-6.0781,-6.0781,-6.0781,-6.0781,-6.0781,-6.0781,-6.0781,-6.0781,-6.0781,-6.0781,-6.0781,-6.0781,-6.0781,0.0,0.0,0.0,0.0,0.0,0.0,0.0,0.0,0.0,0.0,0.0,0.0,0.0,0.0,0.0,0.0,0.0,0.0,0.0,0.0,0.0,-7.5772,-7.5019,-7.4564,-7.4564,-7.4685,-7.4687,-7.4708,-7.306,-7.2505,-7.2843,-7.1298,-7.0771,-7.1174,-7.1269,-7.1291,-7.1291,-7.1291,-7.1291,-7.1291,-7.1291,0.0,0.0,0.0,0.0,0.0,0.0,0.0,0.0,-7.1291,-7.1291,-7.1291,-7.1291,0.0,0.0,0.0,0.0,0.0,-7.1291,-7.1291,-7.1291,-7.1291,-7.1291,-7.1327,-7.1512,-7.1038,-7.0406,-6.9642,-6.8938,-6.8125,-6.7265,-6.6992,-6.6914,-6.6914,-6.6911,-6.6905,-6.6904,-6.685,-6.6795,-6.6795,-6.6795,-6.6131,-6.4455,-6.4299,-6.3594,-6.1835,-6.1718,-6.1718,-6.1718,-6.1576,-6.1564,-6.1666,-6.1218,-6.1044,-6.115,-6.0923,-6.0781,-6.0781,-6.0781,-6.0781,-6.0781,-6.0781,-6.0781,-6.0781,-6.0781,-6.0781,-6.0781,-6.0781,-6.0781,-6.0781,-6.0781,-6.0781,-6.0781,-6.0781,-6.0781,-6.0781,0.0,0.0,0.0,0.0,0.0,0.0,0.0,0.0,0.0,0.0,0.0,0.0,0.0,0.0,0.0,0.0,0.0,0.0,0.0,0.0,-7.5787,-7.5976,-7.5654,-7.531,-7.5018,-7.531,-7.5115,-7.4481,-7.3516,-7.2931,-7.2629,-7.1492,-7.1053,-7.1291,-7.1291,-7.1291,-7.1291,-7.1291,-7.1291,-7.1291,0.0,0.0,0.0,0.0,0.0,0.0,0.0,0.0,0.0,0.0,-7.1291,-7.1291,-7.1291,0.0,0.0,0.0,0.0,0.0,-7.1291,-7.1291,-7.1291,-7.1291,-7.1291,-7.1201,-7.0865,-7.0533,-6.9979,-6.8844,-6.8336,-6.7845,-6.7031,-6.6914,-6.6914,-6.6914,-6.6911,-6.6904,-6.6904,-6.685,-6.6795,-6.6795,-6.6795,-6.6327,-6.5116,-6.457,-6.375,-6.2501,-6.1952,-6.1718,-6.1718,-6.1654,-6.1651,-6.1718,-6.131,-6.1151,-6.1186,-6.0943,-6.0781,-6.0781,-6.0781,-6.105,-6.1512,-6.1512,-6.1743,-6.2166,-6.2166,-6.2166,-6.2166,-6.2166,-6.1897,-6.1512,-6.1512,-6.1204,-6.0781,-6.0781,-6.0781,-6.0781,0.0,0.0,0.0,0.0,0.0,0.0,0.0,0.0,0.0,0.0,0.0,0.0,0.0,0.0,0.0,0.0,0.0,0.0,0.0,0.0,-7.602,-7.6072,-7.609,-7.5938,-7.5518,-7.5923,-7.5543,-7.4382,-7.3919,-7.3176,-7.2119,-7.151,-7.1247,-7.1291,-7.1291,-7.1291,-7.1291,-7.1291,-7.1291,-7.1291,0.0,0.0,0.0,0.0,0.0,0.0,0.0,0.0,0.0,0.0,0.0,0.0,0.0,0.0,0.0,-7.1291,-7.1291,-7.1291,-7.1291,-7.1291,-7.1291,-7.1291,-7.1137,-7.0842,-7.0261,-6.9864,-6.931,-6.8191,-6.7802,-6.7514,-6.6991,-6.6914,-6.6914,-6.6914,-6.6911,-6.6904,-6.6904,-6.685,-6.6795,-6.6795,-6.6795,-6.6483,-6.5663,-6.4999,-6.414,-6.3086,-6.2384,-6.1913,-6.1718,-6.1718,-6.1718,-6.1718,-6.1362,-6.1303,-6.1497,-6.1252,-6.1089,-6.1089,-6.1089,-6.155,-6.2358,-6.2358,-6.2704,-6.3308,-6.3308,-6.3308,-6.3308,-6.3308,-6.2935,-6.2358,-6.2178,-6.1562,-6.0781,-6.0781,-6.0781,-6.0781,0.0,0.0,0.0,0.0,0.0,0.0,0.0,0.0,0.0,0.0,0.0,0.0,0.0,0.0,0.0,0.0,0.0,0.0,0.0,0.0,-7.6118,-7.6172,-7.6185,-7.6145,-7.6062,-7.6145,-7.5787,-7.495,-7.4164,-7.2963,-7.1396,-7.133,-7.1291,-7.1291,-7.1291,-7.1291,-7.1291,-7.1291,-7.1291,-7.1291,-7.1291,0.0,0.0,0.0,0.0,0.0,0.0,0.0,0.0,0.0,0.0,0.0,0.0,0.0,-7.1291,-7.1291,-7.1291,-7.1291,-7.1291,-7.1291,-7.1291,-7.1291,-7.0672,-7.0064,-7.0036,-6.8906,-6.7875,-6.7826,-6.7259,-6.6811,-6.6874,-6.6914,-6.6914,-6.6914,-6.6911,-6.6904,-6.6904,-6.685,-6.6795,-6.6795,-6.6795,-6.6483,-6.5663,-6.5546,-6.4804,-6.3125,-6.293,-6.254,-6.1757,-6.1718,-6.1718,-6.1718,-6.1362,-6.1575,-6.2415,-6.213,-6.2024,-6.2024,-6.2024,-6.2435,-6.3205,-6.3205,-6.3231,-6.3308,-6.3308,-6.3308,-6.3308,-6.3308,-6.3281,-6.3128,-6.2397,-6.1562,-6.0781,-6.0781,-6.0781,-6.0781,0.0,0.0,0.0,0.0,0.0,0.0,0.0,0.0,0.0,0.0,0.0,0.0,0.0,0.0,0.0,0.0,0.0,0.0,0.0,-7.6159,-7.6172,-7.6198,-7.6238,-7.625,-7.6225,-7.625,-7.5619,-7.4253,-7.2909,-7.1927,-7.1291,-7.1291,-7.1291,-7.1291,-7.1291,-7.1291,-7.1291,-7.1291,-7.1291,-7.1291,-7.1291,-7.1291,0.0,0.0,0.0,0.0,0.0,0.0,0.0,0.0,-7.1291,-7.1291,-7.1291,-7.1291,-7.1291,-7.1291,-7.1291,-7.1291,-7.1291,-7.1291,-7.1175,-7.0634,-6.986,-6.9241,-6.9241,-6.847,-6.7565,-6.7047,-6.6828,-6.6733,-6.6874,-6.6914,-6.6914,-6.6914,-6.6911,-6.6904,-6.6904,-6.685,-6.6795,-6.6795,-6.6795,-6.6678,-6.6366,-6.5897,-6.5312,-6.4687,-6.4101,-6.3438,-6.254,-6.2501,-6.2501,-6.2501,-6.218,-6.2422,-6.3316,-6.298,-6.3128,-6.3666,-6.3128,-6.3281,-6.4128,-6.4128,-6.4397,-6.4936,-6.4936,-6.4936,-6.4936,-6.4936,-6.4589,-6.4012,-6.3166,-6.232,-6.1601,-6.1601,-6.1281,-6.0781,0.0,0.0,0.0,0.0,0.0,0.0,0.0,0.0,0.0,0.0,0.0,0.0,0.0,0.0,0.0,0.0,0.0,0.0,-7.6225,-7.6225,-7.6238,-7.6263,-7.6313,-7.6338,-7.6338,-7.6055,-7.5243,-7.3825,-7.212,-7.1291,-7.1291,-7.1291,-7.1291,-7.1291,-7.1291,-7.1291,-7.1291,-7.1291,-7.1291,-7.1291,-7.1291,-7.1291,0.0,0.0,0.0,0.0,0.0,0.0,0.0,0.0,-7.1291,-7.1291,-7.1291,-7.1291,-7.1291,-7.1291,-7.1291,-7.1291,-7.1291,-7.1291,-7.1098,-7.0208,-6.9396,-6.8738,-6.8468,-6.7803,-6.7074,-6.656,-6.6611,-6.6785,-6.6874,-6.6914,-6.6914,-6.6914,-6.6911,-6.6904,-6.6904,-6.685,-6.6795,-6.6795,-6.6795,-6.6795,-6.6795,-6.6288,-6.5858,-6.5624,-6.5038,-6.4336,-6.3477,-6.3399,-6.3399,-6.3399,-6.3075,-6.3316,-6.4216,-6.3868,-6.4166,-6.5013,-6.4397,-6.4436,-6.5013,-6.5013,-6.532,-6.5897,-6.5897,-6.5897,-6.5897,-6.5897,-6.5397,-6.4551,-6.3935,-6.3051,-6.2101,-6.2144,-6.1588,-6.0867,0.0,0.0,0.0,0.0,0.0,0.0,0.0,0.0,0.0,0.0,0.0,0.0,0.0,0.0,0.0,0.0,0.0,0.0,-7.6301,-7.6301,-7.6338,-7.6397,-7.6397,-7.6397,-7.6397,-7.5546,-7.4695,-7.3883,-7.2142,-7.1291,-7.1291,-7.1291,-7.1291,-7.1291,-7.1291,-7.1291,-7.1291,-7.1291,-7.1291,-7.1291,-7.1291,-7.1291,-7.1291,0.0,0.0,0.0,0.0,0.0,0.0,0.0,-7.1291,-7.1291,-7.1291,0.0,-7.1291,-7.1291,-7.1291,-7.1291,-7.1291,-7.1291,-7.1098,-7.0208,-6.9396,-6.8584,-6.7694,-6.6804,-6.6263,-6.6546,-6.6761,-6.6914,-6.6914,-6.6914,-6.6914,-6.6914,-6.6911,-6.6904,-6.6904,-6.685,-6.6798,-6.6795,-6.6795,-6.6795,-6.6795,-6.6795,-6.6483,-6.5663,-6.5624,-6.5234,-6.4377,-6.4299,-6.4299,-6.4299,-6.3976,-6.4216,-6.5102,-6.4795,-6.5051,-6.5897,-6.5897,-6.5897,-6.5897,-6.5897,-6.5897,-6.5897,-6.5897,-6.5897,-6.5897,-6.5897,-6.5397,-6.4628,-6.4628,-6.3589,-6.2136,-6.2277,-6.1776,-6.103,0.0,0.0,0.0,0.0,0.0,0.0,0.0,0.0,0.0,0.0,0.0,0.0,0.0,0.0,0.0,0.0,0.0,0.0,-7.6374,-7.6374,-7.6386,-7.6397,-7.6397,-7.6127,-7.5508,-7.4077,-7.3226,-7.2993,-7.1833,-7.1291,-7.1291,-7.1291,-7.1291,-7.1291,-7.1291,-7.1291,-7.1291,-7.1291,-7.1291,-7.1291,-7.1291,-7.1291,-7.1291,0.0,0.0,0.0,0.0,0.0,0.0,0.0,0.0,0.0,-7.1291,0.0,-7.1291,-7.1291,-7.1291,-7.1291,-7.1291,-7.1291,-7.0943,-6.9512,-6.897,-6.8429,-6.692,-6.6456,-6.6414,-6.6619,-6.6719,-6.6784,-6.6874,-6.6914,-6.6914,-6.6914,-6.6912,-6.6908,-6.6904,-6.6856,-6.6805,-6.6798,-6.6795,-6.6795,-6.6795,-6.6795,-6.6717,-6.6444,-6.6444,-6.6092,-6.5273,-6.5194,-6.5194,-6.5194,-6.4905,-6.5102,-6.5918,-6.5644,-6.5628,-6.5897,-6.5897,-6.5897,-6.5897,-6.5897,-6.5897,-6.5897,-6.5897,-6.5897,-6.5897,-6.5897,-6.5743,-6.5513,-6.5513,-6.4891,-6.3938,-6.3409,-6.271,-6.1982,0.0,0.0,0.0,0.0,0.0,0.0,0.0,0.0,0.0,0.0,-7.6338,-7.6338,0.0,0.0,0.0,0.0,0.0,0.0,0.0,-7.6397,-7.6397,-7.6397,-7.6049,-7.5314,-7.4115,-7.3109,-7.2413,-7.2065,-7.1562,-7.1291,-7.1291,-7.1291,-7.1291,-7.1291,-7.1291,-7.1291,-7.1291,-7.1291,-7.1291,-7.1291,-7.1291,-7.1291,-7.1253,0.0,0.0,0.0,0.0,0.0,0.0,0.0,0.0,0.0,-7.1291,0.0,-7.1291,-7.1291,-7.1291,-7.1291,-7.1291,-7.1291,-7.0982,-6.9628,-6.9048,-6.8372,-6.668,-6.6369,-6.6501,-6.6658,-6.6733,-6.6788,-6.6875,-6.6914,-6.6914,-6.6914,-6.6913,-6.691,-6.6904,-6.6857,-6.6809,-6.6798,-6.6795,-6.6795,-6.6795,-6.6795,-6.6795,-6.6795,-6.6795,-6.66,-6.6092,-6.6092,-6.6092,-6.6092,-6.5762,-6.5802,-6.6314,-6.603,-6.5897,-6.5897,-6.5897,-6.5897,-6.5897,-6.5897,-6.5897,-6.5897,-6.5897,-6.5897,-6.5897,-6.5897,-6.5921,-6.5978,-6.5978,-6.5543,-6.4886,-6.4411,-6.357,-6.2567,0.0,0.0,0.0,0.0,0.0,0.0,0.0,0.0,0.0,0.0,-7.6397,-7.6397,0.0,0.0,0.0,0.0,0.0,0.0,0.0,0.0,-7.6359,-7.6281,-7.5392,-7.4154,-7.2645,-7.2529,-7.2104,-7.1291,-7.1291,-7.1291,-7.1291,-7.1291,-7.1291,-7.1291,-7.1291,-7.1291,-7.1291,-7.1291,-7.1291,-7.1291,-7.1291,-7.1253,-7.1098,-7.0286,0.0,0.0,0.0,0.0,0.0,0.0,0.0,0.0,-7.1291,-7.1291,-7.1291,-7.1291,-7.1291,-7.1291,-7.1291,-7.1291,-7.1098,-7.0208,-6.9357,-6.8297,-6.6874,-6.6555,-6.6624,-6.6706,-6.6827,-6.6914,-6.6914,-6.6914,-6.6914,-6.6914,-6.6913,-6.691,-6.6904,-6.6857,-6.6809,-6.6798,-6.6795,-6.6795,-6.6795,-6.6795,-6.6795,-6.6795,-6.6795,-6.6795,-6.6795,-6.6795,-6.6795,-6.6795,-6.6462,-6.6314,-6.6314,-6.603,-6.5897,-6.5897,-6.5897,-6.5897,-6.5897,-6.5897,-6.5897,-6.5897,-6.5897,-6.5897,-6.5897,-6.5897,-6.5967,-6.6077,-6.6098,-6.5729,-6.521,-6.5267,-6.434,-6.3042,0.0,0.0,0.0,0.0,0.0,0.0,0.0,0.0,0.0,0.0,0.0,0.0,0.0,0.0,0.0,0.0,0.0,0.0,0.0,0.0,-7.6088,-7.543,-7.396,-7.2955,-7.2607,-7.191,-7.1485,-7.1291,-7.1291,-7.1291,-7.1291,-7.1291,-7.1291,-7.1291,-7.1291,-7.1291,-7.1291,-7.1291,-7.1291,-7.1291,-7.1291,-7.0905,-7.0247,-7.0054,-6.9705,0.0,0.0,0.0,0.0,0.0,0.0,0.0,-7.1291,-7.1291,-7.1291,-7.1291,-7.1291,-7.1291,-7.1291,-7.1291,-7.1098,-7.0208,-6.8893,-6.7716,-6.7554,-6.7042,-6.6624,-6.6706,-6.6827,-6.6914,-6.6914,-6.6914,-6.6914,-6.6914,-6.6914,-6.6913,-6.6905,-6.6902,-6.6856,-6.68,-6.6795,-6.6795,-6.6795,-6.6795,-6.6795,-6.6795,-6.6795,-6.6795,-6.6795,-6.6795,-6.6795,-6.6795,-6.6462,-6.6314,-6.6314,-6.603,-6.5897,-6.5897,-6.5897,-6.5897,-6.5897,-6.5897,-6.5897,-6.5897,-6.5897,-6.5897,-6.5897,-6.5897,-6.5935,-6.597,-6.6074,-6.6078,-6.598,-6.55,-6.5164,-6.4827,0.0,0.0,0.0,0.0,0.0,0.0,0.0,0.0,0.0,0.0,0.0,0.0,0.0,0.0,0.0,0.0,0.0,0.0,0.0,0.0,-7.5237,-7.396,-7.3071,-7.2413,-7.1988,-7.1523,-7.1291,-7.1291,-7.1291,-7.1291,-7.1291,-7.1291,-7.1291,-7.1291,-7.1291,-7.1291,-7.1291,-7.1291,-7.1059,-7.0672,-7.0672,-7.017,-6.9396,-6.897,-6.8816,-6.8816,-6.8816,0.0,0.0,0.0,0.0,0.0,0.0,0.0,-7.1291,-7.1291,-7.1291,-7.1291,-7.1291,-7.1291,-7.1098,-7.0208,-6.9319,-6.851,-6.7889,-6.7448,-6.7092,-6.6784,-6.6827,-6.6914,-6.6914,-6.6914,-6.6914,-6.6914,-6.6914,-6.6914,-6.6909,-6.6905,-6.69,-6.6807,-6.68,-6.6795,-6.6795,-6.6795,-6.6795,-6.6795,-6.6795,-6.6795,-6.6795,-6.6795,-6.6795,-6.6795,-6.6462,-6.6314,-6.6314,-6.603,-6.5897,-6.5897,-6.5897,-6.5897,-6.5897,-6.5897,-6.5897,-6.5897,-6.5897,-6.5897,-6.591,-6.5955,-6.603,-6.6118,-6.6273,-6.6439,-6.6517,-6.6139,-6.5829,-6.5468,0.0,0.0,0.0,0.0,0.0,0.0,0.0,0.0,0.0,0.0,0.0,0.0,0.0,0.0,0.0,0.0,0.0,0.0,0.0,0.0,0.0,-7.2645,-7.2452,-7.2026,-7.133,-7.1291,-7.1291,-7.1291,-7.1291,-7.1291,-7.1291,-7.1291,-7.1291,-7.1291,-7.1291,-7.1291,-7.1291,-7.1137,-7.0672,-6.9976,-6.986,-6.9319,-6.8506,-6.7771,-6.7849,-6.8274,-6.7694,0.0,-6.9589,-6.9899,0.0,0.0,0.0,0.0,-7.1291,-7.1291,-7.1291,-7.1291,-7.1291,-7.1291,-7.1137,-7.0402,-7.0092,-6.9691,-6.8402,-6.7943,-6.7628,-6.7003,-6.6902,-6.6914,-6.6914,-6.6914,-6.6914,-6.6914,-6.6914,-6.6914,-6.6911,-6.6906,-6.686,-6.6811,-6.6802,-6.6795,-6.6795,-6.6795,-6.6795,-6.6795,-6.6795,-6.6795,-6.6795,-6.6795,-6.6795,-6.6795,-6.6462,-6.6314,-6.6314,-6.603,-6.5897,-6.5897,-6.5897,-6.5897,-6.5897,-6.5897,-6.5897,-6.5897,-6.5897,-6.5897,-6.5923,-6.6008,-6.6138,-6.6283,-6.6477,-6.6629,-6.6781,-6.6792,-6.6366,-6.578,0.0,0.0,0.0,0.0,0.0,0.0,0.0,0.0,0.0,0.0,-7.6397,-7.6397,0.0,0.0,0.0,0.0,0.0,0.0,0.0,0.0,0.0,-7.2607,-7.1872,-7.1407,-7.1291,-7.1291,-7.1291,-7.1291,-7.1291,-7.1291,-7.1291,-7.1291,-7.1291,-7.1291,-7.1291,-7.1291,-7.1253,-7.0479,-7.0092,-6.9938,-6.9241,-6.8429,-6.7655,-6.7539,-6.7114,-6.6611,-6.7268,-6.7655,-6.8042,-6.9512,-7.0092,0.0,0.0,0.0,-7.1291,-7.1291,-7.1291,-7.1291,-7.1291,-7.1291,-7.1253,-7.1175,-7.0556,-7.0,-6.9878,-6.8793,-6.7764,-6.7662,-6.7234,-6.6914,-6.6914,-6.6914,-6.6914,-6.6914,-6.6914,-6.6913,-6.6906,-6.6904,-6.6898,-6.68,-6.6798,-6.6795,-6.6795,-6.6795,-6.6795,-6.6795,-6.6795,-6.6795,-6.6795,-6.6795,-6.6795,-6.6795,-6.6462,-6.6314,-6.6314,-6.603,-6.5897,-6.5897,-6.5897,-6.5897,-6.5897,-6.5897,-6.5897,-6.5897,-6.5897,-6.5897,-6.591,-6.5935,-6.6024,-6.6129,-6.6283,-6.6471,-6.6624,-6.6775,-6.6717,-6.6522,0.0,0.0,0.0,0.0,0.0,0.0,0.0,0.0,0.0,0.0,0.0,-7.6397,0.0,0.0,0.0,0.0,0.0,0.0,0.0,0.0,0.0,0.0,-7.1485,-7.1291,-7.1291,-7.1291,-7.1291,-7.1291,-7.1291,-7.1291,-7.1291,-7.1291,-7.1291,-7.1291,-7.1291,-7.1291,-7.1253,-7.0363,-6.9778,-6.9332,-6.8442,-6.761,-6.6898,-6.6898,-6.6665,-6.6364,-6.6812,-6.7269,-6.7759,-6.8476,-6.9332,-7.0167,-7.0483,0.0,0.0,0.0,-7.1291,-7.1291,-7.1291,-7.1291,-7.1291,-7.1291,-7.1021,-7.0659,-7.0274,-6.9695,-6.9123,-6.8621,-6.8049,-6.746,-6.6905,-6.6833,-6.6914,-6.6914,-6.6914,-6.6914,-6.6909,-6.6906,-6.69,-6.6807,-6.68,-6.6795,-6.6795,-6.6795,-6.6795,-6.6795,-6.6795,-6.6795,-6.6795,-6.6795,-6.6795,-6.6795,-6.6462,-6.6314,-6.6314,-6.603,-6.5897,-6.5897,-6.5897,-6.5897,-6.5897,-6.5897,-6.5897,-6.5897,-6.5897,-6.5897,-6.5923,-6.6046,-6.6157,-6.6226,-6.6468,-6.6642,-6.6716,-6.6787,-6.6795,-6.6756,0.0,0.0,0.0,0.0,0.0,0.0,0.0,0.0,0.0,0.0,0.0,0.0,0.0,0.0,0.0,0.0,0.0,0.0,0.0,0.0,0.0,0.0,0.0,-7.1291,-7.1291,-7.1291,-7.1291,-7.1291,-7.1291,-7.1291,-7.1291,-7.1291,-7.1291,-7.1291,-7.1291,-7.1175,-7.0915,-7.0078,-6.9293,-6.8513,-6.7614,-6.6919,-6.645,-6.645,-6.645,-6.6464,-6.6563,-6.698,-6.7514,-6.769,-6.8543,-6.964,-6.9963,-7.0485,0.0,0.0,0.0,-7.1291,-7.1291,-7.1291,-7.1291,-7.1291,-7.1291,-7.1141,-7.061,-7.0416,-7.0167,-6.9511,-6.8886,-6.8196,-6.7193,-6.6945,-6.6914,-6.6914,-6.6914,-6.6914,-6.6912,-6.6907,-6.6862,-6.6813,-6.6802,-6.6795,-6.6795,-6.6795,-6.6795,-6.6795,-6.6795,-6.6795,-6.6795,-6.6795,-6.6795,-6.6795,-6.6462,-6.6314,-6.6314,-6.603,-6.5897,-6.5897,-6.5897,-6.5897,-6.5897,-6.5897,-6.5897,-6.5897,-6.5897,-6.5897,-6.5935,-6.6148,-6.6275,-6.6337,-6.6638,-6.6781,-6.6795,-6.6795,-6.6795,-6.6795,0.0,0.0,0.0,0.0,0.0,0.0,0.0,0.0,0.0,0.0,0.0,0.0,-7.5276,-7.5121,-7.4811,-7.4038,-7.3187,0.0,0.0,0.0,0.0,0.0,0.0,0.0,-7.1291,-7.1291,-7.1291,-7.1291,-7.1291,-7.1291,-7.1291,-7.1291,-7.1291,-7.1291,-7.1291,-7.0827,-7.0036,-6.9252,-6.8474,-6.7721,-6.6957,-6.6618,-6.6585,-6.6585,-6.6585,-6.6585,-6.659,-6.6629,-6.6785,-6.7559,-6.7865,-6.8199,-6.9725,-7.0213,-7.0374,0.0,0.0,0.0,-7.1291,-7.1291,-7.1291,-7.1291,-7.1291,-7.1302,-7.1236,-7.0689,-7.0207,-7.0137,-6.965,-6.8984,-6.8086,-6.7375,-6.6914,-6.6914,-6.6914,-6.6914,-6.6912,-6.6907,-6.6862,-6.6813,-6.6802,-6.6795,-6.6795,-6.6795,-6.6795,-6.6795,-6.6795,-6.6795,-6.6795,-6.6795,-6.6795,-6.6795,-6.6462,-6.6314,-6.6314,-6.603,-6.5897,-6.5897,-6.5897,-6.5897,-6.5897,-6.5897,-6.5897,-6.5897,-6.5897,-6.5897,-6.5923,-6.6063,-6.6194,-6.6329,-6.6513,-6.6697,-6.6795,-6.6795,-6.6795,-6.6795,0.0,0.0,0.0,0.0,0.0,0.0,0.0,0.0,0.0,0.0,0.0,0.0,0.0,-7.4154,-7.338,-7.3109,-7.2258,0.0,0.0,0.0,0.0,0.0,0.0,0.0,-7.1291,-7.1291,-7.1291,-7.1291,-7.1291,-7.1291,-7.1291,-7.1291,-7.1291,-7.1291,-7.1291,-7.0827,-6.9959,-6.9222,-6.8465,-6.7696,-6.6925,-6.6633,-6.6645,-6.6645,-6.6645,-6.6688,-6.6766,-6.6776,-6.6811,-6.7049,-6.7461,-6.8028,-6.8511,-6.9442,-7.0486,-7.1333,-7.152,-7.1452,-7.1529,-7.1473,-7.1425,-7.1425,-7.1425,-7.1452,-7.1529,-7.128,-7.1077,-7.1214,-7.058,-6.9939,-6.9715,-6.8623,-6.7539,-6.6992,-6.6914,-6.6914,-6.6912,-6.691,-6.6866,-6.6813,-6.6809,-6.6805,-6.6798,-6.6795,-6.6795,-6.6795,-6.6795,-6.6795,-6.6795,-6.6795,-6.6795,-6.6795,-6.6462,-6.62,-6.6052,-6.5958,-6.5897,-6.5897,-6.5897,-6.5897,-6.5897,-6.5897,-6.5897,-6.5897,-6.5897,-6.5958,-6.6041,-6.6176,-6.6322,-6.6501,-6.665,-6.6775,-6.6795,-6.6795,-6.6795,-6.6795,0.0,0.0,0.0,0.0,0.0,0.0,0.0,0.0,0.0,-7.5972,0.0,0.0,0.0,0.0,-7.2491,-7.2181,-7.164,-7.1291,-7.1291,-7.1291,0.0,0.0,0.0,0.0,-7.1291,-7.1291,-7.1291,-7.1291,-7.1291,-7.1291,-7.1291,-7.1291,-7.1291,-7.1302,-7.1056,-7.0428,-6.9595,-6.8847,-6.8098,-6.7387,-6.6908,-6.6712,-6.6779,-6.6779,-6.6779,-6.6782,-6.6874,-6.6914,-6.6875,-6.6787,-6.7168,-6.7668,-6.7836,-6.8837,-7.0097,-7.0642,-7.0973,-7.116,-7.1249,-7.1407,-7.1566,-7.1566,-7.1566,-7.1594,-7.1683,-7.1634,-7.1595,-7.1771,-7.1285,-7.0805,-7.0675,-6.9761,-6.8672,-6.7539,-6.7109,-6.6914,-6.6913,-6.6912,-6.6869,-6.6857,-6.6813,-6.6807,-6.6798,-6.6795,-6.6795,-6.6795,-6.6795,-6.6795,-6.6795,-6.6795,-6.6739,-6.6646,-6.6419,-6.6176,-6.591,-6.5897,-6.5897,-6.5897,-6.5897,-6.5897,-6.5897,-6.5897,-6.5897,-6.5897,-6.5897,-6.5967,-6.6128,-6.6243,-6.64,-6.6605,-6.6733,-6.6795,-6.6795,-6.6795,-6.6795,-6.6795,0.0,0.0,0.0,0.0,0.0,0.0,0.0,0.0,-7.5071,-7.5082,0.0,0.0,0.0,0.0,0.0,-7.1369,-7.1291,-7.1291,-7.1291,-7.1291,0.0,0.0,0.0,0.0,-7.1291,-7.1291,-7.1291,-7.1291,-7.1291,-7.1291,-7.1291,-7.1291,-7.1302,-7.1236,-7.0502,-6.9686,-6.8816,-6.8104,-6.7391,-6.6722,-6.6833,-6.6914,-6.6914,-6.6914,-6.6914,-6.6914,-6.6914,-6.6914,-6.6914,-6.6914,-6.6914,-6.703,-6.7785,-6.8503,-6.9089,-6.9089,-6.9712,-7.0375,0.0,0.0,0.0,-7.1666,-7.1666,-7.1666,-7.1705,-7.1705,-7.1731,-7.178,-7.1792,-7.1573,-7.0859,-7.0703,-7.0156,-6.8555,-6.7539,-6.6953,-6.6953,-6.6952,-6.6949,-6.6904,-6.6857,-6.6809,-6.6798,-6.6795,-6.6795,-6.6795,-6.6795,-6.6795,-6.6795,-6.6795,-6.6654,-6.6322,-6.6314,-6.6176,-6.591,-6.5897,-6.5897,-6.5897,-6.5897,-6.5897,-6.5897,-6.5897,-6.5897,-6.5897,-6.591,-6.5978,-6.6128,-6.6243,-6.6406,-6.661,-6.6733,-6.6795,-6.6795,-6.6795,-6.6795,-6.6795,0.0,0.0,0.0,0.0,0.0,0.0,0.0,-7.5237,-7.4877,0.0,0.0,0.0,-7.2645,-7.2026,-7.1562,-7.133,-7.1291,-7.1291,-7.1291,-7.1291,-7.1291,-7.1291,-7.1291,-7.1291,-7.1291,-7.1291,-7.1291,-7.1291,-7.1291,-7.1291,-7.1291,-7.1291,-7.1028,-7.0464,-6.9623,-6.8877,-6.8253,-6.8043,-6.7442,-6.6722,-6.6833,-6.6914,-6.6914,-6.6914,-6.6914,-6.6914,-6.6914,-6.6914,-6.6914,-6.6914,-6.6914,-6.7031,-6.7888,-6.8273,-6.8541,-6.9166,-6.9455,-6.9624,-6.9704,0.0,0.0,0.0,0.0,0.0,-7.1647,-7.1716,-7.1755,-7.1903,-7.1828,-7.1714,-7.1638,-7.1086,-7.0494,-7.0078,-6.9336,-6.8555,-6.793,-6.7851,-6.7616,-6.6983,-6.6862,-6.6856,-6.6798,-6.6795,-6.6795,-6.6795,-6.6795,-6.6795,-6.6795,-6.6795,-6.6654,-6.6322,-6.6314,-6.6176,-6.591,-6.5897,-6.5897,-6.5897,-6.5897,-6.5897,-6.5897,-6.5897,-6.5897,-6.591,-6.6013,-6.6099,-6.6243,-6.6291,-6.6501,-6.6733,-6.679,-6.6795,-6.6795,-6.6795,-6.6795,-6.6795,0.0,0.0,0.0,0.0,0.0,0.0,-7.4695,-7.4309,-7.3883,0.0,0.0,0.0,-7.2065,-7.1601,-7.1291,-7.1291,-7.1291,-7.1291,-7.1291,-7.1291,-7.1291,-7.1291,-7.1291,-7.1291,-7.1291,-7.1291,-7.1291,-7.1291,-7.1291,-7.1291,-7.1291,-7.0999,-7.0592,-7.0152,-6.904,-6.8344,-6.7964,-6.7672,-6.7251,-6.6785,-6.6874,-6.6914,-6.6914,-6.6914,-6.6914,-6.6914,-6.6914,-6.6914,-6.6914,-6.6914,-6.6914,-6.6992,-6.75,-6.7656,-6.7734,-6.8203,-6.859,-6.8855,-6.8944,-6.9137,-6.9477,-7.0024,0.0,0.0,-7.0688,-7.0785,-7.0897,-7.1366,-7.135,-7.1446,-7.1913,-7.1558,-7.1201,-7.125,-7.0859,-7.0117,-6.8867,-6.871,-6.8396,-6.7487,-6.7406,-6.7244,-6.6837,-6.6795,-6.6795,-6.6795,-6.6795,-6.6795,-6.6795,-6.6795,-6.6654,-6.6322,-6.6314,-6.6176,-6.591,-6.5897,-6.5897,-6.5897,-6.5897,-6.5897,-6.5897,-6.5897,-6.5897,-6.5923,-6.6052,-6.6185,-6.6314,-6.6379,-6.6561,-6.6795,-6.6795,-6.6795,-6.6795,-6.6795,-6.6795,-6.6795,0.0,0.0,0.0,0.0,0.0,0.0,0.0,-7.3104,-7.2612,0.0,-7.182,-7.1327,-7.1327,-7.1327,-7.1327,-7.1327,-7.1327,-7.1327,-7.1327,-7.1327,-7.1355,-7.1334,-7.1334,-7.1324,-7.1291,-7.1291,-7.1291,-7.1291,-7.1291,-7.1302,-7.1296,-7.0541,-7.0168,-7.002,-6.8643,-6.7966,-6.7817,-6.7184,-6.6914,-6.6914,-6.6914,-6.6914,-6.6914,-6.6914,-6.6914,-6.6914,-6.6914,-6.6914,-6.6914,-6.6914,-6.6914,-6.6914,-6.6914,-6.6914,-6.6914,-6.6914,-6.7461,-6.8047,-6.8047,-6.8594,-6.914,-6.9297,-6.9297,0.0,-6.9375,-6.9414,-6.9609,-7.039,-7.0547,-7.082,-7.1679,-7.1875,-7.1875,-7.1992,-7.199,-7.1442,-6.9763,-6.9528,-6.9212,-6.8338,-6.8258,-6.7902,-6.7032,-6.6951,-6.6912,-6.6795,-6.6795,-6.6795,-6.6795,-6.6795,-6.6658,-6.6344,-6.6322,-6.6185,-6.5909,-6.5923,-6.5897,-6.5897,-6.5897,-6.5897,-6.5897,-6.5897,-6.5897,-6.5923,-6.6074,-6.6203,-6.6322,-6.6519,-6.6701,-6.6795,-6.6795,-6.6795,-6.6795,-6.6795,-6.6795,-6.6795,0.0,0.0,0.0,0.0,0.0,0.0,0.0,-7.2858,-7.2508,-7.1819,-7.1668,-7.1628,-7.1628,-7.1628,-7.1628,-7.1628,-7.1628,-7.1628,-7.1628,-7.1628,-7.1573,-7.1478,-7.1469,-7.1397,-7.1302,-7.1291,-7.1291,-7.1291,-7.1291,-7.1348,-7.143,-7.0602,-6.9935,-6.9447,-6.846,-6.7672,-6.7108,-6.6953,-6.6914,-6.6914,-6.6914,-6.6914,-6.6914,-6.6914,-6.6914,-6.6914,-6.6914,-6.6914,-6.6914,-6.6914,-6.6914,-6.6914,-6.6914,-6.6914,-6.6914,-6.6914,-6.7031,-6.7148,-6.7147,-6.7264,-6.7536,-6.8197,-6.8352,0.0,-6.9251,-6.9407,-6.9446,-6.9602,-6.9641,-6.9915,-7.0774,-7.0931,-7.1165,-7.1907,-7.1984,-7.1633,-7.0583,-7.0463,-7.0105,-6.9236,-6.9156,-6.88,-6.7927,-6.7849,-6.7576,-6.6834,-6.6795,-6.6795,-6.6795,-6.6795,-6.672,-6.6563,-6.6379,-6.6209,-6.6046,-6.597,-6.5897,-6.5897,-6.5897,-6.5897,-6.5897,-6.5897,-6.5897,-6.5923,-6.6157,-6.6283,-6.6337,-6.6642,-6.6787,-6.6795,-6.6795,-6.6795,-6.6795,-6.6795,-6.6795,-6.6912,0.0,0.0,0.0,0.0,0.0,0.0,0.0,0.0,-7.2107,-7.164,-7.1659,-7.17,-7.17,-7.17,-7.17,-7.17,-7.17,-7.17,-7.17,-7.17,-7.1671,-7.1608,-7.1601,-7.1566,-7.1481,-7.1481,-7.1481,-7.1481,-7.1481,-7.1327,-7.094,-7.0146,-6.9372,-6.8627,-6.7793,-6.7261,-6.6914,-6.6914,-6.6914,-6.6914,-6.6914,-6.6914,-6.6914,-6.6914,-6.6914,-6.6914,-6.6914,-6.6914,-6.6914,-6.6914,-6.6914,-6.6914,-6.6914,-6.6914,-6.6914,-6.6914,-6.6913,-6.6913,-6.6909,-6.6908,-6.6985,-6.7411,-6.749,0.0,0.0,-6.8154,-6.8271,-6.8661,-6.8739,-6.9013,-6.9872,-7.0419,-7.0848,-7.1278,-7.1705,-7.1859,-7.1395,-7.1352,-7.1034,-7.0162,-7.0045,-6.9692,-6.8825,-6.8357,-6.7732,-6.6873,-6.6795,-6.6795,-6.6795,-6.6795,-6.6727,-6.6595,-6.6393,-6.6226,-6.6108,-6.5955,-6.5897,-6.5897,-6.5897,-6.5897,-6.5897,-6.5897,-6.5897,-6.5897,-6.6194,-6.6314,-6.6337,-6.6662,-6.6795,-6.6795,-6.6795,-6.6795,-6.6795,-6.6795,-6.7068,-6.7498,-7.355,-7.3062,0.0,0.0,0.0,0.0,0.0,0.0,-7.1741,-7.1759,-7.1759,-7.1759,-7.1759,-7.1759,-7.1759,-7.1759,-7.1759,-7.1759,-7.1759,-7.1759,-7.1755,-7.1736,-7.1731,-7.1721,-7.17,-7.17,-7.1622,-7.1466,-7.1466,-7.1009,-7.0167,-6.9423,-6.8671,-6.8019,-6.7224,-6.6914,-6.6914,-6.6914,-6.6914,-6.6875,-6.6719,-6.6758,-6.6914,-6.6914,-6.6914,-6.6914,-6.6914,-6.6914,-6.6914,-6.6914,-6.6914,-6.6914,-6.6914,-6.6914,-6.6913,-6.6911,-6.691,-6.6909,-6.6863,-6.6862,-6.6862,-6.69,-6.69,-6.69,0.0,0.0,0.0,-6.772,-6.7837,-6.811,-6.9008,-6.9711,-7.0297,-7.0649,-7.1306,-7.1807,-7.1963,-7.2002,-7.1727,-7.1011,-7.0933,-7.0621,-6.9723,-6.8864,-6.8005,-6.7107,-6.7068,-6.699,-6.6795,-6.6795,-6.6733,-6.6624,-6.6406,-6.6243,-6.6129,-6.5978,-6.5897,-6.5897,-6.5897,-6.5897,-6.5897,-6.5897,-6.5923,-6.5958,-6.6174,-6.6329,-6.6379,-6.6666,-6.6795,-6.6795,-6.6795,-6.6795,-6.6834,-6.699,-6.7498,-6.8161,-7.1973,-7.1883,-7.1843,0.0,0.0,0.0,0.0,0.0,-7.1839,-7.1949,-7.1951,-7.1951,-7.1951,-7.1951,-7.1951,-7.1951,-7.1951,-7.1951,-7.1951,-7.1951,-7.1903,-7.1783,-7.178,-7.1753,-7.1705,-7.17,-7.131,-7.0564,-7.0564,-7.0147,-6.9396,-6.8544,-6.8142,-6.8124,-6.7265,-6.6914,-6.6914,-6.6914,-6.6914,-6.6836,-6.6055,-6.6211,-6.6914,-6.6913,-6.6912,-6.6911,-6.6907,-6.6905,-6.6906,-6.6911,-6.6909,-6.6906,-6.6911,-6.6909,-6.6905,-6.6905,-6.6904,-6.6902,-6.6817,-6.6813,-6.6811,-6.6802,-6.68,-6.68,-6.68,0.0,-6.6839,-6.6917,0.0,-6.719,-6.8088,0.0,0.0,-7.047,-7.078,-7.1131,-7.1873,-7.199,-7.1951,-7.187,-7.1831,-7.1519,-7.066,-6.9762,-6.8903,-6.8005,-6.7966,-6.7615,-6.6834,-6.6795,-6.6792,-6.6787,-6.6457,-6.6299,-6.6283,-6.6019,-6.5897,-6.5897,-6.5897,-6.5897,-6.5897,-6.5897,-6.5955,-6.6088,-6.6226,-6.6386,-6.6585,-6.6727,-6.6795,-6.6795,-6.6795,-6.6795,-6.6873,-6.7654,-6.8005,-6.8318,-7.1764,-7.1822,-7.1841,0.0,0.0,0.0,0.0,0.0,-7.1949,-7.1992,-7.1992,-7.1992,-7.1992,-7.1562,-7.1445,-7.1953,-7.1523,-7.125,-7.125,-7.125,-7.0976,-7.0422,-7.0421,-7.0455,-7.0438,-7.0438,-7.0243,-6.9889,-6.9889,-6.947,0.0,0.0,-6.7887,-6.7422,-6.707,-6.6914,-6.6914,-6.6914,-6.6914,-6.6836,-6.5937,-6.582,-6.6093,-6.5584,-6.5387,-6.5384,-6.5382,-6.5732,-6.6163,-6.6165,-6.6476,-6.6904,-6.6906,-6.6905,-6.6902,-6.6859,-6.6857,-6.6856,-6.6807,-6.6802,-6.6802,-6.6798,-6.6795,-6.6795,-6.6795,-6.6795,-6.6795,-6.6795,0.0,0.0,0.0,0.0,0.0,0.0,-7.0387,-7.1011,-7.187,-7.1987,-7.1987,-7.1987,-7.1987,-7.1675,-7.0777,-7.0387,-6.9801,-6.8903,-6.8396,-6.7927,-6.7576,-6.7068,-6.6795,-6.6795,-6.6605,-6.6477,-6.6477,-6.6187,-6.6008,-6.5997,-6.5933,-6.5897,-6.5897,-6.5897,-6.5967,-6.6118,-6.6234,-6.64,-6.66,-6.673,-6.6795,-6.6834,-6.7342,-6.7537,-6.7615,-6.7966,-6.8747,-6.9723,-7.1858,-7.1948,-7.1952,-7.1858,0.0,0.0,0.0,0.0,-7.1992,-7.1992,-7.1797,-7.164,-7.164,-7.0859,-7.0586,-7.1211,-7.0703,-7.0351,-7.0351,-7.0351,-7.0078,-6.9453,-6.9453,-6.9453,-6.9453,-6.9453,-6.9375,-6.914,-6.914,0.0,0.0,0.0,-6.75,-6.6914,-6.6914,-6.6914,-6.6914,-6.6914,-6.6757,-6.6484,-6.5583,-6.4957,-6.4526,-6.4369,-6.4288,-6.4281,-6.4281,-6.4711,-6.5259,-6.5222,-6.565,-6.6234,-6.647,-6.6548,-6.6584,-6.6733,-6.6807,-6.6807,-6.6798,-6.6795,-6.6795,-6.6795,-6.6795,-6.6795,-6.6795,-6.6795,-6.6795,-6.6795,-6.6795,0.0,0.0,0.0,-6.8044,-6.8903,0.0,-7.066,-7.1519,-7.1831,-7.1987,-7.1987,-7.1987,-7.1753,-7.1128,-7.105,-7.0699,-6.9801,-6.9176,-6.8591,-6.8122,-6.7498,-6.7068,-6.6795,-6.6685,-6.659,-6.659,-6.6314,-6.6129,-6.6108,-6.6013,-6.5933,-6.5897,-6.5897,-6.6001,-6.6157,-6.6259,-6.6419,-6.6642,-6.6778,-6.6795,-6.6873,-6.7771,-6.8239,-6.8474,-6.8708,-6.9606,-7.0738,-7.1992,-7.1992,-7.1992,-7.1992,-7.1992,0.0,0.0,-7.1992,-7.1992,-7.1992,-7.1289,-7.0742,-7.0742,-6.9961,-6.9453,-6.9492,-6.9453,-6.9453,-6.9453,-6.9453,-6.9453,-6.9492,-6.9453,-6.9414,-6.9414,-6.9414,-6.9023,-6.8242,-6.8242,0.0,0.0,0.0,0.0,-6.6914,-6.6914,-6.6914,-6.6911,-6.6911,-6.6401,-6.5577,-6.4679,-6.3347,-6.2012,-6.365,-6.4308,-6.4299,-6.4299,-6.4338,-6.434,-6.4351,-6.4347,-6.4536,-6.5366,-6.5635,-6.578,-6.6563,-6.6798,-6.6798,-6.6795,-6.6795,-6.6795,-6.6795,-6.6795,-6.6795,-6.6795,-6.6795,-6.6795,-6.6795,-6.6795,-6.6795,-6.6795,-6.6834,0.0,0.0,0.0,0.0,0.0,-7.148,-7.1987,-7.1987,-7.1987,-7.1987,-7.1948,-7.1948,-7.1597,-7.0738,-7.0621,-6.9879,-6.82,-6.8083,-6.7654,-6.6834,-6.6685,-6.659,-6.659,-6.6386,-6.6217,-6.6108,-6.6098,-6.6019,-6.5897,-6.5897,-6.6052,-6.6307,-6.6307,-6.6474,-6.6792,-6.6795,-6.6795,-6.6873,-6.7771,-6.863,-6.945,-7.0309,-7.066,-7.0816,-7.1992,-7.1992,-7.1992,-7.1992,-7.1992,-7.1992,-7.1992,-7.1523,-7.1133,-7.1133,-7.039,-6.9844,-6.9844,-6.9101,-6.8828,-6.9336,-6.8906,-6.8594,-6.8594,-6.8594,-6.8359,-6.7812,-6.7773,-6.7734,-6.7734,-6.7734,-6.7617,-6.7344,-6.7344,-6.7187,0.0,0.0,0.0,0.0,-6.6913,-6.6911,-6.6906,-6.6906,-6.6398,-6.5459,-6.401,-6.2752,-6.1764,-6.2349,-6.2581,-6.2579,-6.2579,-6.2969,-6.3438,-6.3442,-6.3833,-6.4338,-6.4655,-6.4731,-6.4921,-6.5741,-6.6014,-6.6131,-6.6678,-6.6795,-6.6795,-6.6795,-6.6795,-6.6795,-6.6795,-6.6795,-6.6795,-6.6795,-6.6795,-6.6795,-6.6795,-6.6795,0.0,0.0,0.0,0.0,0.0,-7.1441,-7.1987,-7.1987,-7.1987,-7.1987,-7.1987,-7.1987,-7.187,-7.1597,-7.1011,-7.0191,-6.902,-6.8396,-6.7693,-6.6834,-6.6775,-6.6723,-6.6723,-6.6595,-6.6471,-6.6425,-6.6322,-6.6191,-6.6167,-6.6167,-6.6306,-6.6495,-6.6495,-6.6619,-6.6795,-6.6795,-6.7146,-6.7732,-6.863,-6.9489,-7.0309,-7.0582,-7.1089,-7.1597,-7.1093,-7.1092,-7.1288,-7.1875,-7.1757,-7.1445,-7.1133,-7.0625,-7.0234,-7.0234,-6.9492,-6.8984,-6.8984,-6.8242,-6.7969,-6.8476,-6.8047,-6.7734,-6.7734,-6.7734,-6.75,-6.6914,-6.6914,-6.6914,-6.6914,-6.6914,-6.6914,-6.6914,-6.6914,-6.6914,0.0,0.0,0.0,0.0,-6.691,-6.6906,-6.686,-6.686,-6.6195,-6.4983,-6.3258,-6.2195,-6.1718,-6.1718,-6.1718,-6.1718,-6.1718,-6.2071,-6.254,-6.254,-6.2891,-6.3438,-6.375,-6.3828,-6.4023,-6.4882,-6.5351,-6.5702,-6.6249,-6.6561,-6.6795,-6.6795,-6.6795,-6.6795,-6.6795,-6.6795,-6.6795,-6.6795,-6.6795,-6.6795,-6.6795,-6.6795,0.0,0.0,0.0,0.0,0.0,-7.1441,-7.1987,-7.1987,-7.1987,-7.1987,-7.1987,-7.1987,-7.1987,-7.1987,-7.148,-7.066,-6.945,-6.8864,-6.8005,-6.6834,-6.6795,-6.6795,-6.6795,-6.6713,-6.6668,-6.659,-6.6471,-6.6366,-6.6314,-6.6314,-6.6393,-6.659,-6.659,-6.6689,-6.6795,-6.6795,-6.7303,-6.82,-6.9059,-6.9918,-7.0738,-7.105,-7.1519,-7.1987,-6.9405,-6.9403,-6.9915,-7.1523,-7.1171,-7.0388,-6.9609,-6.9413,-6.9334,-6.9336,-6.8633,-6.8125,-6.8125,-6.7383,-6.6914,-6.6914,-6.6914,-6.6914,-6.6914,-6.6914,-6.6914,-6.6914,-6.6914,-6.6914,-6.6914,-6.6914,-6.6914,-6.6914,-6.6914,-6.6914,0.0,0.0,0.0,0.0,-6.6905,-6.6859,-6.6811,-6.6811,-6.5831,-6.4143,-6.2384,-6.1718,-6.1718,-6.1718,-6.1718,-6.1718,-6.1718,-6.1718,-6.1718,-6.1718,-6.1718,-6.1835,-6.2657,-6.293,-6.3125,-6.3984,-6.4804,-6.5507,-6.5585,-6.617,-6.6756,-6.6795,-6.6795,-6.6795,-6.6795,-6.6795,-6.6795,-6.6795,-6.6795,-6.6795,-6.6795,-6.6795,-6.6795,0.0,0.0,0.0,0.0,-7.1402,-7.1948,-7.1948,-7.1987,-7.1987,-7.1987,-7.1987,-7.1987,-7.1987,-7.1987,-7.1245,-6.9489,-6.9411,-6.8591,-6.6873,-6.6795,-6.6795,-6.6795,-6.6795,-6.6727,-6.66,-6.66,-6.6501,-6.6337,-6.6337,-6.6413,-6.66,-6.66,-6.6693,-6.6795,-6.6834,-6.7381,-6.8239,-6.9137,-6.9996,-7.0855,-7.1675,-7.1987,-7.1987,-6.9403,-6.9403,-6.9326,-6.9135,-6.9446,-6.9641,-6.9447,-6.886,-6.8429,-6.8431,-6.7728,-6.7221,-6.7221,-6.7028,-6.6912,-6.6912,-6.6912,-6.6912,-6.6912,-6.6912,-6.6912,-6.6912,-6.6914,-6.6914,-6.6914,-6.6914,-6.6914,-6.6912,-6.6914,-6.6913,-6.6908,0.0,0.0,0.0,-6.6817,-6.6811,-6.68,-6.68,-6.5824,-6.4143,-6.2384,-6.1718,-6.1718,-6.1718,-6.1718,-6.1718,-6.1718,-6.1718,-6.1718,-6.1718,-6.1718,-6.1757,-6.1952,-6.2032,-6.2189,-6.3086,-6.3477,-6.3945,-6.5234,-6.5741,-6.6053,-6.6639,-6.6795,-6.6795,-6.6795,-6.6795,-6.6795,-6.6795,-6.6795,-6.6795,-6.6795,-6.6795,-6.6795,-6.6795,0.0,0.0,-6.9567,-7.0465,-7.1011,-7.1011,-7.1597,-7.1987,-7.1987,-7.1987,-7.1987,-7.1987,-7.1987,-7.1245,-6.9489,-6.9411,-6.8591,-6.6873,-6.6795,-6.6795,-6.6795,-6.6795,-6.679,-6.6733,-6.6733,-6.6723,-6.6666,-6.6666,-6.6716,-6.6733,-6.6733,-6.6781,-6.6834,-6.7498,-6.8279,-6.9137,-7.0035,-7.0894,-7.1675,-7.1909,-7.1987,-7.1987,-6.8261,-6.826,-6.8103,-6.7635,-6.7947,-6.8263,-6.8308,-6.7877,-6.7524,-6.7566,-6.7177,-6.6904,-6.6904,-6.6906,-6.6908,-6.6908,-6.6908,-6.6908,-6.6908,-6.691,-6.6911,-6.6908,-6.6913,-6.6914,-6.6913,-6.6914,-6.6914,-6.6913,-6.6913,-6.6912,-6.6907,0.0,0.0,0.0,0.0,-6.6802,-6.6756,-6.6017,-6.5158,-6.4143,-6.2384,-6.1718,0.0,-6.1718,-6.1718,-6.1718,-6.1718,-6.1718,-6.1718,-6.1718,-6.1718,-6.1718,-6.1718,-6.1718,-6.1796,-6.2306,-6.2696,-6.3204,-6.4219,-6.5038,-6.5702,-6.617,-6.6522,-6.6795,-6.6795,-6.6795,-6.6795,-6.6795,-6.6795,-6.6795,-6.6795,-6.6795,-6.6795,-6.6795,-6.7537,-6.8279,-6.8747,-6.9567,-7.027,-7.066,-7.1128,-7.1597,-7.1948,-7.1987,-7.1987,-7.1987,-7.1987,-7.1245,-6.9489,-6.9411,-6.8591,-6.6873,-6.6795,-6.6795,-6.6795,-6.6795,-6.6795,-6.6795,-6.6795,-6.6795,-6.6795,-6.6795,-6.6795,-6.6795,-6.6795,-6.6795,-6.6873,-6.7732,-6.8591,-6.9528,-7.0777,-7.1558,-7.1987,-7.1987,-7.1987,-7.1987,-6.6798,-6.6795,-6.6795,-6.6795,-6.6795,-6.6802,-6.6898,-6.6854,-6.6813,-6.686,-6.6901,-6.6901,-6.6901,-6.6901,-6.6901,-6.6901,-6.6901,-6.6901,-6.6901,-6.6907,-6.6907,-6.6902,-6.6911,-6.6913,-6.6911,-6.6913,-6.6914,-6.6874,-6.6912,-6.691,0.0,0.0,0.0,0.0,0.0,-6.6795,-6.6678,-6.5002,-6.4299,-6.4143,-6.2384,-6.1718,-6.1718,-6.1718,-6.1718,-6.1718,-6.1718,-6.1718,-6.1718,-6.1718,-6.1718,-6.1718,-6.1718,-6.1718,-6.1718,-6.1718,-6.2228,-6.2852,-6.2969,-6.4101,-6.5312,-6.5546,-6.6131,-6.6678,-6.6795,-6.6795,-6.6795,-6.6795,-6.6795,-6.6795,-6.6795,-6.6795,-6.6795,-6.6795,-6.7459,-6.7927,-6.7927,-6.8669,-6.9528,-7.027,-7.0465,0.0,-7.1753,-7.1948,-7.1987,-7.1987,-7.1987,-7.1245,-6.9489,-6.9411,-6.8591,-6.6873,-6.6795,-6.6795,-6.6795,-6.6795,-6.6795,-6.6795,-6.6795,-6.6795,-6.6795,-6.6795,-6.6795,-6.6795,-6.6795,-6.6873,-6.7029,-6.7927,-6.8864,-6.9879,-7.1402,-7.1987,-7.1987,-7.1987,-7.1987,-7.1987,-6.6798,-6.6795,-6.6795,-6.6795,-6.6795,-6.6798,-6.6802,-6.68,-6.68,-6.6802,-6.6802,-6.6802,-6.6802,-6.6809,-6.6815,-6.6815,-6.6815,-6.6815,-6.6815,-6.6817,-6.6817,-6.6815,-6.6863,-6.6906,-6.6905,-6.6906,-6.6865,-6.682,-6.6863,-6.686,0.0,0.0,0.0,0.0,0.0,-6.6795,-6.6678,-6.5002,-6.4299,-6.4143,-6.2384,-6.1718,-6.1718,-6.1718,-6.1718,-6.1718,-6.1718,-6.1718,-6.1718,-6.1718,-6.1718,-6.1718,-6.1718,-6.1718,-6.1718,-6.1718,-6.1796,-6.2071,-6.2813,-6.3204,-6.3789,-6.5234,-6.5702,-6.5975,-6.6639,-6.6795,-6.6795,-6.6795,-6.6795,-6.6795,-6.6795,-6.6795,-6.6795,-6.6795,-6.6912,-6.7029,-6.7029,-6.7771,-6.8396,-6.8552,-6.9176,-6.9957,-7.0855,-7.1597,-7.1987,-7.1987,-7.1987,-7.1245,-6.9489,-6.9411,-6.8591,-6.6873,-6.6795,-6.6795,-6.6795,-6.6795,-6.6795,-6.6795,-6.6795,-6.6795,-6.6795,-6.6795,-6.6795,-6.6795,-6.6795,-6.7224,-6.7927,-6.8825,-7.0113,-7.1558,-7.187,-7.1987,-7.1987,-7.1987,-7.1987,-7.1987,-6.6795,-6.6795,-6.6795,-6.6795,-6.6795,-6.6795,-6.6795,-6.6795,-6.6795,-6.6795,-6.6795,-6.6795,-6.6795,-6.68,-6.6805,-6.6805,-6.6805,-6.6805,-6.6805,-6.6809,-6.6809,-6.6805,-6.6857,-6.6862,-6.6857,-6.6862,-6.6862,-6.6859,-6.6857,-6.6815,0.0,0.0,0.0,0.0,0.0,-6.6795,-6.6678,-6.5002,-6.4299,-6.4143,-6.2384,-6.1718,-6.1718,-6.1718,-6.1718,-6.1718,-6.1718,-6.1718,-6.1718,-6.1718,-6.1718,-6.1718,-6.1718,-6.1718,-6.1718,-6.1718,-6.1718,-6.1796,-6.2228,-6.2657,-6.3321,-6.4609,-6.5273,-6.5819,-6.66,-6.6795,-6.6795,-6.6795,-6.6795,-6.6795,-6.6795,-6.6795,-6.6795,-6.6795,-6.6795,-6.6795,-6.6795,-6.7146,-6.7576,-6.8044,-6.8474,-6.9059,-6.9957,-7.0426,-7.0855,-7.1285,-7.1324,-7.0543,-6.8825,-6.8747,-6.8122,-6.6834,-6.6795,-6.6795,-6.6795,-6.6795,-6.6795,-6.6795,-6.6795,-6.6795,-6.6795,-6.6795,-6.6795,-6.6834,-6.7264,-6.7693,-6.82,-6.9528,-7.0855,-7.1987,-7.1987,-7.1987,-7.1987,-7.1987,-7.1987,-7.1987,-6.6795,-6.6795,-6.6795,-6.6795,-6.6795,-6.6795,-6.6795,-6.6795,-6.6795,-6.6795,-6.6795,-6.6795,-6.6795,-6.6795,-6.6795,-6.6795,-6.6795,-6.6795,-6.6795,-6.6805,-6.6805,-6.6798,-6.6852,-6.6856,-6.6809,-6.6856,-6.6898,-6.6898,-6.6813,-6.6692,-6.6536,0.0,0.0,-6.6795,-6.6795,-6.6795,-6.6678,-6.5002,-6.4299,-6.4143,-6.2384,-6.1718,-6.1718,-6.1718,-6.1718,-6.1718,-6.1718,-6.1718,-6.1718,-6.1718,-6.1718,-6.1718,-6.1718,-6.1718,-6.1718,-6.1718,-6.1718,-6.1718,-6.1718,-6.2189,-6.2969,-6.4026,-6.4804,-6.5585,-6.6561,-6.6795,-6.6795,-6.6795,-6.6795,-6.6795,-6.6795,-6.6795,-6.6795,-6.6795,-6.6795,-6.6795,-6.6795,-6.6795,-6.7068,-6.7732,-6.781,-6.8161,-6.902,-6.9137,-6.9411,-7.0113,-7.0309,-6.9723,-6.8161,-6.8083,-6.7693,-6.6834,-6.6795,-6.6795,-6.6795,-6.6795,-6.6795,-6.6795,-6.6795,-6.6795,-6.6795,-6.6795,-6.6912,-6.7107,-6.781,-6.8318,-6.8786,-7.0348,-7.1363,-7.1987,-7.1987,-7.1987,-7.1987,-7.1987,-7.1987,-7.1987,-6.6795,-6.6795,-6.6795,-6.6795,-6.6795,-6.6795,-6.6795,-6.6795,-6.6795,-6.6795,-6.6795,-6.6795,-6.6795,-6.6795,-6.6795,-6.6795,-6.6795,-6.6795,-6.6795,-6.6798,-6.6798,-6.6795,-6.6798,-6.68,-6.6798,-6.68,-6.68,-6.68,-6.6798,-6.6446,-6.5743,0.0,-6.6795,-6.6795,-6.6795,-6.6795,-6.6678,-6.5002,-6.4299,-6.4143,-6.2384,-6.1718,-6.1718,-6.1718,-6.1718,-6.1718,-6.1718,-6.1718,-6.1718,-6.1718,-6.1718,-6.1718,-6.1718,-6.1718,-6.1718,-6.1718,-6.1718,-6.1718,-6.1718,-6.1757,-6.2228,-6.3867,-6.4377,-6.4846,-6.6444,-6.6795,-6.6795,-6.6795,-6.6795,-6.6795,-6.6795,-6.6795,-6.6795,-6.6795,-6.6795,-6.6795,-6.6795,-6.6795,-6.6834,-6.6912,-6.6912,-6.7264,-6.8122,-6.8239,-6.8279,-6.8357,-6.9098,-6.9098,-6.8161,-6.8083,-6.7693,-6.6834,-6.6795,-6.6795,-6.6795,-6.6795,-6.6795,-6.6795,-6.6795,-6.6795,-6.6795,-6.6795,-6.7224,-6.7966,-6.8044,-6.8981,-7.0543,-7.148,-7.1948,-7.1987,-7.1987,-7.1987,-7.1987,-7.1987,-7.1987,-7.1979,-6.6795,-6.6795,-6.6795,-6.6795,-6.6795,-6.6795,-6.6795,-6.6795,-6.6795,-6.6795,-6.6795,-6.6795,-6.6795,-6.6795,-6.6795,-6.6795,-6.6795,-6.6795,-6.6795,-6.6795,-6.6795,-6.6795,-6.6795,-6.6795,-6.6795,-6.6795,-6.6795,-6.6795,-6.6795,-6.6639,-6.6327,-6.6639,-6.6795,-6.6795,-6.6795,-6.6795,-6.6717,-6.5585,-6.4765,-6.4182,-6.2969,-6.2189,-6.1718,-6.1718,-6.1718,-6.1718,-6.1718,-6.1718,-6.1718,-6.1718,-6.1718,-6.1718,-6.1718,-6.1718,-6.1718,-6.1718,-6.1718,-6.1718,-6.1718,-6.1718,-6.211,-6.3867,-6.4299,-6.4728,-6.6405,-6.6795,-6.6795,-6.6795,-6.6795,-6.6795,-6.6795,-6.6795,-6.6795,-6.6795,-6.6795,-6.6795,-6.6795,-6.6795,-6.6795,-6.6795,-6.6795,-6.6951,-6.7303,-6.7303,-6.7303,-6.7303,-6.8122,-6.8239,-6.7381,-6.7303,-6.7146,-6.6795,-6.6795,-6.6795,-6.6795,-6.6795,-6.6795,-6.6795,-6.6795,-6.7068,-6.7576,-6.7576,-6.8357,-6.9645,-6.9645,-7.0348,-7.1519,-7.187,-7.1987,-7.1987,-7.1987,-7.1987,-7.1987,-7.1987,-7.1987,-7.1979,-6.6795,-6.6795,-6.6795,-6.6795,-6.6795,-6.6795,-6.6795,-6.6795,-6.6795,-6.6795,-6.6795,-6.6795,-6.6795,-6.6795,-6.6795,-6.6795,-6.6795,-6.6795,-6.6795,-6.6795,-6.6795,-6.6795,-6.6795,-6.6795,-6.6795,-6.6795,-6.6795,-6.6795,-6.6795,-6.6678,-6.6444,-6.6444,-6.6561,-6.6795,-6.6795,-6.6795,-6.6756,-6.5936,-6.5116,-6.4221,-6.336,-6.2462,-6.1718,-6.1718,-6.1718,-6.1718,-6.1718,-6.1718,-6.1718,-6.1718,-6.1718,-6.1718,-6.1718,-6.1718,-6.1718,-6.1718,-6.1718,-6.1718,-6.1718,-6.1718,-6.211,-6.3867,-6.4299,-6.4728,-6.6405,-6.6795,-6.6795,-6.6795,-6.6795,-6.6795,-6.6795,-6.6795,-6.6795,-6.6795,-6.6795,-6.6795,-6.6795,-6.6795,-6.6795,-6.6795,-6.6795,-6.6795,-6.6795,-6.6795,-6.6795,-6.6795,-6.7381,-6.7459,-6.6834,-6.6795,-6.6795,-6.6795,-6.6795,-6.6795,-6.6795,-6.6795,-6.6912,-6.7185,-6.7185,-6.7654,-6.8474,-6.8747,-6.9528,-7.0699,-7.0972,-7.1441,-7.1987,-7.1987,-7.1987,-7.1987,-7.1987,-7.1987,-7.1987,-7.1987,-7.1976,-7.1909,-6.6795,-6.6795,-6.6795,-6.6795,-6.6795,-6.6795,-6.6795,-6.6795,-6.6795,-6.6795,-6.6795,-6.6795,-6.6795,-6.6795,-6.6795,-6.6795,-6.6795,-6.6795,-6.6795,-6.6795,-6.6795,-6.6795,-6.6795,-6.6795,-6.6795,-6.6795,-6.6795,-6.6795,-6.6795,-6.6405,-6.5624,-6.5624,-6.6053,-6.6795,-6.6795,-6.6795,-6.6756,-6.5936,-6.5116,-6.4221,-6.336,-6.2462,-6.1718,-6.1718,-6.1718,-6.1718,-6.1718,-6.1718,-6.1718,-6.1718,-6.1718,-6.1718,-6.1718,-6.1718,-6.1718,-6.1718,-6.1718,-6.1718,-6.1718,-6.1718,-6.211,-6.3867,-6.4299,-6.4728,-6.6405,-6.6795,-6.6795,-6.6795,-6.6795,-6.6795,-6.6795,-6.6795,-6.6795,-6.6795,-6.6795,-6.6795,-6.6795,-6.6795,-6.6795,-6.6795,-6.6795,-6.6795,-6.6795,-6.6795,-6.6795,-6.6795,-6.6795,-6.6795,-6.6795,-6.6795,-6.6795,-6.6795,-6.6795,-6.6795,-6.6795,-6.6795,-6.7224,-6.8083,-6.8083,-6.8552,-6.9411,-7.027,-7.0699,-7.0738,-7.1597,-7.1987,-7.1987,-7.1987,-7.1987,-7.1987,-7.1987,-7.1987,-7.1987,-7.1987,-7.1866,-7.1683,-6.6795,-6.6795,-6.6795,-6.6795,-6.6795,-6.6795,-6.6795,-6.6795,-6.6795,-6.6795,-6.6795,-6.6795,-6.6795,-6.6795,-6.6795,-6.6795,-6.6795,-6.6795,-6.6795,-6.6795,-6.6795,-6.6795,-6.6795,-6.6795,-6.6795,-6.6795,-6.6795,-6.6795,-6.6795,-6.6678,-6.6405,-6.6405,-6.6561,-6.6795,-6.6795,-6.6795,-6.6795,-6.6522,-6.5936,-6.5116,-6.4258,-6.336,-6.254,-6.1913,-6.1718,-6.1718,-6.1718,-6.1718,-6.1718,-6.1718,-6.1718,-6.1718,-6.1718,-6.1718,-6.1718,-6.1718,-6.1718,-6.1718,-6.1718,-6.2149,-6.2852,-6.4026,-6.4765,-6.5468,-6.6561,-6.6795,-6.6795,-6.6795,-6.6795,-6.6795,-6.6795,-6.6795,-6.6795,-6.6795,-6.6795,-6.6795,-6.6795,-6.6795,-6.6795,-6.6795,-6.6795,-6.6795,-6.6795,-6.6795,-6.6795,-6.6795,-6.6795,-6.6795,-6.6795,-6.6795,-6.6795,-6.6795,-6.6795,-6.7107,-6.7693,-6.7693,-6.8122,-6.8981,-6.8981,-6.945,-7.0309,-7.1206,-7.1597,-7.1597,-7.187,-7.1987,-7.1987,-7.1987,-7.1987,-7.1987,-7.1987,-7.1987,-7.1987,-7.1987,-7.1866,-7.1683,-6.6795,-6.6795,-6.6795,-6.6795,-6.6795,-6.6795,-6.6795,-6.6795,-6.6795,-6.6795,-6.6795,-6.6795,-6.6795,-6.6795,-6.6795,-6.6795,-6.6795,-6.6795,-6.6795,-6.6795,-6.6795,-6.6795,-6.6795,-6.6795,-6.6795,-6.6795,-6.6795,-6.6795,-6.6795,-6.6795,-6.6795,-6.6795,-6.6795,-6.6795,-6.6795,-6.6795,-6.6795,-6.6795,-6.6327,-6.5546,-6.4999,-6.4062,-6.293,-6.2384,-6.1991,-6.1718,-6.1718,-6.1718,-6.1718,-6.1718,-6.1718,-6.1718,-6.1718,-6.1718,-6.1718,-6.1718,-6.1718,-6.1757,-6.211,-6.2579,-6.3282,-6.4492,-6.5194,-6.5819,-6.66,-6.6795,-6.6795,-6.6795,-6.6795,-6.6795,-6.6795,-6.6795,-6.6795,-6.6795,-6.6795,-6.6795,-6.6795,-6.6795,-6.6795,-6.6795,-6.6795,-6.6795,-6.6795,-6.6795,-6.6795,-6.6795,-6.6795,-6.6795,-6.6795,-6.6795,-6.6795,-6.6795,-6.7107,-6.7537,-6.8083,-6.8435,-6.902,-6.9879,-7.023,-7.066,-7.1206,-7.1753,-7.1987,-7.1987,-7.1987,-7.1987,-7.1987,-7.1987,-7.1987,-7.1987,-7.1987,-7.1987,-7.1984,-7.192,-7.1775,-7.1608,-6.6795,-6.6795,-6.6795,-6.6795,-6.6795,-6.6795,-6.6795,-6.6795,-6.6795,-6.6795,-6.6795,-6.6795,-6.6795,-6.6795,-6.6795,-6.6795,-6.6795,-6.6795,-6.6795,-6.6795,-6.6795,-6.6795,-6.6795,-6.6795,-6.6795,-6.6795,-6.6795,-6.6795,-6.6795,-6.6795,-6.6795,-6.6795,-6.6795,-6.6795,-6.6795,-6.6795,-6.6795,-6.6795,-6.6366,-6.5663,-6.5624,-6.4648,-6.3164,-6.3047,-6.2501,-6.1796,-6.1718,-6.1718,-6.1718,-6.1718,-6.1718,-6.1718,-6.1718,-6.1757,-6.1796,-6.1718,-6.1757,-6.1952,-6.2774,-6.3086,-6.3555,-6.5194,-6.5624,-6.5897,-6.6639,-6.6795,-6.6795,-6.6795,-6.6795,-6.6795,-6.6795,-6.6795,-6.6795,-6.6795,-6.6795,-6.6795,-6.6795,-6.6795,-6.6795,-6.6795,-6.6795,-6.6795,-6.6795,-6.6795,-6.6795,-6.6795,-6.6795,-6.6834,-6.6873,-6.6873,-6.6873,-6.6873,-6.7732,-6.8239,-6.8279,-6.9098,-6.9918,-7.0816,-7.1597,-7.1987,-7.1987,-7.1987,-7.1987,-7.1987,-7.1987,-7.1987,-7.1987,-7.1987,-7.1987,-7.1987,-7.1987,-7.1987,-7.1982,-7.178,-7.1621,-7.1456,-6.6795,-6.6795,-6.6795,-6.6795,-6.6795,-6.6795,-6.6795,-6.6795,-6.6795,-6.6795,-6.6795,-6.6795,-6.6795,-6.6795,-6.6795,-6.6795,-6.6795,-6.6795,-6.6795,-6.6795,-6.6795,-6.6795,-6.6795,-6.6795,-6.6795,-6.6795,-6.6795,-6.6795,-6.6795,-6.6795,-6.6795,-6.6795,-6.6795,-6.6795,-6.6795,-6.6795,-6.6795,-6.6795,-6.6678,-6.6444,-6.5858,-6.5351,-6.4843,-6.3516,-6.2852,-6.2618,-6.1952,-6.1718,-6.1718,-6.1718,-6.1718,-6.1718,-6.1718,-6.2149,-6.2579,-6.1913,-6.2189,-6.2735,-6.293,-6.3984,-6.5077,-6.5507,-6.6053,-6.6561,-6.6756,-6.6795,-6.6795,-6.6795,-6.6795,-6.6795,-6.6795,-6.6795,-6.6795,-6.6795,-6.6795,-6.6795,-6.6795,-6.6795,-6.6795,-6.6795,-6.6795,-6.6795,-6.6795,-6.6795,-6.6795,-6.6795,-6.6795,-6.7107,-6.7771,-6.7771,-6.7771,-6.7771,-6.863,-6.9411,-7.0074,-7.0309,-7.0816,-7.1675,-7.1909,-7.1987,-7.1987,-7.1987,-7.1987,-7.1987,-7.1987,-7.1987,-7.1987,-7.1987,-7.1987,-7.1987,-7.1987,-7.1987,-7.1982,-7.178,-7.1621,-7.1456,-6.6795,-6.6795,-6.6795,-6.6795,-6.6795,-6.6795,-6.6795,-6.6795,-6.6795,-6.6795,-6.6795,-6.6795,-6.6795,-6.6795,-6.6795,-6.6795,-6.6795,-6.6795,-6.6795,-6.6795,-6.6795,-6.6795,-6.6795,-6.6795,-6.6795,-6.6795,-6.6795,-6.6795,-6.6795,-6.6795,-6.6795,-6.6795,-6.6795,-6.6795,-6.6795,-6.6795,-6.6795,-6.6795,-6.6795,-6.6756,-6.6327,-6.5936,-6.5507,-6.4531,-6.3945,-6.3516,-6.3047,-6.2891,-6.2891,-6.2891,-6.2891,-6.2891,-6.2891,-6.3204,-6.3516,-6.3047,-6.3204,-6.3672,-6.4062,-6.4882,-6.5702,-6.6053,-6.6483,-6.6795,-6.6795,-6.6795,-6.6795,-6.6795,-6.6795,-6.6795,-6.6795,-6.6795,-6.6795,-6.6795,-6.6795,-6.6795,-6.6795,-6.6795,-6.6795,-6.6795,-6.6795,-6.6795,-6.6795,-6.6795,-6.6795,-6.6795,-6.7185,-6.7615,-6.8083,-6.8864,-6.9098,-6.8708,-6.9528,-7.023,-7.0699,-7.1089,-7.1519,-7.1987,-7.1987,-7.1987,-7.1987,-7.1987,-7.1987,-7.1987,-7.1987,-7.1987,-7.1987,-7.1987,-7.1987,-7.1987,-7.1987,-7.1987,-7.1976,-7.1722,-7.1559,-7.1448,-6.6795,-6.6795,-6.6795,-6.6795,-6.6795,-6.6795,-6.6795,-6.6795,-6.6795,-6.6795,-6.6795,-6.6795,-6.6795,-6.6795,-6.6795,-6.6795,-6.6795,-6.6795,-6.6795,-6.6795,-6.6795,-6.6795,-6.6795,-6.6795,-6.6795,-6.6795,-6.6795,-6.6795,-6.6795,-6.6795,-6.6795,-6.6795,-6.6795,-6.6795,-6.6795,-6.6795,-6.6795,-6.6795,-6.6795,-6.6795,-6.6795,-6.6405,-6.578,-6.5663,-6.5155,-6.4494,-6.4338,-6.4299,-6.4299,-6.4299,-6.4299,-6.4299,-6.4299,-6.4377,-6.4494,-6.4494,-6.4572,-6.4804,-6.5429,-6.5702,-6.5936,-6.6639,-6.6795,-6.6795,-6.6795,-6.6795,-6.6795,-6.6795,-6.6795,-6.6795,-6.6795,-6.6795,-6.6795,-6.6795,-6.6795,-6.6795,-6.6795,-6.6795,-6.6795,-6.6795,-6.6795,-6.6795,-6.6795,-6.6795,-6.6834,-6.699,-6.7693,-6.82,-6.8474,-6.9918,-7.0426,-6.9801,-7.0504,-7.0894,-7.0894,-7.1636,-7.1987,-7.1987,-7.1987,-7.1987,-7.1987,-7.1987,-7.1987,-7.1987,-7.1987,-7.1987,-7.1987,-7.1987,-7.1987,-7.1987,-7.1987,-7.1982,-7.192,-7.1594,-7.1465,-7.1395,-6.6795,-6.6795,-6.6795,-6.6795,-6.6795,-6.6795,-6.6795,-6.6795,-6.6795,-6.6795,-6.6795,-6.6795,-6.6795,-6.6795,-6.6795,-6.6795,-6.6795,-6.6795,-6.6795,-6.6795,-6.6795,-6.6795,-6.6795,-6.6795,-6.6795,-6.6795,-6.6795,-6.6795,-6.6795,-6.6795,-6.6795,-6.6795,-6.6795,-6.6795,-6.6795,-6.6795,-6.6795,-6.6795,-6.6795,-6.6795,-6.6795,-6.6717,-6.6522,-6.5858,-6.5507,-6.5312,-6.457,-6.4299,-6.4299,-6.4299,-6.4299,-6.4299,-6.4299,-6.4804,-6.539,-6.539,-6.5897,-6.6288,-6.5741,-6.6092,-6.6639,-6.6756,-6.6795,-6.6795,-6.6795,-6.6795,-6.6795,-6.6795,-6.6795,-6.6795,-6.6795,-6.6795,-6.6795,-6.6795,-6.6795,-6.6795,-6.6795,-6.6795,-6.6795,-6.6795,-6.6795,-6.6795,-6.6795,-6.6795,-6.7107,-6.7849,-6.8005,-6.8747,-7.023,-7.0543,-7.0972,-7.1597,-7.1714,-7.1792,-7.1792,-7.1948,-7.1987,-7.1987,-7.1987,-7.1987,-7.1987,-7.1987,-7.1987,-7.1987,-7.1987,-7.1987,-7.1987,-7.1987,-7.1987,-7.1987,-7.1987,-7.1913,-7.1711,-7.1551,-7.1386,-7.1197,-6.6795,-6.6795,-6.6795,-6.6795,-6.6795,-6.6795,-6.6795,-6.6795,-6.6795,-6.6795,-6.6795,-6.6795,-6.6795,-6.6795,-6.6795,-6.6795,-6.6795,-6.6795,-6.6795,-6.6795,-6.6795,-6.6795,-6.6795,-6.6795,-6.6795,-6.6795,-6.6795,-6.6795,-6.6795,-6.6795,-6.6795,-6.6795,-6.6795,-6.6795,-6.6795,-6.6795,-6.6795,-6.6795,-6.6795,-6.6795,-6.6795,-6.6795,-6.6756,-6.6405,-6.6249,-6.617,-6.578,-6.5665,-6.5665,-6.5665,-6.5665,-6.5665,-6.5665,-6.5936,-6.6249,-6.6249,-6.6522,-6.6717,-6.6366,-6.6522,-6.6795,-6.6795,-6.6795,-6.6795,-6.6795,-6.6795,-6.6795,-6.6795,-6.6795,-6.6795,-6.6795,-6.6795,-6.6795,-6.6795,-6.6795,-6.6795,-6.6795,-6.6795,-6.6795,-6.6795,-6.6795,-6.6795,-6.6795,-6.7224,-6.7654,-6.8083,-6.8981,-6.984,-7.066,-7.1167,-7.1597,-7.1987,-7.1987,-7.1987,-7.1987,-7.1987,-7.1987,-7.1987,-7.1987,-7.1987,-7.1987,-7.1987,-7.1987,-7.1987,-7.1987,-7.1987,-7.1987,-7.1987,-7.1987,-7.1984,-7.1866,-7.1785,-7.1677,-7.1439,-7.127,-7.1181,-6.6795,-6.6795,-6.6795,-6.6795,-6.6795,-6.6795,-6.6795,-6.6795,-6.6795,-6.6795,-6.6795,-6.6795,-6.6795,-6.6795,-6.6795,-6.6795,-6.6795,-6.6795,-6.6795,-6.6795,-6.6795,-6.6795,-6.6795,-6.6795,-6.6795,-6.6795,-6.6795,-6.6795,-6.6795,-6.6795,-6.6795,-6.6795,-6.6795,-6.6795,-6.6795,-6.6795,-6.6795,-6.6795,-6.6795,-6.6795,-6.6795,-6.6795,-6.6795,-6.6795,-6.6795,-6.6795,-6.6795,-6.6795,-6.6795,-6.6795,-6.6795,-6.6795,-6.6795,-6.6795,-6.6795,-6.6795,-6.6795,-6.6795,-6.6795,-6.6795,-6.6795,-6.6795,-6.6795,-6.6795,-6.6795,-6.6795,-6.6795,-6.6795,-6.6795,-6.6795,-6.6795,-6.6795,-6.6795,-6.6795,-6.6795,-6.6795,-6.6795,-6.6795,-6.6795,-6.6795,-6.699,-6.7107,-6.7107,-6.7888,-6.8474,-6.8708,-6.9957,-7.0777,-7.0972,-7.1636,-7.1987,-7.1987,-7.1987,-7.1987,-7.1987,-7.1987,-7.1987,-7.1987,-7.1987,-7.1987,-7.1987,-7.1987,-7.1987,-7.1987,-7.1987,-7.1987,-7.1987,-7.1987,-7.1987,-7.1984,-7.1846,-7.1711,-7.1634,-7.1377,-7.1225,-7.1101,-6.6795,-6.6795,-6.6795,-6.6795,-6.6795,-6.6795,-6.6795,-6.6795,-6.6795,-6.6795,-6.6795,-6.6795,-6.6795,-6.6795,-6.6795,-6.6795,-6.6795,-6.6795,-6.6795,-6.6795,-6.6795,-6.6795,-6.6795,-6.6795,-6.6795,-6.6795,-6.6795,-6.6795,-6.6795,-6.6795,-6.6795,-6.6795,-6.6795,-6.6795,-6.6795,-6.6795,-6.6795,-6.6795,-6.6795,-6.6795,-6.6795,-6.6795,-6.6795,-6.6795,-6.6795,-6.6795,-6.6795,-6.6795,-6.6795,-6.6795,-6.6795,-6.6795,-6.6795,-6.6795,-6.6795,-6.6795,-6.6795,-6.6795,-6.6795,-6.6795,-6.6795,-6.6795,-6.6795,-6.6795,-6.6795,-6.6795,-6.6795,-6.6795,-6.6795,-6.6795,-6.6795,-6.6795,-6.6795,-6.6795,-6.6795,-6.6795,-6.6795,-6.6795,-6.6795,-6.6795,-6.7498,-6.8005,-6.8005,-6.8786,-6.9645,-7.0465,-7.0621,-7.105,-7.187,-7.1987,-7.1987,-7.1987,-7.1987,-7.1987,-7.1987,-7.1987,-7.1987,-7.1987,-7.1987,-7.1987,-7.1987,-7.1987,-7.1987,-7.1987,-7.1987,-7.1987,-7.1987,-7.1987,-7.1987,-7.1987,-7.1982,-7.1809,-7.1497,-7.1473,-7.1229,-7.0925,-6.8396,-6.8396,-6.8396,-6.8396,-6.7966,-6.7615,-6.7615,-6.7146,-6.6795,-6.6795,-6.6795,-6.6795,-6.6795,-6.6795,-6.6795,-6.6795,-6.6795,-6.6795,-6.6795,-6.6795,-6.6795,-6.6795,-6.6795,-6.6795,-6.6795,-6.6795,-6.6795,-6.6795,-6.6795,-6.6795,-6.6795,-6.6795,-6.6795,-6.6795,-6.6795,-6.6795,-6.6795,-6.6795,-6.6795,-6.6795,-6.6795,-6.6795,-6.6795,-6.6795,-6.6795,-6.6795,-6.6795,-6.6795,-6.6795,-6.6795,-6.6795,-6.6795,-6.6795,-6.6795,-6.6795,-6.6795,-6.6795,-6.6795,-6.6795,-6.6795,-6.6795,-6.6795,-6.6795,-6.6795,-6.6795,-6.6795,-6.6795,-6.6795,-6.6795,-6.6795,-6.6795,-6.6795,-6.6795,-6.6795,-6.6795,-6.6795,-6.6795,-6.7264,-6.7615,-6.7615,-6.8396,-6.8903,-6.8903,-6.9684,-7.0348,-7.0699,-7.1206,-7.1636,-7.1987,-7.1987,-7.1987,-7.1987,-7.1987,-7.1987,-7.1987,-7.1987,-7.1987,-7.1987,-7.1987,-7.1987,-7.1987,-7.1987,-7.1987,-7.1987,-7.1987,-7.1987,-7.1987,-7.1987,-7.1987,-7.1982,-7.1755,-7.1594,-7.1456,-7.1236,-7.1042,-7.0885,-6.9411,-6.9411,-6.9411,-6.9411,-6.8903,-6.8513,-6.8513,-6.7771,-6.7224,-6.7224,-6.6951,-6.6795,-6.6795,-6.6795,-6.6795,-6.6795,-6.6795,-6.6795,-6.6795,-6.6795,-6.6795,-6.6795,-6.6795,-6.6795,-6.6795,-6.6795,-6.6795,-6.6795,-6.6795,-6.6795,-6.6795,-6.6795,-6.6795,-6.6795,-6.6795,-6.6795,-6.6795,-6.6795,-6.6795,-6.6795,-6.6795,-6.6795,-6.6795,-6.6795,-6.6795,-6.6795,-6.6795,-6.6795,-6.6795,-6.6795,-6.6795,-6.6795,-6.6795,-6.6795,-6.6795,-6.6795,-6.6795,-6.6795,-6.6795,-6.6795,-6.6795,-6.6795,-6.6795,-6.6795,-6.6795,-6.6795,-6.6795,-6.6795,-6.6795,-6.6795,-6.6795,-6.6795,-6.6795,-6.6795,-6.7029,-6.7224,-6.7224,-6.7966,-6.8513,-6.8513,-6.9294,-6.9801,-6.9801,-7.0582,-7.1128,-7.1128,-7.1675,-7.1987,-7.1987,-7.1987,-7.1987,-7.1987,-7.1987,-7.1987,-7.1987,-7.1987,-7.1987,-7.1987,-7.1987,-7.1987,-7.1987,-7.1987,-7.1987,-7.1987,-7.1987,-7.1987,-7.1987,-7.1987,-7.1976,-7.1866,-7.1641,-7.1497,-7.1367,-7.1089,-7.0927,-7.0857,-6.9411,-6.9411,-6.9411,-6.9411,-6.9411,-6.9411,-6.9411,-6.8669,-6.8083,-6.8083,-6.7342,-6.6795,-6.6795,-6.6795,-6.6795,-6.6795,-6.6795,-6.6795,-6.6795,-6.6795,-6.6795,-6.6795,-6.6795,-6.6795,-6.6795,-6.6795,-6.6795,-6.6795,-6.6795,-6.6795,-6.6795,-6.6795,-6.6795,-6.6795,-6.6795,-6.6795,-6.6795,-6.6795,-6.6795,-6.6795,-6.6795,-6.6795,-6.6795,-6.6795,-6.6795,-6.6795,-6.6795,-6.6795,-6.6795,-6.6795,-6.6795,-6.6795,-6.6795,-6.6795,-6.6795,-6.6795,-6.6795,-6.6795,-6.6795,-6.6795,-6.6795,-6.6795,-6.6795,-6.6795,-6.6795,-6.6795,-6.6795,-6.6795,-6.6795,-6.6795,-6.6795,-6.6795,-6.6795,-6.6795,-6.7537,-6.8122,-6.8122,-6.8864,-6.9411,-6.9411,-7.0191,-7.0699,-7.0699,-7.148,-7.1987,-7.1987,-7.1987,-7.1987,-7.1987,-7.1987,-7.1987,-7.1987,-7.1987,-7.1987,-7.1987,-7.1987,-7.1987,-7.1987,-7.1987,-7.1987,-7.1987,-7.1987,-7.1987,-7.1987,-7.1987,-7.1987,-7.1987,-7.1987,-7.187,-7.17,-7.17,-7.149,-7.1214,-7.1214,-7.1016,-7.0787,-7.1206,-7.1206,-7.1206,-7.1206,-7.0738,-7.0309,-7.0309,-6.9059,-6.8083,-6.8083,-6.7342,-6.6795,-6.6795,-6.6795,-6.6795,-6.6795,-6.6795,-6.6795,-6.6795,-6.6795,-6.6795,-6.6795,-6.6795,-6.6795,-6.6795,-6.6795,-6.6795,-6.6795,-6.6795,-6.6795,-6.6795,-6.6795,-6.6795,-6.6795,-6.6795,-6.6795,-6.6795,-6.6795,-6.6795,-6.6795,-6.6795,-6.6795,-6.6795,-6.6795,-6.6795,-6.6795,-6.6795,-6.6795,-6.6795,-6.6795,-6.6795,-6.6795,-6.6795,-6.6795,-6.6795,-6.6795,-6.6795,-6.6795,-6.6795,-6.6795,-6.6795,-6.6795,-6.6795,-6.6795,-6.6795,-6.6795,-6.6795,-6.6795,-6.6795,-6.6795,-6.6795,-6.7303,-6.7693,-6.7693,-6.8435,-6.902,-6.902,-6.9762,-7.0309,-7.0309,-7.1089,-7.1597,-7.1597,-7.1831,-7.1987,-7.1987,-7.1987,-7.1987,-7.1987,-7.1987,-7.1987,-7.1987,-7.1987,-7.1987,-7.1987,-7.1987,-7.1987,-7.1987,-7.1987,-7.1987,-7.1987,-7.1987,-7.1987,-7.1987,-7.1987,-7.1987,-7.1987,-7.1987,-7.187,-7.1694,-7.1601,-7.1422,-7.1192,-7.1055,-7.0925,-7.0787,-7.1987,-7.1987,-7.1987,-7.1987,-7.1558,-7.1206,-7.1206,-7.0035,-6.8981,-6.8669,-6.7849,-6.7185,-6.6834,-6.6795,-6.6795,-6.6795,-6.6795,-6.6795,-6.6795,-6.6795,-6.6795,-6.6795,-6.6795,-6.6795,-6.6795,-6.6795,-6.6795,-6.6795,-6.6795,-6.6795,-6.6795,-6.6795,-6.6795,-6.6795,-6.6795,-6.6795,-6.6795,-6.6795,-6.6795,-6.6795,-6.6795,-6.6795,-6.6795,-6.6795,-6.6795,-6.6795,-6.6795,-6.6795,-6.6795,-6.6795,-6.6795,-6.6795,-6.6795,-6.6795,-6.6795,-6.6795,-6.6795,-6.6795,-6.6795,-6.6795,-6.6795,-6.6795,-6.6795,-6.6795,-6.6795,-6.6795,-6.6795,-6.6795,-6.6795,-6.6912,-6.7264,-6.7732,-6.82,-6.8552,-6.9333,-6.9918,-6.9918,-7.066,-7.1206,-7.1206,-7.1675,-7.1987,-7.1987,-7.1987,-7.1987,-7.1987,-7.1987,-7.1987,-7.1987,-7.1987,-7.1987,-7.1987,-7.1987,-7.1987,-7.1987,-7.1987,-7.1987,-7.1987,-7.1987,-7.1987,-7.1987,-7.1987,-7.1987,-7.1987,-7.1987,-7.1987,-7.1987,-7.1987,-7.185,-7.1615,-7.1521,-7.131,-7.1016,-7.0925,-7.0787,-7.0723,-7.1987,-7.1987,-7.1987,-7.1987,-7.1987,-7.1987,-7.1987,-7.1245,-7.0426,-6.9606,-6.8708,-6.781,-6.699,-6.6834,-6.6795,-6.6795,-6.6795,-6.6795,-6.6795,-6.6795,-6.6795,-6.6795,-6.6795,-6.6795,-6.6795,-6.6795,-6.6795,-6.6795,-6.6795,-6.6795,-6.6795,-6.6795,-6.6795,-6.6795,-6.6795,-6.6795,-6.6795,-6.6795,-6.6795,-6.6795,-6.6795,-6.6795,-6.6795,-6.6795,-6.6795,-6.6795,-6.6795,-6.6795,-6.6795,-6.6795,-6.6795,-6.6795,-6.6795,-6.6795,-6.6795,-6.6795,-6.6795,-6.6795,-6.6795,-6.6795,-6.6795,-6.6795,-6.6795,-6.6795,-6.6795,-6.6795,-6.6834,-6.6912,-6.6912,-6.7185,-6.8044,-6.8279,-6.8591,-6.9372,-7.027,-7.0816,-7.0816,-7.1519,-7.1987,-7.1987,-7.1987,-7.1987,-7.1987,-7.1987,-7.1987,-7.1987,-7.1987,-7.1987,-7.1987,-7.1987,-7.1987,-7.1987,-7.1987,-7.1987,-7.1987,-7.1987,-7.1987,-7.1987,-7.1987,-7.1987,-7.1987,-7.1987,-7.1987,-7.1987,-7.1987,-7.1987,-7.1987,-7.1982,-7.1804,-7.1481,-7.1465,-7.1186,-7.0801,-7.0787,-7.0723,-7.0623,-7.1987,-7.1987,-7.1987,-7.1987,-7.1987,-7.1987,-7.1987,-7.1245,-7.0621,-7.0426,-6.9059,-6.8044,-6.7849,-6.7224,-6.6795,-6.6795,-6.6795,-6.6795,-6.6795,-6.6795,-6.6795,-6.6795,-6.6795,-6.6795,-6.6795,-6.6795,-6.6795,-6.6795,-6.6795,-6.6795,-6.6795,-6.6795,-6.6795,-6.6795,-6.6795,-6.6795,-6.6795,-6.6795,-6.6795,-6.6795,-6.6795,-6.6795,-6.6795,-6.6795,-6.6795,-6.6795,-6.6795,-6.6795,-6.6795,-6.6795,-6.6795,-6.6795,-6.6795,-6.6795,-6.6795,-6.6795,-6.6795,-6.6795,-6.6795,-6.6795,-6.6795,-6.6795,-6.6795,-6.6795,-6.6795,-6.6795,-6.699,-6.7693,-6.781,-6.8083,-6.8942,-6.9684,-7.0191,-7.0387,-7.1167,-7.1714,-7.1714,-7.187,-7.1987,-7.1987,-7.1987,-7.1987,-7.1987,-7.1987,-7.1987,-7.1987,-7.1987,-7.1987,-7.1987,-7.1987,-7.1987,-7.1987,-7.1987,-7.1987,-7.1987,-7.1987,-7.1987,-7.1987,-7.1987,-7.1987,-7.1987,-7.1987,-7.1987,-7.1987,-7.1987,-7.1987,-7.1984,-7.1846,-7.1653,-7.1473,-7.132,-7.1101,-7.0871,-7.0815,-7.0729,-7.0662,-7.1987,-7.1987,-7.1987,-7.1987,-7.1987,-7.1987,-7.1987,-7.1597,-7.1167,-7.0738,-6.9918,-6.902,-6.82,-6.7693,-6.7264,-6.6834,-6.6795,-6.6795,-6.6795,-6.6795,-6.6795,-6.6795,-6.6795,-6.6795,-6.6795,-6.6795,-6.6795,-6.6795,-6.6795,-6.6795,-6.6795,-6.6795,-6.6795,-6.6795,-6.6795,-6.6795,-6.6795,-6.6795,-6.6795,-6.6795,-6.6795,-6.6795,-6.6795,-6.6795,-6.6795,-6.6795,-6.6795,-6.6795,-6.6795,-6.6795,-6.6795,-6.6795,-6.6795,-6.6795,-6.6795,-6.6795,-6.6795,-6.6795,-6.6795,-6.6795,-6.6795,-6.6795,-6.6795,-6.6795,-6.6795,-6.6795,-6.7068,-6.7927,-6.8083,-6.8474,-6.9762,-7.0387,-7.0855,-7.1245,-7.1714,-7.1987,-7.1987,-7.1987,-7.1987,-7.1987,-7.1987,-7.1987,-7.1987,-7.1987,-7.1987,-7.1987,-7.1987,-7.1987,-7.1987,-7.1987,-7.1987,-7.1987,-7.1987,-7.1987,-7.1987,-7.1987,-7.1987,-7.1987,-7.1987,-7.1987,-7.1987,-7.1987,-7.1987,-7.1987,-7.1987,-7.1987,-7.1984,-7.187,-7.1722,-7.1473,-7.1377,-7.1136,-7.0787,-7.0758,-7.0654,-7.0547,-7.1987,-7.1987,-7.1987,-7.1987,-7.1987,-7.1987,-7.1987,-7.1987,-7.1753,-7.1011,-7.0777,-7.0152,-6.8708,-6.8279,-6.7732,-6.6873,-6.6795,-6.6795,-6.6795,-6.6795,-6.6795,-6.6795,-6.6795,-6.6795,-6.6795,-6.6795,-6.6795,-6.6795,-6.6795,-6.6795,-6.6795,-6.6795,-6.6795,-6.6795,-6.6795,-6.6795,-6.6795,-6.6795,-6.6795,-6.6795,-6.6795,-6.6795,-6.6795,-6.6795,-6.6795,-6.6795,-6.6795,-6.6795,-6.6795,-6.6795,-6.6795,-6.6795,-6.6795,-6.6795,-6.6795,-6.6795,-6.6795,-6.6795,-6.6795,-6.6795,-6.6795,-6.6795,-6.6795,-6.6795,-6.6795,-6.6795,-6.7068,-6.7927,-6.8083,-6.8591,-7.0191,-7.0465,-7.0777,-7.1636,-7.1792,-7.1831,-7.1987,-7.1987,-7.1987,-7.1987,-7.1987,-7.1987,-7.1987,-7.1987,-7.1987,-7.1987,-7.1987,-7.1987,-7.1987,-7.1987,-7.1987,-7.1987,-7.1987,-7.1987,-7.1987,-7.1987,-7.1987,-7.1987,-7.1987,-7.1987,-7.1987,-7.1987,-7.1987,-7.1987,-7.1987,-7.1987,-7.1987,-7.1924,-7.1739,-7.1473,-7.1404,-7.1097,-7.0699,-7.0708,-7.0547,-7.0419,-7.1987,-7.1987,-7.1987,-7.1987,-7.1987,-7.1987,-7.1987,-7.1987,-7.1948,-7.1831,-7.1167,-7.0621,-7.0387,-6.8981,-6.7732,-6.6873,-6.6795,-6.6795,-6.6795,-6.6795,-6.6795,-6.6795,-6.6795,-6.6795,-6.6795,-6.6795,-6.6795,-6.6795,-6.6795,-6.6795,-6.6795,-6.6795,-6.6795,-6.6795,-6.6795,-6.6795,-6.6795,-6.6795,-6.6795,-6.6795,-6.6795,-6.6795,-6.6795,-6.6795,-6.6795,-6.6795,-6.6795,-6.6795,-6.6795,-6.6795,-6.6795,-6.6795,-6.6795,-6.6795,-6.6795,-6.6795,-6.6795,-6.6795,-6.6795,-6.6795,-6.6795,-6.6795,-6.6795,-6.6795,-6.6795,-6.6795,-6.7068,-6.7927,-6.8083,-6.8396,-6.9372,-6.9567,-6.9879,-7.0738,-7.0894,-7.1128,-7.187,-7.1987,-7.1987,-7.1987,-7.1987,-7.1987,-7.1987,-7.1987,-7.1987,-7.1987,-7.1987,-7.1987,-7.1987,-7.1987,-7.1987,-7.1987,-7.1987,-7.1987,-7.1987,-7.1987,-7.1987,-7.1987,-7.1987,-7.1987,-7.1987,-7.1987,-7.1987,-7.1987,-7.1987,-7.1987,-7.1979,-7.1692,-7.1521,-7.1448,-7.1053,-7.0871,-7.0758,-7.0647,-7.0538,-7.0419,-7.1987,-7.1987,-7.1987,-7.1987,-7.1987,-7.1987,-7.1987,-7.1987,-7.1987,-7.1987,-7.1675,-7.1245,-7.0738,-6.9567,-6.8669,-6.8279,-6.8239,-6.8044,-6.7576,-6.7537,-6.7303,-6.6834,-6.6795,-6.6795,-6.6795,-6.6795,-6.6795,-6.6795,-6.6795,-6.6795,-6.6795,-6.6795,-6.6795,-6.6795,-6.6795,-6.6795,-6.6795,-6.6795,-6.6795,-6.6795,-6.6795,-6.6795,-6.6795,-6.6795,-6.6795,-6.6795,-6.6795,-6.6795,-6.6795,-6.6795,-6.6795,-6.6795,-6.6795,-6.6795,-6.6795,-6.6795,-6.6795,-6.6795,-6.6795,-6.6795,-6.6795,-6.6795,-6.6795,-6.6795,-6.6795,-6.6795,-6.7068,-6.7927,-6.8083,-6.8357,-6.9255,-6.9411,-6.9528,-6.9918,-6.9957,-7.0113,-7.0504,-7.0972,-7.1441,-7.1948,-7.1987,-7.1987,-7.1987,-7.1987,-7.1987,-7.1987,-7.1987,-7.1987,-7.1987,-7.1987,-7.1987,-7.1987,-7.1987,-7.1987,-7.1987,-7.1987,-7.1987,-7.1987,-7.1987,-7.1987,-7.1987,-7.1987,-7.1987,-7.1987,-7.1987,-7.1927,-7.1803,-7.1665,-7.1497,-7.126,-7.1053,-7.0846,-7.0678,-7.0554,-7.0451,-7.0419]},{"header":{"parameterUnit":"m.s-1","parameterCategory":1,"la1":30.6,"la2":28.766,"lo1":-90.7593,"lo2":-88.6598,"dy":0.0162,"dx":0.0183,"nx":116,"ny":114,"refTime":"2023-03-20T00:00:00:Z","depth":0,"parameterNumber":3,"parameterNumberName":"V-component_of_WINDS"},"data":[0.0,0.0,0.0,0.0,0.0,0.0,0.0,0.0,0.0,0.0,0.0,0.0,0.0,0.0,0.0,0.0,0.0,0.0,0.0,0.0,0.0,0.0,0.0,0.0,0.0,0.0,0.0,0.0,0.0,0.0,0.0,0.0,0.0,0.0,0.0,0.0,0.0,0.0,0.0,0.0,0.0,0.0,0.0,0.0,0.0,0.0,0.0,0.0,0.0,0.0,0.0,0.0,0.0,0.0,0.0,0.0,0.0,0.0,0.0,0.0,0.0,0.0,0.0,0.0,0.0,0.0,0.0,0.0,0.0,0.0,0.0,0.0,0.0,0.0,0.0,0.0,0.0,0.0,0.0,0.0,0.0,0.0,0.0,0.0,0.0,0.0,0.0,0.0,0.0,0.0,0.0,0.0,0.0,0.0,0.0,0.0,0.0,0.0,0.0,0.0,0.0,0.0,0.0,0.0,0.0,0.0,0.0,0.0,0.0,0.0,0.0,0.0,0.0,0.0,0.0,0.0,0.0,0.0,0.0,0.0,0.0,0.0,0.0,0.0,0.0,0.0,0.0,0.0,0.0,0.0,0.0,0.0,0.0,0.0,0.0,0.0,0.0,0.0,0.0,0.0,0.0,0.0,0.0,0.0,0.0,0.0,0.0,0.0,0.0,0.0,0.0,0.0,0.0,0.0,0.0,0.0,0.0,0.0,0.0,0.0,0.0,0.0,0.0,0.0,0.0,0.0,0.0,0.0,0.0,0.0,0.0,0.0,0.0,0.0,0.0,0.0,0.0,0.0,0.0,0.0,0.0,0.0,0.0,0.0,0.0,0.0,0.0,0.0,0.0,0.0,0.0,0.0,0.0,0.0,0.0,0.0,0.0,0.0,0.0,0.0,0.0,0.0,0.0,0.0,0.0,0.0,0.0,0.0,0.0,0.0,0.0,0.0,0.0,0.0,0.0,0.0,0.0,0.0,0.0,0.0,0.0,0.0,0.0,0.0,0.0,0.0,0.0,0.0,0.0,0.0,0.0,0.0,0.0,0.0,0.0,0.0,0.0,0.0,0.0,0.0,0.0,0.0,0.0,0.0,0.0,0.0,0.0,0.0,0.0,0.0,0.0,0.0,0.0,0.0,0.0,0.0,0.0,0.0,0.0,0.0,0.0,0.0,0.0,0.0,0.0,0.0,0.0,0.0,0.0,0.0,0.0,0.0,0.0,0.0,0.0,0.0,0.0,0.0,0.0,0.0,0.0,0.0,0.0,0.0,0.0,0.0,0.0,0.0,0.0,0.0,0.0,0.0,0.0,0.0,0.0,0.0,0.0,0.0,0.0,0.0,0.0,0.0,0.0,0.0,0.0,0.0,0.0,0.0,0.0,0.0,0.0,0.0,0.0,0.0,0.0,0.0,0.0,0.0,0.0,0.0,0.0,0.0,0.0,0.0,0.0,0.0,0.0,0.0,0.0,0.0,0.0,0.0,0.0,0.0,0.0,0.0,0.0,0.0,0.0,0.0,0.0,0.0,0.0,0.0,0.0,0.0,0.0,0.0,0.0,0.0,0.0,0.0,0.0,0.0,0.0,0.0,0.0,0.0,0.0,0.0,0.0,0.0,0.0,0.0,0.0,0.0,0.0,0.0,0.0,0.0,0.0,0.0,0.0,0.0,0.0,0.0,0.0,0.0,0.0,0.0,0.0,0.0,0.0,0.0,0.0,0.0,0.0,0.0,0.0,0.0,0.0,0.0,0.0,0.0,0.0,0.0,0.0,0.0,0.0,0.0,0.0,0.0,0.0,0.0,0.0,0.0,0.0,0.0,0.0,0.0,0.0,0.0,0.0,0.0,0.0,0.0,0.0,0.0,0.0,0.0,0.0,0.0,0.0,0.0,0.0,0.0,0.0,0.0,0.0,0.0,0.0,0.0,0.0,0.0,0.0,0.0,0.0,0.0,0.0,0.0,0.0,0.0,0.0,0.0,0.0,0.0,0.0,0.0,0.0,0.0,0.0,0.0,0.0,0.0,0.0,0.0,0.0,0.0,0.0,0.0,0.0,0.0,0.0,0.0,0.0,0.0,0.0,0.0,0.0,0.0,0.0,0.0,0.0,0.0,0.0,0.0,0.0,0.0,0.0,0.0,0.0,0.0,0.0,0.0,0.0,0.0,0.0,0.0,0.0,0.0,0.0,0.0,0.0,0.0,0.0,0.0,0.0,0.0,0.0,0.0,0.0,0.0,0.0,0.0,0.0,0.0,0.0,0.0,0.0,0.0,0.0,0.0,0.0,0.0,0.0,0.0,0.0,0.0,0.0,0.0,0.0,0.0,0.0,0.0,0.0,0.0,0.0,0.0,0.0,0.0,0.0,0.0,0.0,0.0,0.0,0.0,0.0,0.0,0.0,0.0,0.0,0.0,0.0,0.0,0.0,0.0,0.0,0.0,0.0,0.0,0.0,0.0,0.0,0.0,0.0,0.0,0.0,0.0,0.0,0.0,0.0,0.0,0.0,0.0,0.0,0.0,0.0,0.0,0.0,0.0,0.0,0.0,0.0,0.0,0.0,0.0,0.0,0.0,0.0,0.0,0.0,0.0,0.0,0.0,0.0,0.0,0.0,0.0,0.0,0.0,0.0,0.0,0.0,0.0,0.0,0.0,0.0,0.0,0.0,0.0,0.0,0.0,0.0,0.0,0.0,0.0,0.0,0.0,0.0,0.0,0.0,0.0,0.0,0.0,0.0,0.0,0.0,0.0,0.0,0.0,0.0,0.0,0.0,0.0,0.0,0.0,0.0,0.0,0.0,0.0,0.0,0.0,0.0,0.0,0.0,0.0,0.0,0.0,0.0,0.0,0.0,0.0,0.0,0.0,0.0,0.0,0.0,0.0,0.0,0.0,0.0,0.0,0.0,0.0,0.0,0.0,0.0,0.0,0.0,0.0,0.0,0.0,0.0,0.0,0.0,0.0,0.0,0.0,0.0,0.0,0.0,0.0,0.0,0.0,0.0,0.0,0.0,0.0,0.0,0.0,0.0,0.0,0.0,0.0,0.0,0.0,0.0,0.0,0.0,0.0,0.0,0.0,0.0,0.0,0.0,0.0,0.0,0.0,0.0,0.0,0.0,0.0,0.0,0.0,0.0,0.0,0.0,0.0,0.0,0.0,0.0,0.0,0.0,0.0,0.0,0.0,0.0,0.0,0.0,0.0,0.0,0.0,0.0,0.0,0.0,0.0,0.0,0.0,0.0,0.0,0.0,0.0,0.0,0.0,0.0,0.0,0.0,0.0,0.0,0.0,0.0,0.0,0.0,0.0,0.0,0.0,0.0,0.0,0.0,0.0,0.0,0.0,0.0,0.0,0.0,0.0,0.0,0.0,0.0,0.0,0.0,0.0,0.0,0.0,0.0,0.0,0.0,0.0,0.0,0.0,0.0,0.0,0.0,0.0,0.0,0.0,0.0,0.0,0.0,0.0,0.0,0.0,0.0,0.0,0.0,0.0,0.0,0.0,0.0,0.0,0.0,0.0,0.0,0.0,0.0,0.0,0.0,0.0,0.0,0.0,0.0,0.0,0.0,0.0,0.0,0.0,0.0,0.0,0.0,0.0,0.0,0.0,0.0,0.0,0.0,0.0,0.0,0.0,0.0,0.0,0.0,0.0,0.0,0.0,0.0,0.0,0.0,0.0,0.0,0.0,0.0,0.0,0.0,0.0,0.0,0.0,0.0,0.0,0.0,0.0,0.0,0.0,0.0,0.0,0.0,0.0,0.0,0.0,0.0,0.0,0.0,0.0,0.0,0.0,0.0,0.0,0.0,0.0,0.0,0.0,0.0,0.0,0.0,0.0,0.0,0.0,0.0,0.0,0.0,0.0,0.0,0.0,0.0,0.0,0.0,0.0,0.0,0.0,0.0,0.0,0.0,0.0,0.0,0.0,0.0,0.0,0.0,0.0,0.0,0.0,0.0,0.0,0.0,0.0,0.0,0.0,0.0,0.0,0.0,0.0,0.0,0.0,0.0,0.0,0.0,0.0,0.0,0.0,0.0,0.0,0.0,0.0,0.0,0.0,0.0,0.0,0.0,0.0,0.0,0.0,0.0,0.0,0.0,0.0,0.0,0.0,0.0,0.0,0.0,0.0,0.0,0.0,0.0,0.0,0.0,0.0,0.0,0.0,0.0,0.0,0.0,0.0,0.0,0.0,0.0,0.0,0.0,0.0,0.0,0.0,0.0,0.0,0.0,0.0,0.0,0.0,0.0,0.0,0.0,0.0,0.0,0.0,0.0,0.0,0.0,0.0,0.0,0.0,0.0,0.0,0.0,0.0,0.0,0.0,0.0,0.0,0.0,0.0,0.0,0.0,0.0,0.0,0.0,0.0,0.0,0.0,0.0,0.0,0.0,0.0,0.0,0.0,0.0,0.0,0.0,0.0,0.0,0.0,0.0,0.0,0.0,0.0,0.0,0.0,0.0,0.0,0.0,0.0,0.0,0.0,0.0,0.0,0.0,0.0,0.0,0.0,0.0,0.0,0.0,0.0,0.0,0.0,0.0,0.0,0.0,0.0,0.0,0.0,0.0,0.0,0.0,0.0,0.0,0.0,0.0,0.0,0.0,0.0,0.0,0.0,0.0,0.0,0.0,0.0,0.0,0.0,0.0,0.0,0.0,0.0,0.0,0.0,0.0,0.0,0.0,0.0,0.0,0.0,0.0,0.0,0.0,0.0,0.0,0.0,0.0,0.0,0.0,0.0,0.0,0.0,0.0,0.0,0.0,0.0,0.0,0.0,0.0,0.0,0.0,0.0,0.0,0.0,0.0,0.0,0.0,0.0,0.0,0.0,0.0,0.0,0.0,0.0,0.0,0.0,0.0,0.0,0.0,0.0,0.0,0.0,0.0,0.0,0.0,0.0,0.0,0.0,0.0,0.0,0.0,0.0,0.0,0.0,0.0,0.0,0.0,0.0,0.0,0.0,0.0,0.0,0.0,0.0,0.0,0.0,0.0,0.0,0.0,0.0,0.0,0.0,0.0,0.0,0.0,0.0,0.0,0.0,0.0,0.0,0.0,0.0,0.0,0.0,0.0,0.0,0.0,0.0,0.0,0.0,0.0,0.0,0.0,0.0,0.0,0.0,0.0,0.0,0.0,0.0,0.0,0.0,0.0,0.0,0.0,0.0,0.0,0.0,0.0,0.0,0.0,0.0,0.0,0.0,0.0,0.0,0.0,0.0,0.0,0.0,0.0,0.0,0.0,0.0,0.0,0.0,0.0,0.0,0.0,0.0,0.0,0.0,0.0,0.0,0.0,0.0,0.0,0.0,0.0,0.0,0.0,0.0,0.0,0.0,0.0,0.0,0.0,0.0,0.0,0.0,0.0,0.0,0.0,0.0,0.0,0.0,0.0,0.0,0.0,0.0,0.0,0.0,0.0,0.0,0.0,0.0,0.0,0.0,0.0,0.0,0.0,0.0,0.0,0.0,0.0,0.0,0.0,0.0,0.0,0.0,0.0,0.0,0.0,0.0,0.0,0.0,0.0,0.0,0.0,0.0,0.0,0.0,0.0,0.0,0.0,0.0,0.0,0.0,0.0,0.0,0.0,0.0,0.0,0.0,0.0,0.0,0.0,0.0,0.0,0.0,0.0,0.0,0.0,0.0,0.0,0.0,0.0,0.0,0.0,0.0,0.0,0.0,0.0,0.0,0.0,0.0,0.0,0.0,0.0,0.0,0.0,0.0,0.0,0.0,0.0,0.0,0.0,0.0,0.0,0.0,0.0,0.0,0.0,0.0,0.0,0.0,0.0,0.0,0.0,0.0,0.0,0.0,0.0,0.0,0.0,0.0,0.0,0.0,0.0,0.0,0.0,0.0,0.0,0.0,0.0,0.0,0.0,0.0,0.0,0.0,0.0,0.0,0.0,0.0,0.0,0.0,0.0,0.0,0.0,0.0,0.0,0.0,0.0,0.0,0.0,0.0,0.0,0.0,0.0,0.0,0.0,0.0,0.0,0.0,0.0,0.0,0.0,0.0,0.0,0.0,0.0,0.0,0.0,0.0,0.0,0.0,0.0,0.0,0.0,0.0,0.0,0.0,0.0,0.0,0.0,0.0,0.0,0.0,0.0,0.0,0.0,0.0,0.0623,0.0471,0.0,0.0,0.0,0.0,0.0,0.0,0.0,0.0,0.0,0.0,0.0,0.0,0.0,0.0,0.0,0.0,0.0,0.0,0.0,0.0,0.0,0.0,0.0,0.0,0.0,0.0,0.0,0.0,0.0,0.0,0.0,0.0,0.0,0.0,0.0,0.0,0.0,0.0,-1.0972,-1.09,-1.075,-1.0606,-1.0894,-1.1548,0.0,0.0,0.0,0.0,0.0,0.0,0.0,0.0,0.0,0.0,0.0,0.0,0.0,0.0,0.0,0.0,0.0,0.0,0.0,0.0,0.0,0.0,0.0,0.0,0.0,0.0,0.0,0.0,0.0,0.0,0.0,0.0,0.0,0.0,0.0,0.0,0.0,0.0,0.0,0.0,0.0,0.0,0.0,0.0,0.0,0.0,0.0,0.0,0.0,0.0,0.0,0.0,0.0,0.0,0.0,0.0,0.0,0.0,0.0,0.0,0.0,0.0,0.0,0.0,0.0,0.0,0.0,0.0,0.0,0.0,0.1074,0.0926,0.0,0.0,0.0,0.0,0.0,0.0,0.0,0.0,0.0,0.0,0.0,0.0,0.0,0.0,0.0,0.0,0.0,0.0,0.0,0.0,0.0,0.0,0.0,0.0,0.0,0.0,0.0,0.0,0.0,0.0,0.0,0.0,0.0,0.0,0.0,0.0,0.0,0.0,-1.0828,-1.0678,-1.0383,-0.9735,-1.0101,-1.1404,-1.0972,0.0,0.0,0.0,0.0,0.0,0.0,0.0,0.0,0.0,0.0,0.0,0.0,0.0,0.0,0.0,0.0,0.0,0.0,0.0,0.0,0.0,0.0,0.0,0.0,0.0,0.0,0.0,0.0,0.0,0.0,0.0,0.0,0.0,0.0,0.0,0.0,0.0,0.0,0.0,0.0,0.0,0.0,0.0,0.0,0.0,0.0,0.0,0.0,0.0,0.0,0.0,0.0,0.0,0.0,0.0,0.0,0.0,0.0,0.0,0.0,0.0,0.0,0.0,0.2111,0.2109,0.2179,0.2179,0.2405,0.2705,0.233,0.1884,0.1288,0.1302,0.0,0.0,0.0,0.0,0.0,0.0,0.0,0.0,0.0,0.0,0.0,0.0,0.0,0.0,0.0,0.0,0.0,0.0,0.0,0.0,0.0,0.0,-2.1474,-2.1474,-2.0979,-2.0665,0.0,0.0,0.0,0.0,0.0,0.0,0.0,-1.0822,-1.0383,-1.0023,-1.0023,-1.0023,-0.9951,-0.9879,-1.0095,-1.0599,-1.0239,-1.0462,-1.1116,0.0,0.0,0.0,0.0,0.0,0.0,0.0,0.0,0.0,0.0,0.0,0.0,0.0,0.0,0.0,0.0,0.0,0.0,0.0,0.0,0.0,0.0,0.0,0.0,0.0,0.0,0.0,0.0,0.0,0.0,0.0,0.0,0.0,0.0,0.0,0.0,0.0,0.0,0.0,0.0,0.0,0.0,0.0,0.0,0.0,0.0,0.0,0.0,0.0,0.0,0.0,0.0,0.0,0.0,0.0,0.0,0.5124,0.5124,0.5202,0.5397,0.5712,0.5712,0.59,0.6203,0.6203,0.6275,0.6275,0.6275,0.0,0.1741,0.1744,0.0,0.0,0.0,0.0,0.0,0.0,0.0,0.0,0.0,0.0,0.0,0.0,0.0,0.0,0.0,0.0,0.0,0.0,0.0,0.0,0.0,-2.1788,-2.1474,-2.1474,-2.0979,-2.0665,-2.0665,0.0,0.0,0.0,0.0,0.0,-1.075,-1.0383,-1.0095,-0.9879,-0.9663,-0.959,-0.959,-0.959,-0.9663,-0.9807,-0.9663,-1.0023,-1.075,-1.09,0.0,0.0,0.0,0.0,0.0,0.0,0.0,0.0,0.0,0.0,0.0,0.0,0.0,0.0,0.0,0.0,0.0,0.0,0.0,0.0,0.0,0.0,0.0,0.0,0.0,0.0,0.0,0.0,0.0,0.0,0.0,0.0,0.0,0.0,0.0,0.0,0.0,0.0,0.0,0.0,0.0313,0.1166,0.1941,0.2703,0.0,0.0,0.0,0.0,0.0,0.0,0.0,0.0,0.0,0.5756,0.6054,0.6128,0.6128,0.6349,0.655,0.6735,0.6735,0.6861,0.697,0.697,0.697,0.697,0.697,0.6141,0.4733,0.4694,0.4633,0.4486,0.0,0.0,0.0,0.0,0.3177,0.3023,0.0,0.0,0.0,0.0,0.0,0.0,0.0,0.0,0.0,0.0,0.0,0.0,-2.2334,-2.1848,-2.1547,-2.1486,-2.104,-2.0738,-2.0665,0.0,0.0,0.0,0.0,0.0,-1.0383,-0.9951,-0.9735,-0.9735,-0.9446,-0.9302,-0.9302,-0.9302,-0.9302,-0.9302,-0.9302,-0.9663,-1.0383,-1.075,-1.09,-1.1044,0.0,0.0,0.0,0.0,0.0,0.0,0.0,0.0,0.0,0.0,0.0,0.0,0.0,0.0,0.0,0.0,0.0,0.0,0.0,0.0,0.0,0.0,0.0,0.0,0.0,0.0,0.0,0.0,0.0,0.0,0.0,0.0,0.0,0.0,0.0,0.0,0.0,0.0625,0.1166,0.2764,0.3372,0.4116,0.0,0.0,0.0,0.0,0.0,0.0,0.7145,0.7152,0.7187,0.7259,0.7553,0.7697,0.7697,0.8059,0.8189,0.816,0.816,0.8074,0.8045,0.8045,0.8045,0.8045,0.8045,0.8064,0.8098,0.7323,0.6995,0.7003,0.7071,0.7096,0.6947,0.5758,0.5313,0.5155,0.0,0.0,0.0,0.0,0.0,0.0,0.0,0.0,0.0,0.0,0.0,-2.2334,-2.2334,-2.2017,-2.1752,-2.1498,-2.1209,-2.0931,-2.0759,-1.9251,-1.7549,-1.5698,-1.3721,-1.1807,-0.9951,-0.9518,-0.9302,-0.9302,-0.9302,-0.9302,-0.9302,-0.9302,-0.9302,-0.9302,-0.9302,-0.9518,-0.9951,-1.0383,-1.0678,-1.1044,-1.1476,0.0,0.0,0.0,0.0,0.0,0.0,0.0,0.0,0.0,0.0,0.0,0.0,0.0,0.0,0.0,0.0,0.0,0.0,0.0,0.0,0.0,0.0,0.0,0.0,0.0,0.0,0.0,0.0,0.0,0.0,0.0,0.0,0.0,0.0,0.0,0.0,0.0,0.0,0.4389,0.6269,0.0,0.0,0.0,0.0,1.0263,1.0251,1.0396,1.069,1.0756,1.0894,1.1325,1.1332,1.1332,1.1332,1.1325,1.1331,1.1191,1.1191,1.1111,1.0978,1.0978,1.0978,1.0978,1.0978,1.1058,1.0985,0.8165,0.6974,0.6974,0.6982,0.6982,0.6982,0.691,0.691,0.6837,0.0,0.0,0.0,0.0,0.0,0.0,0.0,0.0,0.0,-2.2334,-2.2334,-2.2334,-2.2334,-2.2029,-2.1764,-2.1498,-2.1221,-2.1013,-2.0759,-1.8331,-1.6413,-1.5274,-1.2652,-1.0737,-0.9518,-0.9374,-0.9302,-0.9302,-0.9302,-0.9302,-0.9302,-0.9302,-0.9302,-0.9302,-0.9302,-0.9374,-0.959,-1.0239,-1.0678,-1.1044,-1.1476,-1.1619,0.0,0.0,0.0,0.0,0.0,0.0,0.0,0.0,0.0,0.0,0.0,0.0,0.0,0.0,0.0,0.0,0.0,0.0,0.0,0.0,0.0,0.0,0.0,0.0,0.0,0.0,0.0,0.0,0.0,0.0,0.0,0.0,0.0,0.0,0.0,0.0,0.0,0.6198,0.7232,0.0,0.9367,1.0311,1.0879,1.0828,1.1038,1.1214,1.1264,1.1257,1.1288,1.1328,1.1328,1.1328,1.1328,1.1328,1.1301,1.1246,1.1246,1.1212,1.1234,1.1234,1.1234,1.1234,1.1234,1.1261,1.1177,1.0168,0.9794,0.9945,0.9945,0.9945,0.9873,0.8853,0.8492,0.8348,0.0,0.0,0.0,0.0,0.0,0.0,0.0,0.0,0.0,-2.2334,-2.2334,-2.2334,-2.2334,-2.2102,-2.1897,-2.1631,-2.1366,-2.1088,-2.0822,-1.8374,-1.6343,-1.5053,-1.1872,-0.9879,-0.9302,-0.9302,-0.9302,-0.9302,-0.9302,-0.9302,-0.9302,-0.9302,-0.9302,-0.9302,-0.9302,-0.9446,-0.9735,-1.0239,-1.0599,-1.0894,-1.1404,-1.1619,-1.1548,0.0,0.0,0.0,0.0,0.0,0.0,0.0,0.0,0.0,0.0,0.0,0.0,0.0,0.0,0.0,0.0,0.0,0.0,0.0,0.0,0.0,0.0,0.0,0.0,0.0,0.0,0.0,0.0,0.0,0.0,0.0,0.0,0.0,0.0,0.3679,0.5152,0.803,0.8606,0.9238,1.054,1.0966,1.1168,1.1116,1.1402,1.1477,1.1321,1.1314,1.1267,1.1165,1.1234,1.1234,1.1234,1.1234,1.1138,1.109,1.109,1.1063,1.1016,1.1016,1.1016,1.1016,1.1016,1.1043,1.109,1.109,1.124,1.1463,1.1463,1.1463,1.1322,1.0315,0.9954,0.9811,0.0,0.0,0.0,0.0,0.0,0.0,0.0,0.0,0.0,-2.2334,-2.2334,-2.2334,-2.2334,-2.2334,-2.2162,-2.1897,-2.1631,-2.1366,-2.1147,-1.9386,-1.7268,-1.4982,0.0,-0.9302,-0.9302,-0.9302,-0.9302,-0.9302,-0.9302,-0.9302,-0.9302,-0.9302,-0.9302,-0.9302,-0.9302,-0.9735,-1.0455,-1.0455,-1.0527,-1.0599,-1.1325,-1.1619,-1.1548,0.0,0.0,0.0,0.0,0.0,0.0,0.0,0.0,0.0,0.0,0.0,0.0,0.0,0.0,0.0,0.0,0.0,0.0,0.0,0.0,0.0,0.0,0.0,0.0,0.0,0.0,0.0,0.0,0.0,0.0,0.0,0.0,0.0,0.4517,0.6363,0.8177,0.9746,1.0534,1.0972,1.1038,1.1397,1.1552,1.1396,1.1382,1.1314,1.1234,1.1158,1.122,1.1151,1.1151,1.1151,1.1151,1.1151,1.1077,1.0873,1.0873,1.0799,1.0717,1.0717,1.0717,1.0717,1.0717,1.0739,1.0873,1.0873,1.1023,1.122,1.1227,1.1234,1.1234,1.1234,1.1234,1.1234,0.0,0.0,0.0,0.0,0.0,0.0,0.0,0.0,0.0,0.0,-2.2334,-2.2334,-2.2334,-2.2334,-2.2162,-2.1897,-2.1631,-2.1366,-2.1147,-1.8378,-1.5212,0.0,0.0,0.0,-0.9302,-0.9302,-0.9302,-0.9302,-0.9302,-0.9302,-0.9302,-0.9302,-0.9302,-0.9302,-0.9302,-0.959,-1.0095,-1.0383,-1.0671,-1.0894,-1.1404,-1.1619,-1.1548,0.0,0.0,0.0,0.0,0.0,0.0,0.0,0.0,0.0,0.0,0.0,0.0,0.0,0.0,0.0,0.0,0.0,0.0,0.0,0.0,0.0,0.0,0.0,0.0,0.0,0.0,0.0,0.0,0.0,0.0,0.0,0.2488,0.4533,0.4968,0.6501,0.8387,1.0468,1.09,1.1071,1.1251,1.1386,1.1389,1.124,1.1226,1.1165,1.1016,1.1009,1.0955,1.0846,1.0839,1.0839,1.0839,1.0839,1.0826,1.0785,1.0785,1.0758,1.0717,1.0717,1.0717,1.0717,1.0717,1.0744,1.0785,1.0785,1.0806,1.0867,1.1077,1.1234,1.1234,1.1234,1.1234,1.1234,0.0,0.0,0.0,0.0,0.0,0.0,0.0,0.0,0.0,0.0,-2.2334,-2.2334,-2.2334,-2.2334,-2.2273,-2.2042,-2.1691,-2.1414,-2.1245,0.0,0.0,0.0,0.0,-0.9735,-0.9302,-0.9302,-0.9302,-0.9302,-0.9302,-0.9302,-0.9302,-0.9302,-0.9302,-0.9302,-0.9302,-0.959,-1.0167,-1.0383,-1.0822,-1.126,-1.1476,-1.1619,-1.1548,-1.1116,-1.0894,-1.0678,-1.0095,-0.9735,-0.9518,-0.9374,0.0,0.0,0.0,0.0,0.0,0.0,0.0,0.0,0.0,0.0,0.0,0.0,0.0,0.0,0.0,0.0,0.0,0.0,0.0,0.0,0.0,0.0,0.0,0.0,0.3057,0.5307,0.567,0.7625,0.9496,1.0746,1.1096,1.118,1.1307,1.1294,1.1233,1.1084,1.107,1.1009,1.086,1.0786,1.0812,1.0724,1.0717,1.0717,1.0717,1.0717,1.0717,1.0717,1.0717,1.0717,1.0717,1.0717,1.0717,1.0717,1.0717,1.0717,1.0717,1.0717,1.0717,1.0738,0.0,0.0,0.0,0.0,1.0975,1.0975,0.0,0.0,0.0,0.0,0.0,0.0,0.0,0.0,0.0,0.0,0.0,-2.2334,-2.2334,-2.2334,-2.2334,-2.2334,-2.1812,-2.1426,0.0,0.0,0.0,-1.4778,-1.1657,-0.9735,-0.9302,-0.9302,-0.9302,-0.9302,-0.9302,-0.9302,-0.9302,-0.9302,-0.9302,-0.9302,-0.9302,-0.9735,-1.0527,-1.0527,-1.0966,-1.1619,-1.1619,-1.1619,-1.1548,-1.1188,-1.1044,-1.0828,-1.0167,-0.9879,-0.9807,-0.9446,0.0,0.0,0.0,0.0,0.0,0.0,0.0,0.0,0.0,0.0,0.0,0.0,0.0,0.0,0.0,0.0,0.0,0.0,0.0,0.0,0.0,0.0,0.0,0.0,0.3346,0.5667,0.6524,0.9203,1.0973,1.0915,1.1164,1.1307,1.1151,1.1138,1.1077,1.0867,1.0853,1.0799,1.0724,1.0717,0.0,0.0,0.0,1.0717,1.0717,1.0717,1.0717,1.0717,1.0717,1.0717,1.0717,1.0717,1.0717,1.0717,1.0717,1.0717,1.0717,1.0717,1.0717,1.0717,1.0717,1.0717,1.0717,1.0717,1.0717,1.0717,0.0,0.0,0.0,0.0,0.0,0.0,0.0,0.0,0.0,-2.2334,-2.2334,-2.2334,-2.2334,-2.2334,-2.2334,-2.2334,-2.1969,-2.1087,0.0,0.0,-1.5381,-1.323,-1.1377,-1.0023,-0.9302,-0.9302,-0.9302,-0.9302,-0.9302,-0.9302,-0.9302,-0.9302,-0.9302,-0.9302,-0.9302,-0.9735,-1.0527,-1.0527,-1.0966,-1.1619,-1.1619,-1.1619,-1.1619,-1.1476,-1.1109,-1.0599,-1.0455,-0.9951,-0.9374,-0.9302,-0.9302,-0.9302,-0.9302,-0.843,0.0,0.0,0.0,0.0,0.0,0.0,0.0,0.0,0.0,0.0,0.0,0.0,0.0,0.0,0.0,0.0,0.0,0.0,0.0,0.2256,0.4579,0.6585,0.7936,0.993,1.1281,1.1325,1.128,1.1151,1.1002,1.0989,1.0928,1.0778,1.0765,1.0751,1.0724,1.0717,1.0717,1.0717,1.0717,1.0717,1.0717,1.0717,1.0717,1.0717,1.0717,0.0,1.0717,1.0717,1.0717,1.0717,1.0717,1.0717,1.0717,1.0717,1.0717,1.0717,1.0717,1.0717,1.0717,1.0717,1.0717,1.0717,0.0,0.0,0.0,0.0,0.0,0.0,0.0,0.0,0.0,0.0,-2.2334,-2.2334,-2.2334,-2.2334,-2.2334,-2.2334,-2.2017,0.0,0.0,-1.8606,-1.6683,-1.4424,-1.256,-1.0953,-0.9663,-0.9374,-0.9302,-0.9302,-0.9302,-0.9302,-0.9302,-0.9302,-0.9302,-0.9302,-0.9518,-0.9951,-1.0527,-1.0678,-1.1109,-1.1619,-1.1619,-1.1619,-1.1619,-1.1619,-1.1397,-1.1038,-1.0599,-1.0239,-0.9807,-0.9446,-0.9302,-0.9302,-0.9302,-0.8796,-0.7706,0.0,0.0,0.0,0.0,0.0,0.0,0.0,0.0,0.0,0.0,0.0,0.0,0.0,0.0,0.0,0.0,0.0,0.1164,0.2811,0.4892,0.6872,0.8399,1.0089,1.1172,1.1172,1.1104,1.0995,1.0846,1.0766,1.0806,1.0724,1.0717,1.0717,1.0717,1.0717,1.0717,1.0717,1.0717,1.0717,1.0717,1.0717,1.0717,1.0717,1.0717,1.0717,1.0717,1.0717,1.0717,1.0717,1.0717,1.0717,1.0717,1.0717,1.0717,1.0717,1.0717,1.0717,1.0717,1.0717,1.0717,1.0717,0.0,0.0,0.0,0.0,0.0,0.0,0.0,0.0,0.0,0.0,-2.2295,-2.2334,-2.2334,-2.2334,-2.2334,0.0,0.0,0.0,0.0,-1.9953,-1.8196,-1.6506,-1.4137,-1.2122,-1.0377,-0.9735,-0.9374,-0.9302,-0.9302,-0.9302,-0.9302,-0.9302,-0.9374,-0.9446,-0.9735,-1.0167,-1.0599,-1.0894,-1.126,-1.1619,-1.1619,-1.1619,-1.1619,-1.1619,-1.1548,-1.1404,-1.0743,-1.0455,-1.0239,-0.9518,-0.9302,-0.9302,-0.9302,-0.9302,-0.8724,-0.5601,-0.4729,0.0,0.0,0.0,0.0,0.0,0.0,0.0,0.0,0.0,0.0,0.0,0.0,0.0,0.0,0.0364,0.1158,0.2929,0.4905,0.6778,0.85,0.9992,1.0873,1.084,1.084,1.0786,1.0731,1.0717,1.0717,1.0717,1.0717,1.0717,1.0717,1.0717,1.0717,1.0717,1.0717,1.0717,1.0717,1.0717,1.0717,1.0717,1.0717,1.0717,1.0717,1.0717,1.0717,1.0717,1.0717,1.0717,1.0717,1.0717,1.0717,1.0717,1.0717,1.0717,1.0717,1.0717,1.0717,1.0717,0.0,0.0,0.0,0.0,0.0,0.0,0.0,0.0,0.0,0.0,0.0,0.0,0.0,0.0,0.0,0.0,0.0,0.0,-2.1848,-2.0371,-1.9041,-1.797,-1.5119,-1.3024,-1.1872,-1.0521,-0.9663,-0.9302,-0.9302,-0.9302,-0.9302,-0.9302,-0.9518,-0.9807,-0.9879,-1.0317,-1.0972,-1.0972,-1.126,-1.1619,-1.1619,-1.1619,-1.1619,-1.1619,-1.1404,-1.1044,-1.0671,-1.0239,-0.9879,-0.9446,-0.9302,-0.9302,-0.9302,-0.9302,-0.8724,-0.5601,-0.4729,-0.4003,-0.0875,0.0,0.0,0.0,0.0,0.0,0.0,0.0,0.0,0.0,0.0,0.0,0.0,0.0362,0.1146,0.271,0.4797,0.6684,0.8171,0.9789,1.0833,1.0765,1.0744,1.0738,1.0724,1.0717,1.0717,1.0717,1.0717,1.0717,1.0717,1.0717,1.0717,1.0717,1.0717,1.0717,1.0717,1.0717,1.0717,1.0717,1.0717,1.0717,1.0717,1.0717,1.0717,1.0717,1.0717,1.0717,1.0717,1.0717,1.0717,1.0717,1.0717,1.0717,1.0717,1.0717,1.0717,1.0717,0.0,0.0,0.0,0.0,0.0,0.0,0.0,0.0,0.0,0.0,0.0,0.0,0.0,0.0,0.0,0.0,0.0,0.0,-2.2102,-2.1343,-2.0337,-1.9092,-1.729,-1.5318,-1.3089,-1.1849,-1.0665,-0.9663,-0.9446,-0.9302,-0.9302,-0.9518,-0.9735,-0.9951,-1.0317,-1.0678,-1.1044,-1.126,-1.1476,-1.1619,-1.1619,-1.1619,-1.1619,-1.1619,-1.1476,-1.126,-1.0671,-1.0383,0.0,0.0,-0.9302,-0.9302,-0.9302,-0.9302,-0.8868,-0.6688,-0.5383,-0.4003,-0.0875,0.0,0.0,0.0,0.0,0.0,0.0,0.0,0.0,0.0,0.0,0.0,0.0,0.0359,0.1067,0.2517,0.4641,0.6522,0.7915,0.9661,1.0792,1.0724,1.0717,1.0717,1.0717,1.0717,1.0717,1.0717,1.0717,1.0717,1.0717,1.0717,1.0717,1.0717,1.0717,1.0717,1.0717,1.0717,1.0717,1.0717,1.0717,1.0717,1.0717,1.0717,1.0717,1.0717,1.0717,1.0717,1.0717,1.0717,1.0717,1.0717,1.0717,1.0717,1.0717,1.0717,1.0717,1.0717,0.0,0.0,0.0,0.0,0.0,0.0,0.0,0.0,0.0,0.0,0.0,0.0,0.0,0.0,0.0,0.0,0.0,0.0,0.0,-2.2152,-2.1491,-2.028,-1.9195,-1.7237,-1.4423,-1.3594,-1.2151,-1.0148,-1.0179,-1.0017,-0.9663,-0.9951,-1.0095,-1.0245,-1.075,-1.1044,-1.1188,-1.1476,-1.1619,-1.1619,-1.1619,-1.1619,-1.1619,-1.1619,-1.1619,-1.1476,-1.0743,-1.0527,0.0,0.0,-0.9302,-0.9302,-0.9302,-0.9302,-0.9013,-0.7485,-0.5601,-0.3421,-0.0729,0.0,0.0,0.0,0.0,0.0,0.0,0.0,0.0,0.0,0.0,0.0,0.0,0.0215,0.0782,0.181,0.3785,0.5658,0.708,0.8928,1.0246,1.0651,1.0717,1.0717,1.0717,1.0717,1.0717,1.0717,1.0717,1.0717,1.0717,1.0717,1.0717,1.0717,1.0717,1.0717,1.0717,1.0717,1.0717,1.0717,1.0717,1.0717,1.0717,1.0717,1.0717,1.0717,1.0717,1.0717,1.0717,1.0717,1.0717,1.0717,1.0717,1.0717,1.0717,1.0717,1.0717,1.0717,0.0,0.0,0.0,0.0,0.0,0.0,0.0,0.0,0.0,0.0,0.0,0.0,0.0,0.0,0.0,0.0,0.0,0.0,0.0,-2.2259,-2.2138,-2.1811,-2.0343,-1.8506,-1.6159,-1.5949,-1.4188,-1.0651,-1.1949,-1.1879,-1.0455,-1.0455,-1.0671,-1.0972,-1.0972,-1.1188,-1.1548,-1.1619,-1.1619,-1.1619,-1.1619,-1.1619,-1.1619,-1.1619,-1.1619,-1.1476,-1.0743,0.0,0.0,-0.959,-0.9302,-0.9302,-0.9302,-0.9302,-0.9013,-0.7485,-0.4799,-0.2039,-0.0438,0.0,0.0,0.0,0.0,0.0,0.0,0.0,0.0,0.0,0.0,0.0,0.0,0.0,0.0,0.0071,0.1885,0.3769,0.5266,0.7296,0.9178,1.0518,1.0717,1.0717,1.0717,1.0717,1.0717,1.0717,1.0717,1.0717,1.0717,1.0717,1.0717,1.0717,1.0717,1.0717,1.0717,1.0717,1.0717,1.0717,1.0717,1.0717,1.0717,1.0717,1.0717,1.0717,1.0717,1.0717,1.0717,1.0717,1.0717,1.0717,1.0717,1.0717,1.0717,1.0717,1.0717,1.0717,0.0,0.0,0.0,0.0,0.0,0.0,0.0,0.0,0.0,0.0,0.0,0.0,0.0,0.0,0.0,0.0,-2.2334,0.0,0.0,-2.2334,-2.2297,-2.2138,-2.1502,-2.032,-1.8517,-1.6892,-1.4975,-1.2692,-1.1842,-1.1049,-1.0527,-1.075,-1.0894,-1.1044,-1.126,-1.1476,-1.1619,-1.1619,-1.1619,-1.1619,-1.1619,-1.1619,-1.1548,-1.1332,-1.1188,-1.1116,0.0,0.0,0.0,-0.959,-0.9302,-0.9302,-0.9302,-0.9302,-0.9013,-0.7485,-0.5528,-0.3567,-0.1966,-0.0802,0.0,0.0,0.0,0.0,0.0,0.0,0.0,0.0,0.0,0.0,0.0,0.0,0.0,0.0,0.1819,0.3393,0.391,0.6609,0.88,0.9256,1.0114,1.0717,1.0717,1.0717,1.0717,1.0717,1.0717,1.0717,1.0717,1.0717,1.0717,1.0717,1.0717,1.0717,1.0717,1.0717,1.0717,1.0717,1.0717,1.0717,1.0717,1.0717,1.0717,1.0717,1.0717,1.0717,1.0717,1.0717,1.0717,1.0717,1.0717,1.0717,1.0717,1.0717,1.0717,1.0717,0.0,0.0,0.0,0.0,0.0,0.0,0.0,0.0,0.0,0.0,0.0,0.0,0.0,0.0,0.0,0.0,0.0,-2.2443,0.0,0.0,-2.2334,-2.2334,-2.2102,-2.1328,-1.9734,-1.8748,-1.7169,-1.4979,-1.4115,-1.316,-1.1901,-1.2126,-1.1887,-1.1332,-1.1549,-1.1667,-1.1619,-1.1619,-1.1619,-1.1619,-1.1619,-1.1476,-1.1338,-1.1168,-1.097,0.0,0.0,0.0,0.0,-0.9535,-0.9302,-0.9302,-0.9302,-0.9302,-0.9013,-0.7485,-0.6326,-0.5165,-0.3564,-0.2039,-0.0802,-0.0802,-0.0438,0.0,0.0,0.0,0.0,0.0,0.0,0.0,0.0,0.0,0.0,0.0,0.1275,0.253,0.3134,0.5371,0.7297,0.8448,0.9407,1.018,1.0651,1.0717,1.0717,1.0717,1.0717,1.0717,1.0717,1.0717,1.0717,1.0717,1.0717,1.0717,1.0717,1.0717,1.0717,1.0717,1.0717,1.0717,1.0717,1.0717,1.0717,1.0717,1.0717,1.0717,1.0717,1.0717,1.0717,1.0717,1.0717,1.0717,1.0717,1.0717,1.0717,1.0717,0.0,0.0,0.0,0.0,0.0,0.0,0.0,0.0,0.0,0.0,0.0,0.0,0.0,0.0,0.0,0.0,0.0,0.0,0.0,0.0,0.0,-2.2334,-2.2334,-2.1574,-1.9962,-2.118,-2.0302,-1.7291,-1.8487,-1.758,-1.4638,-1.4638,-1.3738,-1.2063,-1.199,-1.1842,-1.1712,-1.164,-1.164,-1.164,-1.164,-1.1352,-1.1004,-1.1132,0.0,0.0,0.0,0.0,0.0,-0.949,-0.9302,-0.9302,-0.9302,-0.9302,-0.9013,-0.7562,-0.705,-0.6688,-0.5238,-0.3639,-0.2403,-0.233,-0.1166,-0.0073,0.0,0.0,0.0,0.0,0.0,0.0,0.0,0.0,0.0,0.0,0.0289,0.1145,0.2925,0.3558,0.4937,0.8005,0.851,0.9111,1.0452,1.0651,1.0717,1.0717,1.0717,1.0717,1.0717,1.0717,1.0717,1.0717,1.0717,1.0717,1.0717,1.0717,1.0717,1.0717,1.0717,1.0717,1.0717,1.0717,1.0717,1.0717,1.0717,1.0717,1.0717,1.0717,1.0717,1.0717,1.0717,1.0717,1.0717,1.0717,1.0717,1.0717,0.0,0.0,0.0,0.0,0.0,0.0,0.0,0.0,0.0,0.0,0.0,0.0,0.0,0.0,0.0,0.0,0.0,0.0,0.0,0.0,0.0,0.0,0.0,0.0,0.0,0.0,0.0,-1.9001,-1.8124,-1.7202,-1.6324,-1.6324,-1.6076,-1.5518,-1.4343,-1.3811,-1.3699,-1.2462,-1.1952,-1.1952,0.0,-1.1723,-1.1286,0.0,0.0,0.0,0.0,0.0,0.0,-0.9345,-0.9302,-0.9302,-0.9302,-0.9302,-0.923,-0.8796,-0.7923,-0.6906,-0.6543,-0.531,-0.3785,-0.2621,-0.2039,-0.1384,-0.0292,0.0,0.0,0.0,0.0,0.0,0.0,0.0,0.0,0.0,0.0291,0.0796,0.1575,0.2887,0.4231,0.5283,0.73,0.8706,0.9111,1.0047,1.0717,1.0717,1.0717,1.0717,1.0717,1.0717,1.0717,1.0717,1.0717,1.0717,1.0717,1.0717,1.0717,1.0717,1.0717,1.0717,1.0717,1.0717,1.0717,1.0717,1.0717,1.0717,1.0717,1.0717,1.0717,1.0717,1.0717,1.0717,1.0717,1.0717,1.0717,1.0717,0.0,0.0,0.0,0.0,0.0,0.0,0.0,0.0,0.0,0.0,0.0,0.0,0.0,0.0,0.0,0.0,0.0,0.0,0.0,0.0,0.0,0.0,0.0,0.0,0.0,0.0,0.0,0.0,0.0,0.0,-1.8154,-1.8154,-1.7724,-1.6971,-1.5349,-1.4563,-1.4416,-1.2799,0.0,0.0,0.0,0.0,0.0,0.0,0.0,0.0,0.0,0.0,0.0,-0.941,-0.9351,-0.9302,-0.9302,-0.9302,-0.9302,-0.9302,-0.8724,-0.7996,-0.7996,-0.6906,-0.5528,-0.4581,-0.3346,-0.2039,-0.1239,-0.0511,0.0,0.0,0.0,0.0,0.0,0.0,0.0,0.0,0.0365,0.0728,0.1084,0.214,0.3235,0.4228,0.6345,0.789,0.8512,0.9848,1.0717,1.0717,1.0717,1.0717,1.0717,1.0717,1.0717,1.0717,1.0717,1.0717,1.0717,1.0717,1.0717,1.0717,1.0717,1.0717,1.0717,1.0717,1.0717,1.0717,1.0717,1.0717,1.0717,1.0717,1.0717,1.0717,1.0717,1.0717,1.0717,1.0717,1.0717,1.0717,0.0,0.0,0.0,0.0,0.0,0.0,0.0,0.0,0.0,0.0,0.0,0.0,0.0,0.0,0.0,0.0,0.0,0.0,0.0,0.0,0.0,0.0,0.0,0.0,0.0,0.0,0.0,0.0,0.0,0.0,0.0,0.0,0.0,0.0,0.0,0.0,0.0,0.0,0.0,0.0,0.0,0.0,0.0,0.0,0.0,0.0,0.0,0.0,0.0,0.0,-0.9405,-0.9302,-0.9302,-0.9302,-0.9302,-0.9302,-0.9302,-0.9302,-0.9302,-0.8357,-0.7268,-0.705,-0.4944,-0.2838,-0.2401,-0.1239,-0.0219,-0.0073,0.0,0.0,0.0,0.0,0.0,0.0,0.0365,0.073,0.1168,0.1516,0.2278,0.3935,0.5322,0.6673,0.7937,0.9322,1.0187,1.0386,1.0452,1.0518,1.0717,1.0717,1.0717,1.0717,1.0717,1.0717,1.0717,1.0717,1.0717,1.0717,1.0717,1.0717,1.0717,1.0717,1.0717,1.0717,1.0717,1.0717,1.0717,1.0717,1.0717,1.0717,1.0717,1.0717,1.0717,1.0717,1.0717,1.0717,0.0,0.0,0.0,0.0,0.0,0.0,0.0,0.0,0.0,0.0,-2.376,-2.376,0.0,0.0,0.0,0.0,0.0,0.0,0.0,0.0,0.0,0.0,0.0,0.0,0.0,-2.2334,-2.2334,-2.2334,-2.2334,0.0,0.0,0.0,0.0,0.0,0.0,0.0,0.0,0.0,0.0,0.0,0.0,0.0,0.0,0.0,0.0,0.0,0.0,0.0,0.0,0.0,-0.9405,-0.9302,-0.9302,-0.9302,-0.9302,-0.9302,-0.9302,-0.9302,-0.9302,-0.9085,-0.8574,-0.734,-0.6616,-0.5525,-0.291,-0.2111,-0.153,-0.0292,0.0,0.0,0.0,0.0,0.0,0.0,0.0365,0.073,0.1168,0.1516,0.193,0.2567,0.3832,0.4795,0.5055,0.6345,0.7636,0.8839,0.8978,0.9443,1.0651,1.0717,1.0717,1.0717,1.0717,1.0717,1.0717,1.0717,1.0717,1.0717,1.0717,1.0717,1.0717,1.0717,1.0717,1.0717,1.0717,1.0717,1.0717,1.0717,1.0717,1.0717,1.0717,1.0717,1.0717,1.0717,1.0717,1.0717,0.0,0.0,0.0,0.0,0.0,0.0,0.0,-2.376,-2.376,-2.376,-2.376,-2.376,-2.376,-2.376,0.0,0.0,0.0,0.0,0.0,0.0,0.0,0.0,0.0,0.0,0.0,-2.2406,-2.2334,-2.2334,0.0,-2.2334,-2.2334,-2.2334,-2.2334,-2.2259,-2.0575,-1.8895,-1.7303,0.0,0.0,-1.2501,-1.2501,-1.2114,0.0,0.0,0.0,0.0,0.0,0.0,0.0,0.0,-0.9503,-0.9389,-0.9323,-0.9302,-0.9302,-0.9302,-0.9302,-0.9302,-0.9302,-0.9302,-0.9085,-0.8357,-0.7562,-0.6398,-0.4073,-0.291,-0.1893,-0.0292,0.0,0.0,0.0,0.0,0.0,0.0,0.0511,0.0949,0.1168,0.1669,0.209,0.2293,0.3533,0.4319,0.4327,0.5583,0.7022,0.8512,0.8573,0.9244,1.0651,1.0717,1.0717,1.0717,1.0717,1.0717,1.0717,1.0717,1.0717,1.0717,1.0717,1.0717,1.0717,1.0717,1.0717,1.0717,1.0717,1.0717,1.0717,1.0717,1.0717,1.0717,1.0717,1.0717,1.0717,1.0717,1.0717,1.0717,0.0,0.0,0.0,0.0,0.0,0.0,0.0,-2.376,-2.376,-2.376,-2.376,-2.376,-2.376,-2.376,-2.376,0.0,0.0,0.0,0.0,0.0,0.0,0.0,0.0,0.0,0.0,0.0,0.0,-2.2334,-2.2334,0.0,0.0,0.0,0.0,0.0,-2.0887,-1.9208,-1.7303,-1.6007,-1.433,0.0,0.0,-1.2192,0.0,0.0,0.0,0.0,0.0,0.0,0.0,0.0,-0.9628,-0.9503,-0.9383,-0.9323,-0.9302,-0.9302,-0.9302,-0.9302,-0.9302,-0.9302,-0.9302,-0.9302,-0.8357,-0.6978,-0.5093,-0.3712,-0.2257,-0.0365,0.0,0.0,0.0,0.0,0.0,0.0,0.0584,0.1095,0.1168,0.1751,0.2252,0.2303,0.3294,0.389,0.387,0.4875,0.6262,0.7979,0.8706,0.951,1.0651,1.0717,1.0717,1.0717,1.0717,1.0717,1.0717,1.0717,1.0717,1.0717,1.0717,1.0717,1.0717,1.0717,1.0717,1.0717,1.0717,1.0717,1.0717,1.0717,1.0717,1.0717,1.0717,1.0717,1.0717,1.0717,1.0717,1.0717,0.0,0.0,0.0,0.0,0.0,0.0,0.0,-2.376,-2.376,-2.376,-2.376,-2.376,-2.376,-2.376,-2.376,0.0,0.0,0.0,0.0,0.0,0.0,0.0,0.0,0.0,0.0,0.0,0.0,-2.2334,-2.2334,0.0,0.0,0.0,0.0,0.0,0.0,-2.0349,-1.7379,-1.7227,0.0,0.0,0.0,0.0,0.0,0.0,0.0,0.0,0.0,-1.0014,-0.9987,0.0,-0.9748,-0.9633,-0.9508,-0.9394,-0.9302,-0.9302,-0.9302,-0.9302,-0.9302,-0.9302,-0.9302,-0.9302,-0.9157,-0.8285,-0.5383,-0.4584,-0.3639,-0.0584,0.0,0.0,0.0,0.0,0.0,0.0,0.0365,0.0803,0.1168,0.1605,0.1967,0.2257,0.2377,0.249,0.2384,0.2492,0.3684,0.6372,0.9045,1.0585,1.0717,1.0717,1.0717,1.0717,1.0717,1.0717,1.0717,1.0717,1.0717,1.0717,1.0717,1.0717,1.0717,1.0717,1.0717,1.0717,1.0717,1.0717,1.0717,1.0717,1.0717,1.0717,1.0717,1.0717,1.0717,1.0717,1.0717,1.0717,0.0,0.0,0.0,0.0,0.0,0.0,-2.376,-2.376,-2.376,-2.376,-2.376,-2.376,-2.376,-2.376,-2.376,0.0,0.0,0.0,0.0,0.0,0.0,0.0,0.0,0.0,0.0,0.0,-2.2673,-2.2576,-2.2418,0.0,0.0,0.0,0.0,0.0,0.0,-1.951,-1.7303,-1.6312,0.0,0.0,0.0,0.0,0.0,0.0,0.0,0.0,0.0,0.0,-1.0003,-0.9878,-0.9807,-0.9753,-0.9633,-0.9563,-0.9497,-0.9345,-0.9356,-0.9416,-0.9416,-0.947,-0.9525,-0.9525,-0.947,-0.8601,-0.5443,-0.4754,-0.3785,-0.0657,0.0,0.0,0.0,0.0,0.0,0.0,0.0511,0.1022,0.1168,0.1751,0.2114,0.226,0.2323,0.2297,0.2179,0.2234,0.303,0.4977,0.7841,0.9443,0.9443,1.0246,1.0717,1.0717,1.0717,1.0717,1.0717,1.0717,1.0717,1.0717,1.0717,1.0717,1.0717,1.0717,1.0717,1.0717,1.0717,1.0717,1.0717,1.0717,1.0717,1.0717,1.0717,1.0717,1.0717,1.0717,1.0717,1.0717,0.0,0.0,0.0,0.0,0.0,-2.376,-2.376,-2.376,-2.376,-2.376,-2.376,-2.376,-2.376,-2.376,-2.376,-2.376,0.0,0.0,0.0,0.0,0.0,0.0,0.0,0.0,0.0,0.0,-2.2814,-2.2733,-2.2539,-2.2406,0.0,0.0,-2.2035,-2.1499,0.0,0.0,0.0,0.0,0.0,0.0,0.0,0.0,0.0,0.0,0.0,0.0,0.0,0.0,0.0,0.0,0.0,-0.9824,-0.9742,0.0,0.0,-0.9465,-0.947,-0.9541,-0.9541,-0.9606,-0.9671,-0.9671,-0.9606,-0.8721,-0.5512,-0.4799,-0.3807,-0.066,0.0,0.0,0.0,0.0,0.0,0.0,0.0,0.0949,0.1168,0.1678,0.2041,0.226,0.2333,0.2309,0.218,0.2577,0.3229,0.4241,0.6569,0.8169,0.8573,0.951,1.0253,1.0717,1.0717,1.0717,1.0717,1.0717,1.0717,1.0717,1.0717,1.0717,1.0717,1.0717,1.0717,1.0717,1.0717,1.0717,1.0717,1.0717,1.0717,1.0717,1.0717,1.0717,1.0717,1.0717,1.0717,1.0717,0.0,0.0,0.0,0.0,0.0,0.0,-2.376,-2.376,-2.376,-2.376,-2.376,-2.376,-2.376,-2.376,-2.376,-2.376,0.0,0.0,0.0,0.0,0.0,0.0,0.0,0.0,0.0,0.0,-2.3188,-2.2733,-2.2721,-2.2588,-2.2334,-2.2334,-2.1412,-1.9811,0.0,0.0,0.0,0.0,0.0,0.0,0.0,0.0,0.0,0.0,0.0,0.0,0.0,0.0,0.0,0.0,0.0,0.0,0.0,-0.9758,0.0,0.0,-0.9666,-0.9666,-0.9666,-0.9666,-0.9671,-0.9671,-0.9666,-0.8835,-0.5585,-0.4785,-0.3853,-0.0669,0.0,0.0,0.0,0.0,0.0,0.0,0.0,0.0,0.1095,0.1241,0.1459,0.2187,0.2333,0.2309,0.218,0.3488,0.4303,0.43,0.5633,0.7036,0.8507,0.864,0.9244,1.0651,1.0717,1.0717,1.0717,1.0717,1.0717,1.0717,1.0717,1.0717,1.0717,1.0717,1.0717,1.0717,1.0717,1.0717,1.0717,1.0717,1.0717,1.0717,1.0717,1.0717,1.0717,1.0717,1.0717,1.0717,0.0,0.0,0.0,0.0,0.0,0.0,0.0,-2.376,-2.376,-2.376,-2.376,-2.376,-2.376,-2.376,-2.376,-2.376,0.0,0.0,0.0,0.0,0.0,0.0,0.0,0.0,0.0,-2.3471,-2.3291,-2.32,-2.2826,-2.2685,-2.2524,-2.1192,-2.0274,-1.9736,-1.7455,-1.5625,0.0,0.0,0.0,0.0,0.0,0.0,-1.0175,0.0,0.0,0.0,0.0,0.0,0.0,0.0,0.0,0.0,0.0,0.0,0.0,-0.9911,-0.9851,0.0,-0.9786,-0.9845,-0.9911,-0.9911,-0.9845,-0.8939,-0.5657,-0.4848,-0.3904,-0.0677,0.0,0.0,0.0,0.0,0.0,0.0,0.0219,0.0,0.1095,0.1459,0.175,0.226,0.2225,0.2195,0.2176,0.26,0.2894,0.2894,0.4166,0.557,0.7036,0.8035,0.9244,1.0651,1.0717,1.0717,1.0717,1.0717,1.0717,1.0717,1.0717,1.0717,1.0717,1.0717,1.0717,1.0717,1.0717,1.0717,1.0717,1.0717,1.0717,1.0717,1.0717,1.0717,1.0717,1.0717,1.0717,1.0717,0.0,0.0,0.0,0.0,0.0,0.0,0.0,-2.376,-2.376,-2.376,-2.376,-2.376,-2.376,-2.376,-2.376,-2.376,0.0,0.0,0.0,0.0,0.0,0.0,0.0,0.0,-2.376,-2.3604,-2.3471,-2.3375,-2.3019,-2.283,-2.2645,-2.0687,-1.9434,-1.8517,-1.5854,-1.4014,0.0,0.0,0.0,0.0,0.0,0.0,-1.0019,0.0,0.0,0.0,0.0,0.0,0.0,0.0,0.0,0.0,0.0,0.0,0.0,0.0,-0.9965,0.0,0.0,-0.9965,-1.0019,-1.0019,-0.9965,-0.9054,-0.5729,-0.491,-0.3955,-0.0686,0.0,0.0,0.0,0.0,0.0,0.0,0.0219,0.0584,0.1095,0.1386,0.175,0.226,0.2292,0.2258,0.2176,0.22,0.2166,0.2223,0.3026,0.4099,0.5499,0.6969,0.844,0.9848,1.0452,1.0717,1.0717,1.0717,1.0717,1.0717,1.0717,1.0717,1.0717,1.0717,1.0717,1.0717,1.0717,1.0717,0.0,1.0717,1.0717,1.0717,1.0717,1.0717,1.0717,1.0717,1.0717,1.0717,0.0,0.0,0.0,0.0,0.0,0.0,0.0,-2.376,-2.376,-2.376,-2.376,-2.376,-2.376,-2.376,-2.376,-2.36,0.0,0.0,0.0,0.0,0.0,0.0,0.0,0.0,-2.376,-2.376,-2.364,-2.3399,-2.3188,-2.2911,-2.2517,-2.0547,-1.8517,-1.6532,-1.4859,-1.279,0.0,0.0,0.0,0.0,-1.0019,-1.0019,0.0,0.0,0.0,0.0,0.0,0.0,0.0,0.0,0.0,0.0,0.0,0.0,0.0,0.0,0.0,0.0,0.0,-1.0019,-1.0019,-1.0019,-1.0019,-0.9158,-0.5796,-0.497,0.0,-0.0694,0.0,0.0,0.0,0.0,0.0,0.0,0.0,0.0292,0.1095,0.1241,0.1532,0.2187,0.2308,0.2279,0.2178,0.2218,0.2188,0.2224,0.2223,0.2827,0.4233,0.5633,0.7031,0.8374,0.9915,1.0717,1.0717,1.0717,1.0717,1.0717,1.0717,1.0717,1.0717,1.0717,1.0717,1.0717,1.0717,1.0717,1.0717,1.0717,1.0717,1.0717,1.0717,1.0717,1.0717,1.0717,1.0717,1.0717,0.0,0.0,0.0,0.0,0.0,0.0,0.0,0.0,0.0,0.0,-2.376,-2.376,-2.376,-2.376,-2.3267,0.0,0.0,0.0,0.0,0.0,0.0,0.0,0.0,0.0,-2.376,-2.376,-2.3736,-2.3676,-2.3273,-2.2388,-2.1068,-1.8622,-1.6532,-1.4782,-1.2867,-1.1488,0.0,0.0,0.0,0.0,-1.0019,-1.0019,0.0,0.0,0.0,0.0,-1.0019,-1.0019,0.0,0.0,0.0,0.0,0.0,0.0,0.0,0.0,-1.0019,0.0,-1.0019,0.0,-1.0019,-1.0019,-1.0019,-0.9158,0.0,-0.5003,-0.4046,-0.0695,0.0,0.0,0.0,0.0,0.0,0.0,0.0,0.0292,0.1095,0.1678,0.2114,0.226,0.2308,0.2279,0.2178,0.2218,0.2188,0.2224,0.2223,0.2827,0.4233,0.5633,0.6564,0.6898,0.9377,1.0717,1.0717,1.0717,1.0717,1.0717,1.0717,1.0717,1.0717,1.0717,1.0717,1.0717,1.0717,1.0717,1.0717,1.0717,1.0717,1.0717,1.0717,1.0717,1.0717,1.0717,1.0717,1.0717,0.0,0.0,0.0,0.0,0.0,0.0,0.0,0.0,0.0,0.0,0.0,0.0,0.0,0.0,0.0,0.0,0.0,0.0,0.0,0.0,0.0,0.0,0.0,-2.2614,-2.2614,-2.1797,-2.1797,-2.2614,-2.139,-2.0288,-1.9338,-1.6798,-1.5081,-1.3938,-1.1714,-1.0563,-1.033,-1.0097,-1.0019,-1.0019,-1.0019,0.0,0.0,0.0,0.0,0.0,-1.0019,-1.0019,0.0,-1.0019,-1.0019,-1.0019,0.0,0.0,0.0,0.0,-1.0019,-1.0019,-1.0019,-1.0019,-1.0019,-1.0019,-1.0019,-0.9158,-0.5796,-0.5014,-0.4061,-0.0696,0.0,0.0,0.0,0.0,0.0,0.0,0.0,0.0292,0.1095,0.1824,0.2333,0.2333,0.2319,0.2293,0.2179,0.223,0.2203,0.2225,0.2223,0.2558,0.3295,0.4699,0.5432,0.5432,0.824,0.9715,0.9715,1.0386,1.0717,1.0717,1.0717,1.0717,1.0717,1.0717,1.0717,1.0717,1.0717,1.0717,1.0717,1.0717,1.0717,1.0717,1.0717,1.0717,1.0717,1.0717,1.0717,1.0717,0.0,0.0,0.0,0.0,0.0,0.0,0.0,0.0,0.0,0.0,0.0,0.0,0.0,0.0,0.0,0.0,0.0,0.0,0.0,0.0,0.0,0.0,-1.9755,-2.0818,-2.0818,-1.9359,-1.9267,-2.0727,-1.8837,-1.7766,-1.7353,-1.5175,-1.3784,-1.3014,-1.0946,-1.0019,-1.0019,-1.0019,-1.0019,-1.0019,-1.0019,0.0,0.0,0.0,0.0,0.0,0.0,0.0,0.0,-1.0019,-1.0019,-1.0019,-1.0019,0.0,0.0,0.0,0.0,0.0,-1.0019,-1.0019,-1.0019,-1.0019,-1.0019,-0.9158,-0.6108,-0.5162,-0.4128,-0.1001,-0.0152,0.0,0.0,0.0,0.0,0.0,0.0073,0.0438,0.1095,0.1824,0.2333,0.2333,0.2333,0.2309,0.218,0.2175,0.2221,0.2227,0.2223,0.2223,0.2223,0.3564,0.4233,0.3964,0.6973,0.8507,0.824,0.9915,1.0717,1.0717,1.0717,1.0717,1.0717,1.0717,1.0717,1.0717,1.0717,1.0717,1.0717,1.0717,1.0717,1.0717,1.0717,1.0717,1.0717,1.0717,1.0717,1.0717,0.0,0.0,0.0,0.0,0.0,0.0,0.0,0.0,0.0,0.0,0.0,0.0,0.0,0.0,0.0,0.0,0.0,0.0,0.0,0.0,0.0,-1.43,-1.7319,-1.9024,-1.9024,-1.8708,-1.8535,-1.8454,-1.7793,-1.6573,-1.482,-1.3778,-1.232,-1.0558,-1.0175,-1.0019,-1.0019,-1.0019,-1.0019,-1.0019,-1.0019,0.0,0.0,0.0,0.0,0.0,0.0,0.0,0.0,-1.0019,-1.0019,-1.0019,-1.0019,0.0,0.0,0.0,0.0,0.0,-1.0019,-1.0019,-1.0019,-1.0019,-1.0019,-0.947,-0.7595,-0.5981,-0.446,-0.2508,-0.0978,0.0,0.0,0.0,0.0,0.0,0.0584,0.1095,0.1168,0.1824,0.2333,0.2333,0.2333,0.2309,0.218,0.2175,0.2221,0.2227,0.2223,0.2223,0.2223,0.3564,0.3765,0.2558,0.6502,0.7969,0.6765,0.9377,1.0717,1.0717,1.0717,1.0717,1.0717,1.0717,1.0717,1.0717,1.0717,1.0717,1.0717,1.0717,1.0717,1.0717,1.0717,1.0717,1.0717,1.0717,1.0717,1.0717,0.0,0.0,0.0,0.0,0.0,0.0,0.0,0.0,0.0,0.0,0.0,0.0,0.0,0.0,0.0,0.0,0.0,0.0,0.0,0.0,-1.4217,-1.3397,-1.4706,-1.6008,-1.7147,-1.6008,-1.5795,-1.6512,-1.5041,-1.3764,-1.2807,-1.2044,-1.1095,-1.0019,-1.0019,-1.0019,-1.0019,-1.0019,-1.0019,-1.0019,0.0,0.0,0.0,0.0,0.0,0.0,0.0,0.0,0.0,0.0,-1.0019,-1.0019,-1.0019,0.0,0.0,0.0,0.0,0.0,-1.0019,-1.0019,-1.0019,-1.0019,-1.0019,-0.9532,-0.7761,-0.6792,-0.5507,-0.2931,-0.1789,-0.0962,-0.0146,0.0,0.0,0.0,0.0657,0.1168,0.1168,0.1824,0.2333,0.2333,0.2333,0.2316,0.2274,0.2255,0.2226,0.2183,0.2231,0.2223,0.2223,0.2827,0.2894,0.2223,0.5566,0.7102,0.6431,0.9244,1.0717,1.0717,1.0717,1.0765,1.0846,1.0846,1.0887,1.0962,1.0962,1.0962,1.0962,1.0962,1.0914,1.0846,1.0846,1.0792,1.0717,1.0717,1.0717,1.0717,0.0,0.0,0.0,0.0,0.0,0.0,0.0,0.0,0.0,0.0,0.0,0.0,0.0,0.0,0.0,0.0,0.0,0.0,0.0,0.0,-1.3148,-1.3072,-1.2733,-1.339,-1.5193,-1.3473,-1.315,-1.429,-1.2453,-1.1426,-1.11,-1.0687,-1.033,-1.0019,-1.0019,-1.0019,-1.0019,-1.0019,-1.0019,-1.0019,0.0,0.0,0.0,0.0,0.0,0.0,0.0,0.0,0.0,0.0,0.0,0.0,0.0,0.0,0.0,-1.0019,-1.0019,-1.0019,-1.0019,-1.0019,-1.0019,-1.0019,-0.9998,-0.9562,-0.8238,-0.7574,-0.6445,-0.3499,-0.259,-0.1842,-0.0292,0.0,0.0,0.0,0.0657,0.1168,0.1168,0.1824,0.2333,0.2333,0.2333,0.2322,0.2293,0.227,0.224,0.2203,0.2178,0.223,0.2223,0.2223,0.2223,0.2223,0.4964,0.6443,0.6464,0.9291,1.0772,1.0772,1.0772,1.0853,1.0995,1.0995,1.1056,1.1234,1.1234,1.1234,1.1234,1.1234,1.1097,1.0995,1.0894,1.0786,1.0717,1.0717,1.0717,1.0717,0.0,0.0,0.0,0.0,0.0,0.0,0.0,0.0,0.0,0.0,0.0,0.0,0.0,0.0,0.0,0.0,0.0,0.0,0.0,0.0,-1.2567,-1.2235,-1.2152,-1.2401,-1.2899,-1.2401,-1.1919,-1.1452,-1.1167,-1.0742,-1.0114,-1.0025,-1.0019,-1.0019,-1.0019,-1.0019,-1.0019,-1.0019,-1.0019,-1.0019,-1.0019,0.0,0.0,0.0,0.0,0.0,0.0,0.0,0.0,0.0,0.0,0.0,0.0,0.0,-1.0019,-1.0019,-1.0019,-1.0019,-1.0019,-1.0019,-1.0019,-1.0019,-0.9932,-0.9769,-0.9687,-0.8384,-0.6685,-0.4966,-0.3378,-0.1822,-0.0292,0.0,0.0,0.0,0.0657,0.1168,0.1168,0.1824,0.2333,0.2333,0.2333,0.2322,0.2293,0.2289,0.2263,0.2204,0.2198,0.2184,0.2224,0.2223,0.2223,0.2223,0.4964,0.6472,0.6698,0.9493,1.0867,1.0867,1.0867,1.1009,1.1145,1.1145,1.122,1.1234,1.1234,1.1234,1.1234,1.1234,1.1158,1.1131,1.1002,1.0786,1.0717,1.0717,1.0717,1.0717,0.0,0.0,0.0,0.0,0.0,0.0,0.0,0.0,0.0,0.0,0.0,0.0,0.0,0.0,0.0,0.0,0.0,0.0,0.0,-1.2318,-1.2235,-1.2069,-1.1819,-1.1736,-1.1902,-1.1736,-1.147,-1.1097,-1.0571,-1.0269,-1.0019,-1.0019,-1.0019,-1.0019,-1.0019,-1.0019,-1.0019,-1.0019,-1.0019,-1.0019,-1.0019,-1.0019,0.0,0.0,0.0,0.0,0.0,0.0,0.0,0.0,-1.0019,-1.0019,-1.0019,-1.0019,-1.0019,-1.0019,-1.0019,-1.0019,-1.0019,-1.0019,-1.0003,-0.9927,-0.9818,-0.9731,-0.9731,-0.8407,-0.7027,-0.6308,-0.4087,-0.182,-0.0292,0.0,0.0,0.0,0.0657,0.1168,0.1168,0.1824,0.2333,0.2333,0.2333,0.2328,0.2318,0.2301,0.2281,0.2259,0.2238,0.2215,0.2184,0.2183,0.2183,0.2183,0.503,0.663,0.6725,0.9623,1.1131,1.1226,1.1131,1.1158,1.1307,1.1307,1.1355,1.145,1.145,1.145,1.145,1.145,1.1389,1.1287,1.1138,1.0989,1.0793,1.0793,1.0806,1.0717,0.0,0.0,0.0,0.0,0.0,0.0,0.0,0.0,0.0,0.0,0.0,0.0,0.0,0.0,0.0,0.0,0.0,0.0,-1.1902,-1.1902,-1.1819,-1.1653,-1.132,-1.1153,-1.1153,-1.1197,-1.1077,-1.0786,-1.0296,-1.0019,-1.0019,-1.0019,-1.0019,-1.0019,-1.0019,-1.0019,-1.0019,-1.0019,-1.0019,-1.0019,-1.0019,-1.0019,0.0,0.0,0.0,0.0,0.0,0.0,0.0,0.0,-1.0019,-1.0019,-1.0019,-1.0019,-1.0019,-1.0019,-1.0019,-1.0019,-1.0019,-1.0019,-0.9992,-0.9867,-0.9753,-0.9661,-0.9622,-0.8701,-0.7568,-0.6482,-0.3782,-0.1239,-0.0219,0.0,0.0,0.0,0.0657,0.1168,0.1168,0.1824,0.2333,0.2333,0.2333,0.2333,0.2333,0.2315,0.23,0.2292,0.2271,0.2247,0.2217,0.2214,0.2214,0.2214,0.5103,0.6725,0.6749,0.9759,1.1314,1.1463,1.1355,1.1362,1.1463,1.1463,1.1518,1.1619,1.1619,1.1619,1.1619,1.1619,1.1531,1.1382,1.1274,1.1118,1.088,1.0399,1.0168,0.9981,0.0,0.0,0.0,0.0,0.0,0.0,0.0,0.0,0.0,0.0,0.0,0.0,0.0,0.0,0.0,0.0,0.0,0.0,-1.1403,-1.1403,-1.1153,-1.0737,-1.0737,-1.0737,-1.0737,-1.0617,-1.0498,-1.0384,-1.0139,-1.0019,-1.0019,-1.0019,-1.0019,-1.0019,-1.0019,-1.0019,-1.0019,-1.0019,-1.0019,-1.0019,-1.0019,-1.0019,-1.0019,0.0,0.0,0.0,0.0,0.0,0.0,0.0,-1.0019,-1.0019,-1.0019,0.0,-1.0019,-1.0019,-1.0019,-1.0019,-1.0019,-1.0019,-0.9992,-0.9867,-0.9753,-0.9639,-0.9514,-0.9389,-0.843,-0.531,-0.2186,0.0,0.0,0.0,0.0,0.0,0.0657,0.1168,0.1168,0.1824,0.226,0.2333,0.2333,0.2333,0.2333,0.2333,0.2322,0.2293,0.2292,0.2278,0.2178,0.2175,0.2175,0.2175,0.5105,0.6749,0.6914,0.9901,1.147,1.1619,1.1619,1.1619,1.1619,1.1619,1.1619,1.1619,1.1619,1.1619,1.1619,1.1619,1.1531,1.1396,1.1396,1.1212,1.0677,0.9307,0.8682,0.8374,0.0,0.0,0.0,0.0,0.0,0.0,0.0,0.0,0.0,0.0,0.0,0.0,0.0,0.0,0.0,0.0,0.0,0.0,-1.0904,-1.0904,-1.082,-1.0737,-1.0737,-1.0699,-1.0612,-1.0411,-1.0291,-1.0259,-1.0095,-1.0019,-1.0019,-1.0019,-1.0019,-1.0019,-1.0019,-1.0019,-1.0019,-1.0019,-1.0019,-1.0019,-1.0019,-1.0019,-1.0019,0.0,0.0,0.0,0.0,0.0,0.0,0.0,0.0,0.0,-1.0019,0.0,-1.0019,-1.0019,-1.0019,-1.0019,-1.0019,-1.0019,-0.997,-0.9769,-0.9693,-0.9617,-0.9405,-0.8454,-0.6761,-0.3637,-0.2257,-0.1311,-0.0219,0.0,0.0,0.0,0.0438,0.0876,0.1168,0.1605,0.2041,0.226,0.2333,0.2333,0.2333,0.2333,0.233,0.232,0.232,0.2308,0.2279,0.2277,0.2277,0.2277,0.5251,0.6914,0.7001,1.003,1.1572,1.1619,1.1619,1.1619,1.1619,1.1619,1.1619,1.1619,1.1619,1.1619,1.1619,1.1619,1.1592,1.1552,1.1552,1.0786,0.9556,0.9123,0.8186,0.7062,0.0,0.0,0.0,0.0,0.0,0.0,0.0,0.0,0.0,0.0,-1.1153,-1.1153,0.0,0.0,0.0,0.0,0.0,0.0,0.0,-1.0737,-1.0737,-1.0737,-1.0688,-1.0585,-1.0416,-1.0275,-1.0177,-1.0128,-1.0057,-1.0019,-1.0019,-1.0019,-1.0019,-1.0019,-1.0019,-1.0019,-1.0019,-1.0019,-1.0019,-1.0019,-1.0019,-1.0019,-1.0014,0.0,0.0,0.0,0.0,0.0,0.0,0.0,0.0,0.0,-1.0019,0.0,-1.0019,-1.0019,-1.0019,-1.0019,-1.0019,-1.0019,-0.9976,-0.9786,-0.9704,-0.9457,-0.8557,-0.7195,-0.538,-0.2838,-0.182,-0.1093,-0.0146,0.0,0.0,0.0,0.0365,0.073,0.1168,0.1532,0.1895,0.226,0.2333,0.2333,0.2333,0.2333,0.2333,0.2333,0.2333,0.2326,0.2308,0.2308,0.2308,0.2308,0.532,0.6989,0.697,1.0089,1.1619,1.1619,1.1619,1.1619,1.1619,1.1619,1.1619,1.1619,1.1619,1.1619,1.1619,1.1619,1.1253,1.0671,1.0671,0.9649,0.8111,0.7481,0.6541,0.5543,0.0,0.0,0.0,0.0,0.0,0.0,0.0,0.0,0.0,0.0,-1.0737,-1.0737,0.0,0.0,0.0,0.0,0.0,0.0,0.0,0.0,-1.0732,-1.0721,-1.0596,-1.0422,-1.021,-1.0193,-1.0134,-1.0019,-1.0019,-1.0019,-1.0019,-1.0019,-1.0019,-1.0019,-1.0019,-1.0019,-1.0019,-1.0019,-1.0019,-1.0019,-1.0019,-1.0014,-0.9992,-0.9878,0.0,0.0,0.0,0.0,0.0,0.0,0.0,0.0,-1.0019,-1.0019,-1.0019,-1.0019,-1.0019,-1.0019,-1.0019,-1.0019,-0.9992,-0.9867,-0.9748,-0.9143,-0.725,-0.5677,-0.4221,-0.2621,-0.1094,0.0,0.0,0.0,0.0,0.0,0.0292,0.073,0.1168,0.1532,0.1895,0.226,0.2333,0.2333,0.2333,0.2333,0.2333,0.2333,0.2333,0.2333,0.2333,0.2333,0.2333,0.2333,0.5377,0.697,0.697,1.0089,1.1619,1.1619,1.1619,1.1619,1.1619,1.1619,1.1619,1.1619,1.1619,1.1619,1.1619,1.1619,1.0743,0.9507,0.9363,0.8289,0.6638,0.5137,0.4429,0.3925,0.0,0.0,0.0,0.0,0.0,0.0,0.0,0.0,0.0,0.0,0.0,0.0,0.0,0.0,0.0,0.0,0.0,0.0,0.0,0.0,-1.0693,-1.0601,-1.0394,-1.0253,-1.0204,-1.0106,-1.0047,-1.0019,-1.0019,-1.0019,-1.0019,-1.0019,-1.0019,-1.0019,-1.0019,-1.0019,-1.0019,-1.0019,-1.0019,-1.0019,-1.0019,-0.9965,-0.9873,-0.9845,-0.9796,0.0,0.0,0.0,0.0,0.0,0.0,0.0,-1.0019,-1.0019,-1.0019,-1.0019,-1.0019,-1.0019,-1.0019,-1.0019,-0.9992,-0.9867,-0.9682,-0.8765,-0.591,-0.4982,-0.4221,-0.2621,-0.1094,0.0,0.0,0.0,0.0,0.0,0.0073,0.0365,0.1095,0.1241,0.1605,0.2187,0.2333,0.2333,0.2333,0.2333,0.2333,0.2333,0.2333,0.2333,0.2333,0.2333,0.2333,0.2333,0.5377,0.697,0.697,1.0089,1.1619,1.1619,1.1619,1.1619,1.1619,1.1619,1.1619,1.1619,1.1619,1.1619,1.1619,1.1619,1.1404,1.0966,0.9801,0.8333,0.6789,0.5155,0.3772,0.2689,0.0,0.0,0.0,0.0,0.0,0.0,0.0,0.0,0.0,0.0,0.0,0.0,0.0,0.0,0.0,0.0,0.0,0.0,0.0,0.0,-1.0574,-1.0394,-1.0269,-1.0177,-1.0117,-1.0052,-1.0019,-1.0019,-1.0019,-1.0019,-1.0019,-1.0019,-1.0019,-1.0019,-1.0019,-1.0019,-1.0019,-1.0019,-0.9987,-0.9932,-0.9932,-0.9862,-0.9753,-0.9693,-0.9671,-0.9671,-0.9671,0.0,0.0,0.0,0.0,0.0,0.0,0.0,-1.0019,-1.0019,-1.0019,-1.0019,-1.0019,-1.0019,-0.9992,-0.9867,-0.9742,-0.902,-0.6537,-0.5308,-0.425,-0.2624,-0.1094,0.0,0.0,0.0,0.0,0.0,0.0,0.0219,0.0803,0.1095,0.1387,0.1968,0.2187,0.2333,0.2333,0.2333,0.2333,0.2333,0.2333,0.2333,0.2333,0.2333,0.2333,0.2333,0.5377,0.697,0.697,1.0089,1.1619,1.1619,1.1619,1.1619,1.1619,1.1619,1.1619,1.1619,1.1619,1.1619,1.1548,1.0815,1.0089,0.9219,0.7697,0.6105,0.4651,0.3828,0.3018,0.2286,0.0,0.0,0.0,0.0,0.0,0.0,0.0,0.0,0.0,0.0,0.0,0.0,0.0,0.0,0.0,0.0,0.0,0.0,0.0,0.0,0.0,-1.021,-1.0182,-1.0123,-1.0025,-1.0019,-1.0019,-1.0019,-1.0019,-1.0019,-1.0019,-1.0019,-1.0019,-1.0019,-1.0019,-1.0019,-1.0019,-0.9998,-0.9932,-0.9835,-0.9818,-0.9742,-0.9628,-0.9525,-0.9536,-0.9595,-0.9514,0.0,-0.978,-0.9824,0.0,0.0,0.0,0.0,-1.0019,-1.0019,-1.0019,-1.0019,-1.0019,-1.0019,-0.9998,-0.9894,-0.9851,-0.933,-0.7642,-0.5944,-0.4433,-0.2999,-0.1241,0.0,0.0,0.0,0.0,0.0,0.0,0.0146,0.0657,0.1022,0.1386,0.1822,0.2114,0.2333,0.2333,0.2333,0.2333,0.2333,0.2333,0.2333,0.2333,0.2333,0.2333,0.2333,0.5377,0.697,0.697,1.0089,1.1619,1.1619,1.1619,1.1619,1.1619,1.1619,1.1619,1.1619,1.1619,1.1619,1.1476,1.0233,0.8781,0.7259,0.567,0.4148,0.2697,0.2405,0.2318,0.2297,0.0,0.0,0.0,0.0,0.0,0.0,0.0,0.0,0.0,0.0,-1.0737,-1.0737,0.0,0.0,0.0,0.0,0.0,0.0,0.0,0.0,0.0,-1.0204,-1.0101,-1.0036,-1.0019,-1.0019,-1.0019,-1.0019,-1.0019,-1.0019,-1.0019,-1.0019,-1.0019,-1.0019,-1.0019,-1.0019,-1.0014,-0.9905,-0.9851,-0.9829,-0.9731,-0.9617,-0.9508,-0.9492,-0.9432,-0.9362,-0.9454,-0.9508,-0.9563,-0.9769,-0.9851,0.0,0.0,0.0,-1.0019,-1.0019,-1.0019,-1.0019,-1.0019,-1.0019,-1.0014,-1.0003,-0.9916,-0.9371,-0.7807,-0.6094,-0.4739,-0.4509,-0.2054,0.0,0.0,0.0,0.0,0.0,0.0,0.0292,0.1022,0.1168,0.146,0.2187,0.226,0.2333,0.2333,0.2333,0.2333,0.2333,0.2333,0.2333,0.2333,0.2333,0.2333,0.2333,0.5377,0.697,0.697,1.0089,1.1619,1.1619,1.1619,1.1619,1.1619,1.1619,1.1619,1.1619,1.1619,1.1619,1.1548,1.1404,1.0383,0.8853,0.7259,0.5742,0.4221,0.2842,0.233,0.2323,0.0,0.0,0.0,0.0,0.0,0.0,0.0,0.0,0.0,0.0,0.0,-1.0737,0.0,0.0,0.0,0.0,0.0,0.0,0.0,0.0,0.0,0.0,-1.0047,-1.0019,-1.0019,-1.0019,-1.0019,-1.0019,-1.0019,-1.0019,-1.0019,-1.0019,-1.0019,-1.0019,-1.0019,-1.0019,-1.0014,-0.9889,-0.9264,-0.8436,-0.9238,-0.8976,-0.8066,-0.8066,-0.8038,-0.7928,-0.7096,-0.6848,-0.7047,-0.8029,-0.8436,-0.8693,-0.9592,0.0,0.0,0.0,-1.0019,-1.0019,-1.0019,-1.0019,-1.0019,-1.0019,-0.9981,-0.9459,-0.7774,-0.6097,-0.4909,-0.4798,-0.2228,-0.0294,-0.1095,-0.0583,0.0,0.0,0.0,0.0219,0.0803,0.1022,0.1387,0.1968,0.2187,0.2333,0.2333,0.2333,0.2333,0.2333,0.2333,0.2333,0.2333,0.2333,0.2333,0.2333,0.5377,0.697,0.697,1.0089,1.1619,1.1619,1.1619,1.1619,1.1619,1.1619,1.1619,1.1619,1.1619,1.1619,1.1476,0.9723,0.8636,0.7765,0.5304,0.393,0.3278,0.2551,0.2333,0.2331,0.0,0.0,0.0,0.0,0.0,0.0,0.0,0.0,0.0,0.0,0.0,0.0,0.0,0.0,0.0,0.0,0.0,0.0,0.0,0.0,0.0,0.0,0.0,-1.0019,-1.0019,-1.0019,-1.0019,-1.0019,-1.0019,-1.0019,-1.0019,-1.0019,-1.0019,-1.0019,-1.0019,-1.0003,-0.9888,-0.9381,-0.8431,-0.7352,-0.8003,-0.7551,-0.6398,-0.6398,-0.6398,-0.6253,-0.5093,-0.4757,-0.4943,-0.6145,-0.6675,-0.7089,-0.8745,-0.928,0.0,0.0,0.0,-1.0019,-1.0019,-1.0019,-1.0019,-1.0019,-1.0019,-0.9682,-0.8279,-0.678,-0.5599,-0.5471,-0.2857,-0.0967,-0.2126,-0.1022,0.0,0.0,0.0,0.0146,0.0511,0.0949,0.1313,0.175,0.2114,0.2333,0.2333,0.2333,0.2333,0.2333,0.2333,0.2333,0.2333,0.2333,0.2333,0.2333,0.5377,0.697,0.697,1.0089,1.1619,1.1619,1.1619,1.1619,1.1619,1.1619,1.1619,1.1619,1.1619,1.1619,1.1404,0.8709,0.7331,0.6753,0.4003,0.2697,0.2333,0.2333,0.2333,0.2333,0.0,0.0,0.0,0.0,0.0,0.0,0.0,0.0,0.0,0.0,0.0,0.0,-1.0579,-1.0558,-1.0514,-1.0405,-1.0286,0.0,0.0,0.0,0.0,0.0,0.0,0.0,-1.0019,-1.0019,-1.0019,-1.0019,-1.0019,-1.0019,-1.0019,-1.0019,-1.0019,-1.0019,-1.0019,-0.9954,-0.9687,-0.812,-0.7348,-0.7043,-0.5564,-0.4878,-0.4802,-0.4802,-0.4802,-0.4802,-0.4729,-0.4732,-0.4743,-0.4872,-0.4969,-0.5218,-0.7021,-0.7612,-0.794,0.0,0.0,0.0,-1.0019,-1.0019,-1.0019,-1.0019,-1.0019,-0.9942,-0.9853,-0.8601,-0.7302,-0.7217,-0.4641,-0.2334,-0.2303,-0.1029,0.0,0.0,0.0,0.0146,0.0511,0.0949,0.1313,0.175,0.2114,0.2333,0.2333,0.2333,0.2333,0.2333,0.2333,0.2333,0.2333,0.2333,0.2333,0.2333,0.5377,0.697,0.697,1.0089,1.1619,1.1619,1.1619,1.1619,1.1619,1.1619,1.1619,1.1619,1.1619,1.1619,1.1476,0.9873,0.8348,0.6825,0.5235,0.3641,0.2333,0.2333,0.2333,0.2333,0.0,0.0,0.0,0.0,0.0,0.0,0.0,0.0,0.0,0.0,0.0,0.0,0.0,-1.0422,-1.0313,-1.0275,-1.0155,0.0,0.0,0.0,0.0,0.0,0.0,0.0,-1.0019,-1.0019,-1.0019,-1.0019,-1.0019,-1.0019,-1.0019,-1.0019,-1.0019,-1.0019,-1.0019,-0.9954,-0.9676,-0.804,-0.6668,-0.5625,-0.4973,-0.4075,-0.3128,-0.3128,-0.3128,-0.3057,-0.204,-0.1676,-0.1822,-0.2854,-0.324,-0.364,-0.5242,-0.5846,-0.6012,-0.6633,-0.7517,-0.8141,-0.7045,-0.7591,-0.8375,-0.8375,-0.8375,-0.8141,-0.7045,-0.7178,-0.6844,-0.4668,-0.4162,-0.3742,-0.2663,-0.1123,0.0,0.0,0.0,0.0146,0.0511,0.073,0.1094,0.175,0.1895,0.2041,0.226,0.2333,0.2333,0.2333,0.2333,0.2333,0.2333,0.2333,0.2333,0.2333,0.5377,0.7982,0.9945,1.1038,1.1619,1.1619,1.1619,1.1619,1.1619,1.1619,1.1619,1.1619,1.1619,1.1038,1.0017,0.8492,0.6898,0.538,0.3785,0.2842,0.2333,0.2333,0.2333,0.2333,0.0,0.0,0.0,0.0,0.0,0.0,0.0,0.0,0.0,-1.0677,0.0,0.0,0.0,0.0,-1.0188,-1.0144,-1.0068,-1.0019,-1.0019,-1.0019,0.0,0.0,0.0,0.0,-1.0019,-1.0019,-1.0019,-1.0019,-1.0019,-1.0019,-1.0019,-1.0019,-1.0019,-0.9942,-0.9434,-0.9116,-0.8854,-0.716,-0.5509,-0.39,-0.336,-0.2475,-0.153,-0.153,-0.153,-0.1384,-0.0365,0.0,-0.0146,-0.1166,-0.1612,-0.192,-0.3555,-0.4512,-0.4978,-0.5017,-0.5819,-0.6382,-0.5295,-0.5777,-0.6655,-0.6655,-0.6655,-0.6342,-0.5248,-0.5874,-0.587,-0.3055,-0.3424,-0.3633,-0.2005,-0.0761,0.0,0.0,0.0,0.0073,0.0365,0.0511,0.0875,0.1532,0.175,0.1968,0.226,0.2333,0.2333,0.2333,0.2333,0.2333,0.2333,0.2333,0.2768,0.3857,0.5884,0.8492,1.1548,1.1619,1.1619,1.1619,1.1619,1.1619,1.1619,1.1619,1.1619,1.1619,1.1619,1.0743,0.9147,0.7621,0.6101,0.4511,0.2914,0.2333,0.2333,0.2333,0.2333,0.2333,0.0,0.0,0.0,0.0,0.0,0.0,0.0,0.0,-1.0634,-1.0552,0.0,0.0,0.0,0.0,0.0,-1.003,-1.0019,-1.0019,-1.0019,-1.0019,0.0,0.0,0.0,0.0,-1.0019,-1.0019,-1.0019,-1.0019,-1.0019,-1.0019,-1.0019,-1.0019,-0.9942,-0.9853,-0.8189,-0.7401,-0.7081,-0.5435,-0.3827,-0.2184,-0.0656,0.0,0.0,0.0,0.0,0.0,0.0,0.0,0.0,0.0,0.0,-0.0292,-0.1923,-0.3515,-0.4831,-0.4831,-0.4875,-0.4921,0.0,0.0,0.0,-0.4933,-0.4933,-0.4933,-0.4936,-0.4936,-0.4544,-0.282,-0.2507,-0.203,-0.0309,-0.0077,-0.0077,0.0,0.0,0.0,0.0,0.0365,0.073,0.1168,0.1532,0.1895,0.226,0.2333,0.2333,0.2333,0.2333,0.2333,0.2333,0.2333,0.3712,0.6898,0.697,0.8492,1.1548,1.1619,1.1619,1.1619,1.1619,1.1619,1.1619,1.1619,1.1619,1.1619,1.1548,1.0671,0.9147,0.7621,0.6029,0.4439,0.2914,0.2333,0.2333,0.2333,0.2333,0.2333,0.0,0.0,0.0,0.0,0.0,0.0,0.0,-1.0574,-1.0607,0.0,0.0,0.0,-1.021,-1.0123,-1.0057,-1.0025,-1.0019,-1.0019,-1.0019,-1.0019,-1.0019,-1.0019,-1.0019,-1.0019,-1.0019,-1.0019,-1.0019,-1.0019,-1.0019,-1.0019,-1.0019,-1.0019,-0.9351,-0.8184,-0.7625,-0.6026,-0.3801,-0.3343,-0.2797,-0.2184,-0.0656,0.0,0.0,0.0,0.0,0.0,0.0,0.0,0.0,0.0,0.0,-0.0073,-0.0518,-0.1043,-0.1346,-0.1358,-0.2274,-0.2964,-0.1749,0.0,0.0,0.0,0.0,0.0,-0.3206,-0.4151,-0.4153,-0.1255,-0.2587,-0.3445,-0.0547,-0.1008,-0.1384,-0.0229,0.0,0.0,0.0,0.0074,0.0443,0.1096,0.1313,0.1605,0.226,0.2333,0.2333,0.2333,0.2333,0.2333,0.2333,0.2333,0.3712,0.6898,0.697,0.8492,1.1548,1.1619,1.1619,1.1619,1.1619,1.1619,1.1619,1.1619,1.1619,1.1548,1.0455,0.9069,0.7621,0.7187,0.538,0.2914,0.2478,0.2333,0.2333,0.2333,0.2333,0.2333,0.0,0.0,0.0,0.0,0.0,0.0,-1.0498,-1.0443,-1.0384,0.0,0.0,0.0,-1.0128,-1.0063,-1.0019,-1.0019,-1.0019,-1.0019,-1.0019,-1.0019,-1.0019,-1.0019,-1.0019,-1.0019,-1.0019,-1.0019,-1.0019,-1.0019,-1.0019,-1.0019,-1.0019,-0.9268,-0.8433,-0.7451,-0.5964,-0.4255,-0.2448,-0.1772,-0.1394,-0.1239,-0.0365,0.0,0.0,0.0,0.0,0.0,0.0,0.0,0.0,0.0,0.0,0.0,0.0,0.0,0.0,0.0,-0.0673,-0.1277,-0.0301,-0.0679,-0.144,-0.1452,0.0,0.0,-0.1465,-0.224,-0.2398,-0.0389,-0.1557,-0.2339,-0.0392,-0.0781,-0.1165,-0.0155,0.0155,0.0229,0.0225,0.0225,0.0522,0.1325,0.1471,0.1687,0.2261,0.2333,0.2333,0.2333,0.2333,0.2333,0.2333,0.2333,0.3712,0.6898,0.697,0.8492,1.1548,1.1619,1.1619,1.1619,1.1619,1.1619,1.1619,1.1619,1.1619,1.1476,0.9945,0.842,0.697,0.6319,0.4581,0.2333,0.2333,0.2333,0.2333,0.2333,0.2333,0.2333,0.0,0.0,0.0,0.0,0.0,0.0,0.0,-1.003,-0.9882,0.0,-0.9615,-0.947,-0.947,-0.947,-0.947,-0.947,-0.947,-0.947,-0.947,-0.947,-0.9553,-0.9708,-0.9708,-0.9786,-1.0019,-1.0019,-1.0019,-1.0019,-1.0019,-0.9942,-0.9703,-0.8193,-0.7298,-0.6819,-0.3823,-0.2373,-0.2146,-0.066,0.0,0.0,0.0,0.0,0.0,0.0,0.0,0.0,0.0,0.0,0.0,0.0,0.0,0.0,0.0,0.0,0.0,0.0,0.0,0.0,0.0074,0.0075,0.0075,0.0151,0.0151,0.0,0.0151,0.0151,0.0152,0.0154,0.0154,0.0155,0.0156,0.0157,0.0157,0.0157,0.0471,0.0623,0.0609,0.0683,0.0982,0.1715,0.1787,0.1926,0.2268,0.2338,0.2337,0.2333,0.2333,0.2333,0.2333,0.2333,0.3639,0.668,0.6898,0.842,1.1325,1.1476,1.1619,1.1619,1.1619,1.1619,1.1619,1.1619,1.1619,1.1476,0.9801,0.8275,0.6898,0.5162,0.3569,0.2333,0.2333,0.2333,0.2333,0.2333,0.2333,0.2333,0.0,0.0,0.0,0.0,0.0,0.0,0.0,-0.8221,-0.8181,-0.8024,-0.6822,-0.5952,-0.5952,-0.5952,-0.5952,-0.5952,-0.5952,-0.5952,-0.5952,-0.5952,-0.6577,-0.7907,-0.7985,-0.8608,-0.9942,-1.0019,-1.0019,-1.0019,-1.0019,-0.9314,-0.7981,-0.7654,-0.6042,-0.3412,-0.2765,-0.1772,-0.0439,-0.0146,0.0,0.0,0.0,0.0,0.0,0.0,0.0,0.0,0.0,0.0,0.0,0.0,0.0,0.0,0.0,0.0,0.0,0.0,0.0,0.0073,0.0366,0.0514,0.0589,0.0893,0.0969,0.0,0.0982,0.0984,0.0985,0.0987,0.0988,0.0992,0.1004,0.0929,0.1009,0.102,0.1099,0.1016,0.0616,0.0922,0.13,0.1737,0.1811,0.1952,0.2372,0.2369,0.236,0.2334,0.2333,0.2333,0.2333,0.2333,0.3205,0.5093,0.6319,0.791,0.9723,1.0966,1.1619,1.1619,1.1619,1.1619,1.1619,1.1619,1.1619,1.1476,0.8636,0.7259,0.6753,0.393,0.2551,0.2333,0.2333,0.2333,0.2333,0.2333,0.2333,0.2337,0.0,0.0,0.0,0.0,0.0,0.0,0.0,0.0,-0.6309,-0.6268,-0.5561,-0.5014,-0.5014,-0.5014,-0.5014,-0.5014,-0.5014,-0.5014,-0.5014,-0.5014,-0.5405,-0.6186,-0.6264,-0.6655,-0.7513,-0.7513,-0.7513,-0.7513,-0.7513,-0.7104,-0.6206,-0.5367,-0.4091,-0.2471,-0.1627,-0.0807,0.0,0.0,0.0,0.0,0.0,0.0,0.0,0.0,0.0,0.0,0.0,0.0,0.0,0.0,0.0,0.0,0.0,0.0,0.0073,0.0219,0.0292,0.0365,0.0803,0.0876,0.095,0.1177,0.1178,0.0,0.0,0.119,0.1192,0.1198,0.12,0.1205,0.122,0.1229,0.1237,0.1244,0.1408,0.149,0.1246,0.1479,0.1705,0.2144,0.214,0.2205,0.2403,0.2387,0.2365,0.2335,0.2333,0.2333,0.2333,0.2333,0.3059,0.4657,0.6174,0.7765,0.9291,1.0815,1.1619,1.1619,1.1619,1.1619,1.1619,1.1619,1.1619,1.1397,0.8348,0.697,0.6753,0.3567,0.2333,0.2333,0.2333,0.2333,0.2333,0.2333,0.2342,0.2357,-0.7244,-0.6151,0.0,0.0,0.0,0.0,0.0,0.0,-0.4388,-0.4075,-0.4075,-0.4075,-0.4075,-0.4075,-0.4075,-0.4075,-0.4075,-0.4075,-0.4075,-0.4075,-0.4153,-0.4466,-0.4544,-0.4701,-0.5014,-0.5014,-0.5008,-0.4997,-0.4997,-0.481,-0.4522,-0.3107,-0.2323,-0.193,-0.0587,0.0,0.0,0.0,0.0,0.0,0.0,0.0,0.0,0.0073,0.0146,0.0146,0.0219,0.0219,0.0219,0.0146,0.0146,0.0219,0.0146,0.0146,0.0292,0.0584,0.073,0.0803,0.124,0.1313,0.1313,0.1387,0.1387,0.1387,0.0,0.0,0.0,0.1404,0.1406,0.1412,0.143,0.1445,0.1457,0.1464,0.1789,0.2037,0.2042,0.2043,0.2113,0.248,0.2477,0.2466,0.2435,0.2405,0.2375,0.2343,0.2342,0.2339,0.2333,0.2333,0.2914,0.4221,0.6029,0.7621,0.8853,1.0671,1.1619,1.1619,1.1619,1.1619,1.1619,1.1619,1.1476,1.1038,0.8198,0.6825,0.6319,0.3494,0.2333,0.2333,0.2333,0.2333,0.2334,0.2339,0.2357,0.238,-0.5033,-0.5184,-0.463,0.0,0.0,0.0,0.0,0.0,-0.2273,-0.0785,-0.0549,-0.0549,-0.0549,-0.0549,-0.0549,-0.0549,-0.0549,-0.0549,-0.0549,-0.0549,-0.1255,-0.2742,-0.282,-0.3447,-0.4936,-0.5014,-0.4986,-0.5012,-0.5012,-0.4214,-0.2802,-0.2618,-0.171,-0.0297,-0.0073,0.0,0.0,0.0,0.0,0.0,0.0,0.0,0.0073,0.0365,0.0511,0.0584,0.0949,0.1095,0.1022,0.0657,0.0803,0.1022,0.0657,0.0803,0.1095,0.1095,0.1168,0.1241,0.1604,0.175,0.1822,0.2114,0.2187,0.2187,0.2187,0.0,0.2188,0.2191,0.0,0.22,0.2229,0.0,0.0,0.2307,0.2394,0.2406,0.2431,0.2435,0.2434,0.251,0.2508,0.2497,0.2467,0.2436,0.2406,0.2375,0.2373,0.2361,0.2334,0.2333,0.2405,0.2551,0.5449,0.7115,0.7259,1.0161,1.1619,1.1619,1.1619,1.1619,1.1619,1.1619,1.0815,0.9435,0.7765,0.6246,0.4802,0.3059,0.2333,0.2333,0.2333,0.2333,0.2335,0.2363,0.2375,0.2386,-0.3212,-0.2743,-0.2195,0.0,0.0,0.0,0.0,0.0,-0.0785,-0.0079,0.0,0.0,0.0,0.0,0.0,0.0,0.0,0.0,0.0,0.0,-0.031,-0.0999,-0.1076,-0.1384,-0.2075,-0.2075,-0.2069,-0.2135,-0.2135,-0.1743,0.0,0.0,-0.0667,0.0,0.0,0.0,0.0,0.0,0.0,0.0,0.0216,0.0287,0.0288,0.0501,0.0713,0.0927,0.107,0.1147,0.1083,0.0938,0.1015,0.1168,0.1022,0.1095,0.1241,0.1459,0.1532,0.1605,0.1968,0.2114,0.2114,0.226,0.2333,0.2333,0.2333,0.2333,0.2333,0.2333,0.0,0.0,0.0,0.0,0.0,0.0,0.2458,0.248,0.251,0.2514,0.2514,0.2514,0.2514,0.2503,0.2472,0.2458,0.2438,0.2406,0.2388,0.2372,0.236,0.2342,0.2333,0.2333,0.4511,0.567,0.567,0.8714,1.0233,1.0305,1.1181,1.1619,1.1619,1.1619,1.0743,0.9219,0.7693,0.6101,0.4584,0.2986,0.2333,0.2334,0.2352,0.2358,0.2361,0.2373,0.2401,0.2435,-0.1568,-0.0863,-0.0392,-0.1568,0.0,0.0,0.0,0.0,0.0,0.0,0.0,0.0,0.0,0.0,0.0,0.0,0.0,0.0,0.0,0.0,0.0,0.0,0.0,0.0,0.0,0.0,0.0,0.0,0.0,0.0,0.0,0.0,0.0,0.0,0.0,0.0073,0.0146,0.0146,0.0218,0.029,0.0572,0.0709,0.0774,0.0843,0.1052,0.1403,0.1403,0.1412,0.1353,0.1281,0.1361,0.1445,0.1378,0.1379,0.1526,0.182,0.1968,0.1968,0.226,0.2333,0.2333,0.2333,0.2333,0.2333,0.2333,0.2333,0.2333,0.2333,0.2333,0.0,0.0,0.0,0.2376,0.2406,0.0,0.2467,0.2497,0.2508,0.2514,0.2514,0.2514,0.2506,0.2484,0.2481,0.2469,0.2438,0.2416,0.2395,0.2379,0.2357,0.2342,0.2333,0.386,0.4729,0.4729,0.7336,0.8853,0.9291,1.0455,1.1181,1.1619,1.1619,1.0527,0.8636,0.7476,0.5884,0.393,0.277,0.2333,0.2335,0.2367,0.2383,0.2391,0.2399,0.2431,0.247,-0.0079,0.0,0.0,-0.0079,0.0,0.0,0.0,0.0,0.0,0.0,0.0,0.0,0.0,0.0,0.0,0.0,0.0,0.0,0.0,0.0,0.0,0.0,0.0,0.0,0.0,0.0,0.0,0.0,0.0,0.0,0.0,0.0,0.0,0.0,0.0,0.0219,0.0584,0.0584,0.0797,0.1073,0.1058,0.1244,0.1556,0.1667,0.1895,0.2175,0.2175,0.2176,0.2106,0.1755,0.1896,0.2113,0.1783,0.1934,0.2297,0.2252,0.226,0.226,0.2333,0.2333,0.2333,0.2333,0.2333,0.2333,0.2333,0.2333,0.2333,0.2333,0.2333,0.2333,0.2333,0.2334,0.0,0.0,0.0,0.0,0.0,0.2496,0.2514,0.2514,0.2514,0.2514,0.2512,0.2512,0.25,0.247,0.2466,0.244,0.2382,0.2378,0.2363,0.2334,0.386,0.4729,0.4729,0.6246,0.7837,0.9291,0.9363,1.0161,1.1619,1.1619,0.9945,0.7042,0.7042,0.5232,0.2405,0.2333,0.2333,0.2335,0.2367,0.2397,0.2425,0.2455,0.2467,0.2473,0.0,0.0,0.0,0.0,0.0,0.0,0.0,0.0,0.0,0.0,0.0,0.0,0.0,0.0,0.0,0.0,0.0,0.0,0.0,0.0,0.0,0.0,0.0,0.0,0.0,0.0,0.0,0.0,0.0,0.0,0.0,0.0,0.0,0.0,0.0365,0.0657,0.1022,0.1022,0.1014,0.1143,0.1327,0.1643,0.2022,0.2041,0.2117,0.2185,0.2185,0.2199,0.2215,0.2077,0.209,0.2176,0.2046,0.2119,0.2267,0.2296,0.2305,0.2309,0.2328,0.2333,0.2333,0.2333,0.2333,0.2333,0.2333,0.2333,0.2333,0.2333,0.2333,0.2333,0.2333,0.2333,0.0,0.0,0.0,0.0,0.0,0.2495,0.2514,0.2514,0.2514,0.2514,0.2514,0.2514,0.251,0.25,0.248,0.2451,0.241,0.2388,0.2364,0.2334,0.2842,0.3132,0.3132,0.4657,0.5742,0.625,0.7263,0.8054,0.8564,0.8564,0.7408,0.5452,0.5452,0.4293,0.2333,0.2333,0.2345,0.2365,0.2397,0.2427,0.2455,0.2465,0.2482,0.25,0.0388,0.0465,0.0311,0.0078,0.0157,0.0156,0.0,0.0154,0.0153,0.0,0.0,0.0,0.0,0.0,0.0,0.0,0.0,0.0,0.0,0.0,0.0,0.0,0.0,0.0,0.0,0.0,0.0,0.0,0.0,0.0,0.0,0.0,0.0,0.0,0.073,0.1022,0.1386,0.1386,0.1444,0.1489,0.1726,0.1968,0.2223,0.2223,0.2223,0.2223,0.2223,0.2168,0.2184,0.2184,0.2196,0.2215,0.2226,0.2229,0.2236,0.2266,0.2282,0.2294,0.2313,0.2324,0.2333,0.2333,0.2333,0.2333,0.2333,0.2333,0.2333,0.2333,0.2333,0.2333,0.2333,0.2333,0.0,0.0,0.0,0.0,0.0,0.2495,0.2514,0.2514,0.2514,0.2514,0.2514,0.2514,0.2514,0.2514,0.2496,0.2467,0.2425,0.2405,0.2375,0.2334,0.2333,0.2333,0.2333,0.335,0.4151,0.4729,0.5742,0.6463,0.697,0.697,0.6174,0.4729,0.4729,0.3787,0.2333,0.2333,0.235,0.2382,0.2412,0.2442,0.247,0.2481,0.2497,0.2514,0.1136,0.1211,0.0992,0.0156,0.0388,0.0537,0.0152,0.0379,0.0529,0.0076,0.0075,0.0074,0.0074,0.0074,0.0,0.0,0.0,0.0,0.0,0.0,0.0,0.0,0.0,0.0,0.0,0.0,0.0,0.0,0.0,0.0,0.0,0.0,0.0,0.0,0.1095,0.1459,0.1822,0.1822,0.1939,0.217,0.2178,0.2223,0.2223,0.2223,0.2223,0.2223,0.2223,0.2223,0.2223,0.2223,0.2223,0.2227,0.2188,0.2198,0.2204,0.2234,0.2263,0.2288,0.229,0.2311,0.2331,0.2333,0.2333,0.2333,0.2333,0.2333,0.2333,0.2333,0.2333,0.2333,0.2333,0.2333,0.2333,0.0,0.0,0.0,0.0,0.2493,0.2512,0.2512,0.2514,0.2514,0.2514,0.2514,0.2514,0.2514,0.2514,0.2488,0.2427,0.2424,0.2395,0.2335,0.2333,0.2333,0.2333,0.2333,0.3059,0.4584,0.4584,0.538,0.6753,0.6753,0.5956,0.4584,0.4584,0.3714,0.2333,0.2334,0.2353,0.2383,0.2414,0.2444,0.2474,0.2503,0.2514,0.2514,0.1211,0.1211,0.1134,0.0905,0.0985,0.0988,0.0909,0.0977,0.1045,0.0896,0.0887,0.088,0.088,0.0658,0.0438,0.0438,0.0438,0.0438,0.0438,0.0438,0.0438,0.0438,0.0146,0.0,0.0,0.0,0.0146,0.0438,0.0146,0.0292,0.0876,0.0,0.0,0.0,0.1604,0.1822,0.2187,0.2187,0.2155,0.217,0.2178,0.2223,0.2223,0.2223,0.2223,0.2223,0.2223,0.2223,0.2223,0.2223,0.2223,0.2224,0.2231,0.2166,0.2172,0.2203,0.2217,0.2233,0.2278,0.2296,0.2307,0.2327,0.2333,0.2333,0.2333,0.2333,0.2333,0.2333,0.2333,0.2333,0.2333,0.2333,0.2333,0.2333,0.0,0.0,0.2429,0.2461,0.248,0.248,0.25,0.2514,0.2514,0.2514,0.2514,0.2514,0.2514,0.2488,0.2427,0.2424,0.2395,0.2335,0.2333,0.2333,0.2333,0.2333,0.2478,0.2914,0.2914,0.3132,0.3494,0.3494,0.3278,0.2914,0.2914,0.2697,0.2334,0.2357,0.2384,0.2414,0.2446,0.2476,0.2503,0.2511,0.2514,0.2514,0.1638,0.1713,0.1709,0.1697,0.1705,0.1564,0.1267,0.1333,0.14,0.1253,0.1173,0.1168,0.1168,0.1022,0.0876,0.0876,0.0876,0.0876,0.0876,0.073,0.0657,0.0876,0.0292,0.0073,0.0292,0.0073,0.0146,0.0365,0.0292,0.0511,0.0949,0.0,0.0,0.0,0.0,0.2114,0.2331,0.2233,0.2204,0.217,0.2178,0.2223,0.0,0.2223,0.2223,0.2223,0.2223,0.2223,0.2223,0.2223,0.2223,0.2223,0.2223,0.2223,0.2225,0.2176,0.2189,0.2207,0.2243,0.2271,0.2294,0.2311,0.2323,0.2333,0.2333,0.2333,0.2333,0.2333,0.2333,0.2333,0.2333,0.2333,0.2333,0.2333,0.2358,0.2384,0.2401,0.2429,0.2454,0.2467,0.2484,0.25,0.2512,0.2514,0.2514,0.2514,0.2514,0.2488,0.2427,0.2424,0.2395,0.2335,0.2333,0.2333,0.2333,0.2333,0.2333,0.2333,0.2333,0.2333,0.2333,0.2333,0.2333,0.2333,0.2333,0.2333,0.2335,0.2365,0.2395,0.2428,0.2472,0.2499,0.2514,0.2514,0.2514,0.2514,0.226,0.2333,0.2333,0.2333,0.2333,0.2114,0.146,0.1678,0.175,0.1386,0.1314,0.1314,0.1314,0.1314,0.1314,0.1314,0.1314,0.1314,0.1314,0.0949,0.0949,0.1241,0.0584,0.0292,0.0657,0.0365,0.0219,0.0219,0.0511,0.073,0.0,0.0,0.0,0.0,0.0,0.2333,0.2328,0.2199,0.2175,0.217,0.2178,0.2223,0.2223,0.2223,0.2223,0.2223,0.2223,0.2223,0.2223,0.2223,0.2223,0.2223,0.2223,0.2223,0.2223,0.2223,0.2173,0.2195,0.2199,0.2238,0.2281,0.2289,0.2309,0.2328,0.2333,0.2333,0.2333,0.2333,0.2333,0.2333,0.2333,0.2333,0.2333,0.2333,0.2356,0.2372,0.2372,0.2398,0.2428,0.2454,0.2461,0.0,0.2506,0.2512,0.2514,0.2514,0.2514,0.2488,0.2427,0.2424,0.2395,0.2335,0.2333,0.2333,0.2333,0.2333,0.2333,0.2333,0.2333,0.2333,0.2333,0.2333,0.2333,0.2333,0.2333,0.2335,0.2341,0.2372,0.2405,0.244,0.2493,0.2514,0.2514,0.2514,0.2514,0.2514,0.226,0.2333,0.2333,0.2333,0.2333,0.226,0.2114,0.2187,0.2187,0.2114,0.2114,0.2114,0.2114,0.1895,0.1677,0.1677,0.1677,0.1677,0.1677,0.1604,0.1604,0.1677,0.124,0.1022,0.1095,0.1022,0.1167,0.1458,0.124,0.1386,0.0,0.0,0.0,0.0,0.0,0.2333,0.2328,0.2199,0.2175,0.217,0.2178,0.2223,0.2223,0.2223,0.2223,0.2223,0.2223,0.2223,0.2223,0.2223,0.2223,0.2223,0.2223,0.2223,0.2223,0.2223,0.2225,0.2168,0.2193,0.2207,0.2228,0.2278,0.2294,0.2304,0.2327,0.2333,0.2333,0.2333,0.2333,0.2333,0.2333,0.2333,0.2333,0.2333,0.2337,0.2341,0.2341,0.2367,0.2388,0.2394,0.2416,0.2443,0.2474,0.25,0.2514,0.2514,0.2514,0.2488,0.2427,0.2424,0.2395,0.2335,0.2333,0.2333,0.2333,0.2333,0.2333,0.2333,0.2333,0.2333,0.2333,0.2333,0.2333,0.2333,0.2333,0.2348,0.2372,0.2403,0.2448,0.2499,0.251,0.2514,0.2514,0.2514,0.2514,0.2514,0.2333,0.2333,0.2333,0.2333,0.2333,0.2333,0.2333,0.2333,0.2333,0.2333,0.2333,0.2333,0.2333,0.2187,0.2041,0.2041,0.2041,0.2041,0.2041,0.1895,0.1895,0.2041,0.1532,0.1313,0.1532,0.1313,0.1313,0.1459,0.1532,0.1677,0.0,0.0,0.0,0.0,0.0,0.2333,0.2328,0.2199,0.2175,0.217,0.2178,0.2223,0.2223,0.2223,0.2223,0.2223,0.2223,0.2223,0.2223,0.2223,0.2223,0.2223,0.2223,0.2223,0.2223,0.2223,0.2223,0.2225,0.2173,0.2188,0.2211,0.2256,0.2279,0.2298,0.2326,0.2333,0.2333,0.2333,0.2333,0.2333,0.2333,0.2333,0.2333,0.2333,0.2333,0.2333,0.2333,0.2345,0.236,0.2376,0.2391,0.2412,0.2443,0.2459,0.2474,0.2489,0.2491,0.2463,0.2403,0.2401,0.2379,0.2334,0.2333,0.2333,0.2333,0.2333,0.2333,0.2333,0.2333,0.2333,0.2333,0.2333,0.2333,0.2334,0.2349,0.2364,0.2382,0.2428,0.2474,0.2514,0.2514,0.2514,0.2514,0.2514,0.2514,0.2514,0.2333,0.2333,0.2333,0.2333,0.2333,0.2333,0.2333,0.2333,0.2333,0.2333,0.2333,0.2333,0.2333,0.2333,0.2333,0.2333,0.2333,0.2333,0.2333,0.2041,0.2041,0.226,0.1751,0.1605,0.1895,0.1605,0.146,0.146,0.175,0.1892,0.1888,0.0,0.0,0.2333,0.2333,0.2333,0.2328,0.2199,0.2175,0.217,0.2178,0.2223,0.2223,0.2223,0.2223,0.2223,0.2223,0.2223,0.2223,0.2223,0.2223,0.2223,0.2223,0.2223,0.2223,0.2223,0.2223,0.2223,0.2223,0.2172,0.2199,0.2166,0.2263,0.229,0.2324,0.2333,0.2333,0.2333,0.2333,0.2333,0.2333,0.2333,0.2333,0.2333,0.2333,0.2333,0.2333,0.2333,0.2342,0.2365,0.2368,0.238,0.241,0.2414,0.2424,0.2448,0.2455,0.2435,0.238,0.2378,0.2364,0.2334,0.2333,0.2333,0.2333,0.2333,0.2333,0.2333,0.2333,0.2333,0.2333,0.2333,0.2337,0.2343,0.2368,0.2386,0.2402,0.2457,0.2492,0.2514,0.2514,0.2514,0.2514,0.2514,0.2514,0.2514,0.2333,0.2333,0.2333,0.2333,0.2333,0.2333,0.2333,0.2333,0.2333,0.2333,0.2333,0.2333,0.2333,0.2333,0.2333,0.2333,0.2333,0.2333,0.2333,0.226,0.226,0.2333,0.226,0.2187,0.226,0.2187,0.2187,0.2187,0.226,0.2248,0.2224,0.0,0.2333,0.2333,0.2333,0.2333,0.2328,0.2199,0.2175,0.217,0.2178,0.2223,0.2223,0.2223,0.2223,0.2223,0.2223,0.2223,0.2223,0.2223,0.2223,0.2223,0.2223,0.2223,0.2223,0.2223,0.2223,0.2223,0.2223,0.2224,0.2173,0.223,0.2178,0.2194,0.232,0.2333,0.2333,0.2333,0.2333,0.2333,0.2333,0.2333,0.2333,0.2333,0.2333,0.2333,0.2333,0.2333,0.2334,0.2337,0.2337,0.2349,0.2379,0.2383,0.2384,0.2387,0.2413,0.2413,0.238,0.2378,0.2364,0.2334,0.2333,0.2333,0.2333,0.2333,0.2333,0.2333,0.2333,0.2333,0.2333,0.2333,0.2348,0.2373,0.2376,0.2409,0.2463,0.2496,0.2512,0.2514,0.2514,0.2514,0.2514,0.2514,0.2514,0.2749,0.2333,0.2333,0.2333,0.2333,0.2333,0.2333,0.2333,0.2333,0.2333,0.2333,0.2333,0.2333,0.2333,0.2333,0.2333,0.2333,0.2333,0.2333,0.2333,0.2333,0.2333,0.2333,0.2333,0.2333,0.2333,0.2333,0.2333,0.2333,0.2333,0.2327,0.2316,0.2327,0.2333,0.2333,0.2333,0.2333,0.233,0.229,0.2262,0.2171,0.2199,0.2172,0.2223,0.2223,0.2223,0.2223,0.2223,0.2223,0.2223,0.2223,0.2223,0.2223,0.2223,0.2223,0.2223,0.2223,0.2223,0.2223,0.2223,0.2223,0.2169,0.223,0.2175,0.219,0.2319,0.2333,0.2333,0.2333,0.2333,0.2333,0.2333,0.2333,0.2333,0.2333,0.2333,0.2333,0.2333,0.2333,0.2333,0.2333,0.2333,0.2338,0.235,0.235,0.235,0.235,0.2379,0.2383,0.2353,0.235,0.2345,0.2333,0.2333,0.2333,0.2333,0.2333,0.2333,0.2333,0.2333,0.2342,0.236,0.236,0.2387,0.2432,0.2432,0.2457,0.2497,0.251,0.2514,0.2514,0.2514,0.2514,0.2514,0.2514,0.2514,0.2749,0.2333,0.2333,0.2333,0.2333,0.2333,0.2333,0.2333,0.2333,0.2333,0.2333,0.2333,0.2333,0.2333,0.2333,0.2333,0.2333,0.2333,0.2333,0.2333,0.2333,0.2333,0.2333,0.2333,0.2333,0.2333,0.2333,0.2333,0.2333,0.2333,0.2328,0.232,0.232,0.2324,0.2333,0.2333,0.2333,0.2331,0.2303,0.2274,0.2173,0.2213,0.2181,0.2223,0.2223,0.2223,0.2223,0.2223,0.2223,0.2223,0.2223,0.2223,0.2223,0.2223,0.2223,0.2223,0.2223,0.2223,0.2223,0.2223,0.2223,0.2169,0.223,0.2175,0.219,0.2319,0.2333,0.2333,0.2333,0.2333,0.2333,0.2333,0.2333,0.2333,0.2333,0.2333,0.2333,0.2333,0.2333,0.2333,0.2333,0.2333,0.2333,0.2333,0.2333,0.2333,0.2333,0.2353,0.2356,0.2334,0.2333,0.2333,0.2333,0.2333,0.2333,0.2333,0.2333,0.2337,0.2346,0.2346,0.2363,0.2391,0.2401,0.2428,0.2469,0.2478,0.2495,0.2514,0.2514,0.2514,0.2514,0.2514,0.2514,0.2514,0.2514,0.2828,0.3454,0.2333,0.2333,0.2333,0.2333,0.2333,0.2333,0.2333,0.2333,0.2333,0.2333,0.2333,0.2333,0.2333,0.2333,0.2333,0.2333,0.2333,0.2333,0.2333,0.2333,0.2333,0.2333,0.2333,0.2333,0.2333,0.2333,0.2333,0.2333,0.2333,0.2319,0.2292,0.2292,0.2307,0.2333,0.2333,0.2333,0.2331,0.2303,0.2274,0.2173,0.2213,0.2181,0.2223,0.2223,0.2223,0.2223,0.2223,0.2223,0.2223,0.2223,0.2223,0.2223,0.2223,0.2223,0.2223,0.2223,0.2223,0.2223,0.2223,0.2223,0.2169,0.223,0.2175,0.219,0.2319,0.2333,0.2333,0.2333,0.2333,0.2333,0.2333,0.2333,0.2333,0.2333,0.2333,0.2333,0.2333,0.2333,0.2333,0.2333,0.2333,0.2333,0.2333,0.2333,0.2333,0.2333,0.2333,0.2333,0.2333,0.2333,0.2333,0.2333,0.2333,0.2333,0.2333,0.2333,0.2348,0.2378,0.2378,0.2394,0.2424,0.2454,0.2469,0.247,0.25,0.2514,0.2514,0.2514,0.2514,0.2514,0.2514,0.2514,0.2514,0.2514,0.3531,0.5248,0.2333,0.2333,0.2333,0.2333,0.2333,0.2333,0.2333,0.2333,0.2333,0.2333,0.2333,0.2333,0.2333,0.2333,0.2333,0.2333,0.2333,0.2333,0.2333,0.2333,0.2333,0.2333,0.2333,0.2333,0.2333,0.2333,0.2333,0.2333,0.2333,0.2328,0.2319,0.2319,0.2324,0.2333,0.2333,0.2333,0.2333,0.2323,0.2303,0.2274,0.2244,0.2213,0.2184,0.223,0.2223,0.2223,0.2223,0.2223,0.2223,0.2223,0.2223,0.2223,0.2223,0.2223,0.2223,0.2223,0.2223,0.2223,0.2223,0.217,0.2195,0.2166,0.2262,0.2286,0.2324,0.2333,0.2333,0.2333,0.2333,0.2333,0.2333,0.2333,0.2333,0.2333,0.2333,0.2333,0.2333,0.2333,0.2333,0.2333,0.2333,0.2333,0.2333,0.2333,0.2333,0.2333,0.2333,0.2333,0.2333,0.2333,0.2333,0.2333,0.2333,0.2343,0.2364,0.2364,0.2379,0.2409,0.2409,0.2425,0.2455,0.2487,0.25,0.25,0.251,0.2514,0.2514,0.2514,0.2514,0.2514,0.2514,0.2514,0.2514,0.2514,0.3531,0.5248,0.2333,0.2333,0.2333,0.2333,0.2333,0.2333,0.2333,0.2333,0.2333,0.2333,0.2333,0.2333,0.2333,0.2333,0.2333,0.2333,0.2333,0.2333,0.2333,0.2333,0.2333,0.2333,0.2333,0.2333,0.2333,0.2333,0.2333,0.2333,0.2333,0.2333,0.2333,0.2333,0.2333,0.2333,0.2333,0.2333,0.2333,0.2333,0.2316,0.2289,0.227,0.2237,0.2198,0.2178,0.2232,0.2223,0.2223,0.2223,0.2223,0.2223,0.2223,0.2223,0.2223,0.2223,0.2223,0.2223,0.2223,0.2224,0.2169,0.2185,0.221,0.2252,0.2277,0.2298,0.2326,0.2333,0.2333,0.2333,0.2333,0.2333,0.2333,0.2333,0.2333,0.2333,0.2333,0.2333,0.2333,0.2333,0.2333,0.2333,0.2333,0.2333,0.2333,0.2333,0.2333,0.2333,0.2333,0.2333,0.2333,0.2333,0.2333,0.2333,0.2343,0.2358,0.2378,0.239,0.241,0.244,0.2453,0.2467,0.2487,0.2506,0.2514,0.2514,0.2514,0.2514,0.2514,0.2514,0.2514,0.2514,0.2514,0.2514,0.2592,0.3219,0.4469,0.6186,0.2333,0.2333,0.2333,0.2333,0.2333,0.2333,0.2333,0.2333,0.2333,0.2333,0.2333,0.2333,0.2333,0.2333,0.2333,0.2333,0.2333,0.2333,0.2333,0.2333,0.2333,0.2333,0.2333,0.2333,0.2333,0.2333,0.2333,0.2333,0.2333,0.2333,0.2333,0.2333,0.2333,0.2333,0.2333,0.2333,0.2333,0.2333,0.2318,0.2293,0.2292,0.2258,0.2206,0.2202,0.2183,0.2225,0.2223,0.2223,0.2223,0.2223,0.2223,0.2223,0.2223,0.2224,0.2225,0.2223,0.2224,0.2231,0.2192,0.2203,0.2219,0.2277,0.2292,0.2301,0.2327,0.2333,0.2333,0.2333,0.2333,0.2333,0.2333,0.2333,0.2333,0.2333,0.2333,0.2333,0.2333,0.2333,0.2333,0.2333,0.2333,0.2333,0.2333,0.2333,0.2333,0.2333,0.2333,0.2334,0.2335,0.2335,0.2335,0.2335,0.2365,0.2383,0.2384,0.2413,0.2442,0.2473,0.25,0.2514,0.2514,0.2514,0.2514,0.2514,0.2514,0.2514,0.2514,0.2514,0.2514,0.2514,0.2514,0.2514,0.2671,0.439,0.603,0.7747,0.2333,0.2333,0.2333,0.2333,0.2333,0.2333,0.2333,0.2333,0.2333,0.2333,0.2333,0.2333,0.2333,0.2333,0.2333,0.2333,0.2333,0.2333,0.2333,0.2333,0.2333,0.2333,0.2333,0.2333,0.2333,0.2333,0.2333,0.2333,0.2333,0.2333,0.2333,0.2333,0.2333,0.2333,0.2333,0.2333,0.2333,0.2333,0.2328,0.232,0.23,0.2282,0.2264,0.2218,0.2195,0.2187,0.2231,0.2223,0.2223,0.2223,0.2223,0.2223,0.2223,0.217,0.2185,0.223,0.2172,0.2191,0.2198,0.2234,0.2273,0.2288,0.2307,0.2324,0.2331,0.2333,0.2333,0.2333,0.2333,0.2333,0.2333,0.2333,0.2333,0.2333,0.2333,0.2333,0.2333,0.2333,0.2333,0.2333,0.2333,0.2333,0.2333,0.2333,0.2333,0.2333,0.2333,0.2343,0.2367,0.2367,0.2367,0.2367,0.2397,0.2424,0.2447,0.2455,0.2473,0.2503,0.2511,0.2514,0.2514,0.2514,0.2514,0.2514,0.2514,0.2514,0.2514,0.2514,0.2514,0.2514,0.2514,0.2514,0.2671,0.439,0.603,0.7747,0.2333,0.2333,0.2333,0.2333,0.2333,0.2333,0.2333,0.2333,0.2333,0.2333,0.2333,0.2333,0.2333,0.2333,0.2333,0.2333,0.2333,0.2333,0.2333,0.2333,0.2333,0.2333,0.2333,0.2333,0.2333,0.2333,0.2333,0.2333,0.2333,0.2333,0.2333,0.2333,0.2333,0.2333,0.2333,0.2333,0.2333,0.2333,0.2333,0.2331,0.2316,0.2303,0.2288,0.2253,0.2233,0.2218,0.2202,0.2196,0.2196,0.2196,0.2196,0.2196,0.2196,0.2207,0.2218,0.2202,0.2207,0.2223,0.2237,0.2266,0.2294,0.2307,0.2322,0.2333,0.2333,0.2333,0.2333,0.2333,0.2333,0.2333,0.2333,0.2333,0.2333,0.2333,0.2333,0.2333,0.2333,0.2333,0.2333,0.2333,0.2333,0.2333,0.2333,0.2333,0.2333,0.2333,0.2346,0.2361,0.2378,0.2405,0.2413,0.2399,0.2428,0.2453,0.2469,0.2482,0.2497,0.2514,0.2514,0.2514,0.2514,0.2514,0.2514,0.2514,0.2514,0.2514,0.2514,0.2514,0.2514,0.2514,0.2514,0.2514,0.2828,0.5251,0.6733,0.7825,0.2333,0.2333,0.2333,0.2333,0.2333,0.2333,0.2333,0.2333,0.2333,0.2333,0.2333,0.2333,0.2333,0.2333,0.2333,0.2333,0.2333,0.2333,0.2333,0.2333,0.2333,0.2333,0.2333,0.2333,0.2333,0.2333,0.2333,0.2333,0.2333,0.2333,0.2333,0.2333,0.2333,0.2333,0.2333,0.2333,0.2333,0.2333,0.2333,0.2333,0.2333,0.2319,0.2297,0.2293,0.2275,0.2182,0.2176,0.2175,0.2175,0.2175,0.2175,0.2175,0.2175,0.2178,0.2182,0.2182,0.2184,0.2263,0.2285,0.2294,0.2303,0.2327,0.2333,0.2333,0.2333,0.2333,0.2333,0.2333,0.2333,0.2333,0.2333,0.2333,0.2333,0.2333,0.2333,0.2333,0.2333,0.2333,0.2333,0.2333,0.2333,0.2333,0.2333,0.2333,0.2334,0.2339,0.2364,0.2382,0.2391,0.2442,0.2459,0.2438,0.2462,0.2476,0.2476,0.2502,0.2514,0.2514,0.2514,0.2514,0.2514,0.2514,0.2514,0.2514,0.2514,0.2514,0.2514,0.2514,0.2514,0.2514,0.2514,0.2671,0.3219,0.6342,0.7669,0.8292,0.2333,0.2333,0.2333,0.2333,0.2333,0.2333,0.2333,0.2333,0.2333,0.2333,0.2333,0.2333,0.2333,0.2333,0.2333,0.2333,0.2333,0.2333,0.2333,0.2333,0.2333,0.2333,0.2333,0.2333,0.2333,0.2333,0.2333,0.2333,0.2333,0.2333,0.2333,0.2333,0.2333,0.2333,0.2333,0.2333,0.2333,0.2333,0.2333,0.2333,0.2333,0.233,0.2323,0.23,0.2288,0.2281,0.2255,0.2175,0.2175,0.2175,0.2175,0.2175,0.2175,0.2263,0.2283,0.2283,0.2301,0.2315,0.2296,0.2308,0.2327,0.2331,0.2333,0.2333,0.2333,0.2333,0.2333,0.2333,0.2333,0.2333,0.2333,0.2333,0.2333,0.2333,0.2333,0.2333,0.2333,0.2333,0.2333,0.2333,0.2333,0.2333,0.2333,0.2333,0.2343,0.2369,0.2375,0.2401,0.2453,0.2463,0.2478,0.25,0.2504,0.2507,0.2507,0.2512,0.2514,0.2514,0.2514,0.2514,0.2514,0.2514,0.2514,0.2514,0.2514,0.2514,0.2514,0.2514,0.2514,0.2514,0.2514,0.3376,0.4857,0.6811,0.837,0.9848,0.2333,0.2333,0.2333,0.2333,0.2333,0.2333,0.2333,0.2333,0.2333,0.2333,0.2333,0.2333,0.2333,0.2333,0.2333,0.2333,0.2333,0.2333,0.2333,0.2333,0.2333,0.2333,0.2333,0.2333,0.2333,0.2333,0.2333,0.2333,0.2333,0.2333,0.2333,0.2333,0.2333,0.2333,0.2333,0.2333,0.2333,0.2333,0.2333,0.2333,0.2333,0.2333,0.2331,0.2319,0.2313,0.2311,0.2297,0.2221,0.2221,0.2221,0.2221,0.2221,0.2221,0.2303,0.2313,0.2313,0.2323,0.233,0.2318,0.2323,0.2333,0.2333,0.2333,0.2333,0.2333,0.2333,0.2333,0.2333,0.2333,0.2333,0.2333,0.2333,0.2333,0.2333,0.2333,0.2333,0.2333,0.2333,0.2333,0.2333,0.2333,0.2333,0.2333,0.2348,0.2363,0.2378,0.2409,0.2439,0.2467,0.2485,0.25,0.2514,0.2514,0.2514,0.2514,0.2514,0.2514,0.2514,0.2514,0.2514,0.2514,0.2514,0.2514,0.2514,0.2514,0.2514,0.2514,0.2514,0.2514,0.2592,0.3531,0.4312,0.5327,0.7903,0.9304,1.0241,0.2333,0.2333,0.2333,0.2333,0.2333,0.2333,0.2333,0.2333,0.2333,0.2333,0.2333,0.2333,0.2333,0.2333,0.2333,0.2333,0.2333,0.2333,0.2333,0.2333,0.2333,0.2333,0.2333,0.2333,0.2333,0.2333,0.2333,0.2333,0.2333,0.2333,0.2333,0.2333,0.2333,0.2333,0.2333,0.2333,0.2333,0.2333,0.2333,0.2333,0.2333,0.2333,0.2333,0.2333,0.2333,0.2333,0.2333,0.2333,0.2333,0.2333,0.2333,0.2333,0.2333,0.2333,0.2333,0.2333,0.2333,0.2333,0.2333,0.2333,0.2333,0.2333,0.2333,0.2333,0.2333,0.2333,0.2333,0.2333,0.2333,0.2333,0.2333,0.2333,0.2333,0.2333,0.2333,0.2333,0.2333,0.2333,0.2333,0.2333,0.2339,0.2343,0.2343,0.2371,0.2391,0.2399,0.2443,0.2472,0.2478,0.2502,0.2514,0.2514,0.2514,0.2514,0.2514,0.2514,0.2514,0.2514,0.2514,0.2514,0.2514,0.2514,0.2514,0.2514,0.2514,0.2514,0.2514,0.2514,0.2514,0.2592,0.3922,0.4857,0.5874,0.8448,0.9931,1.0785,0.2333,0.2333,0.2333,0.2333,0.2333,0.2333,0.2333,0.2333,0.2333,0.2333,0.2333,0.2333,0.2333,0.2333,0.2333,0.2333,0.2333,0.2333,0.2333,0.2333,0.2333,0.2333,0.2333,0.2333,0.2333,0.2333,0.2333,0.2333,0.2333,0.2333,0.2333,0.2333,0.2333,0.2333,0.2333,0.2333,0.2333,0.2333,0.2333,0.2333,0.2333,0.2333,0.2333,0.2333,0.2333,0.2333,0.2333,0.2333,0.2333,0.2333,0.2333,0.2333,0.2333,0.2333,0.2333,0.2333,0.2333,0.2333,0.2333,0.2333,0.2333,0.2333,0.2333,0.2333,0.2333,0.2333,0.2333,0.2333,0.2333,0.2333,0.2333,0.2333,0.2333,0.2333,0.2333,0.2333,0.2333,0.2333,0.2333,0.2333,0.2357,0.2375,0.2375,0.2402,0.2432,0.2461,0.2466,0.2481,0.251,0.2514,0.2514,0.2514,0.2514,0.2514,0.2514,0.2514,0.2514,0.2514,0.2514,0.2514,0.2514,0.2514,0.2514,0.2514,0.2514,0.2514,0.2514,0.2514,0.2514,0.2514,0.2671,0.4549,0.7357,0.7591,0.9615,1.2347,0.2388,0.2388,0.2388,0.2388,0.2373,0.2361,0.2361,0.2345,0.2333,0.2333,0.2333,0.2333,0.2333,0.2333,0.2333,0.2333,0.2333,0.2333,0.2333,0.2333,0.2333,0.2333,0.2333,0.2333,0.2333,0.2333,0.2333,0.2333,0.2333,0.2333,0.2333,0.2333,0.2333,0.2333,0.2333,0.2333,0.2333,0.2333,0.2333,0.2333,0.2333,0.2333,0.2333,0.2333,0.2333,0.2333,0.2333,0.2333,0.2333,0.2333,0.2333,0.2333,0.2333,0.2333,0.2333,0.2333,0.2333,0.2333,0.2333,0.2333,0.2333,0.2333,0.2333,0.2333,0.2333,0.2333,0.2333,0.2333,0.2333,0.2333,0.2333,0.2333,0.2333,0.2333,0.2333,0.2333,0.2333,0.2349,0.2361,0.2361,0.2388,0.2406,0.2406,0.2433,0.2457,0.2469,0.2487,0.2502,0.2514,0.2514,0.2514,0.2514,0.2514,0.2514,0.2514,0.2514,0.2514,0.2514,0.2514,0.2514,0.2514,0.2514,0.2514,0.2514,0.2514,0.2514,0.2514,0.2514,0.2514,0.2671,0.4782,0.6342,0.7747,0.9853,1.1411,1.2579,0.2424,0.2424,0.2424,0.2424,0.2406,0.2393,0.2393,0.2367,0.2348,0.2348,0.2338,0.2333,0.2333,0.2333,0.2333,0.2333,0.2333,0.2333,0.2333,0.2333,0.2333,0.2333,0.2333,0.2333,0.2333,0.2333,0.2333,0.2333,0.2333,0.2333,0.2333,0.2333,0.2333,0.2333,0.2333,0.2333,0.2333,0.2333,0.2333,0.2333,0.2333,0.2333,0.2333,0.2333,0.2333,0.2333,0.2333,0.2333,0.2333,0.2333,0.2333,0.2333,0.2333,0.2333,0.2333,0.2333,0.2333,0.2333,0.2333,0.2333,0.2333,0.2333,0.2333,0.2333,0.2333,0.2333,0.2333,0.2333,0.2333,0.2333,0.2333,0.2333,0.2333,0.2333,0.2341,0.2348,0.2348,0.2373,0.2393,0.2393,0.242,0.2438,0.2438,0.2465,0.2484,0.2484,0.2503,0.2514,0.2514,0.2514,0.2514,0.2514,0.2514,0.2514,0.2514,0.2514,0.2514,0.2514,0.2514,0.2514,0.2514,0.2514,0.2514,0.2514,0.2514,0.2514,0.2514,0.2514,0.2828,0.3531,0.5796,0.7357,0.8526,1.0862,1.2108,1.2733,0.2424,0.2424,0.2424,0.2424,0.2424,0.2424,0.2424,0.2398,0.2378,0.2378,0.2352,0.2333,0.2333,0.2333,0.2333,0.2333,0.2333,0.2333,0.2333,0.2333,0.2333,0.2333,0.2333,0.2333,0.2333,0.2333,0.2333,0.2333,0.2333,0.2333,0.2333,0.2333,0.2333,0.2333,0.2333,0.2333,0.2333,0.2333,0.2333,0.2333,0.2333,0.2333,0.2333,0.2333,0.2333,0.2333,0.2333,0.2333,0.2333,0.2333,0.2333,0.2333,0.2333,0.2333,0.2333,0.2333,0.2333,0.2333,0.2333,0.2333,0.2333,0.2333,0.2333,0.2333,0.2333,0.2333,0.2333,0.2333,0.2333,0.2333,0.2333,0.2333,0.2333,0.2333,0.2358,0.2379,0.2379,0.2405,0.2424,0.2424,0.2451,0.2469,0.2469,0.2496,0.2514,0.2514,0.2514,0.2514,0.2514,0.2514,0.2514,0.2514,0.2514,0.2514,0.2514,0.2514,0.2514,0.2514,0.2514,0.2514,0.2514,0.2514,0.2514,0.2514,0.2514,0.2514,0.2514,0.2514,0.3452,0.5014,0.5014,0.7041,1.0008,1.0008,1.1327,1.312,0.2487,0.2487,0.2487,0.2487,0.247,0.2455,0.2455,0.2412,0.2378,0.2378,0.2352,0.2333,0.2333,0.2333,0.2333,0.2333,0.2333,0.2333,0.2333,0.2333,0.2333,0.2333,0.2333,0.2333,0.2333,0.2333,0.2333,0.2333,0.2333,0.2333,0.2333,0.2333,0.2333,0.2333,0.2333,0.2333,0.2333,0.2333,0.2333,0.2333,0.2333,0.2333,0.2333,0.2333,0.2333,0.2333,0.2333,0.2333,0.2333,0.2333,0.2333,0.2333,0.2333,0.2333,0.2333,0.2333,0.2333,0.2333,0.2333,0.2333,0.2333,0.2333,0.2333,0.2333,0.2333,0.2333,0.2333,0.2333,0.2333,0.2333,0.2333,0.235,0.2364,0.2364,0.239,0.241,0.241,0.2436,0.2455,0.2455,0.2482,0.25,0.25,0.2508,0.2514,0.2514,0.2514,0.2514,0.2514,0.2514,0.2514,0.2514,0.2514,0.2514,0.2514,0.2514,0.2514,0.2514,0.2514,0.2514,0.2514,0.2514,0.2514,0.2514,0.2514,0.2514,0.2514,0.2514,0.3452,0.5092,0.6264,0.8059,1.0164,1.1333,1.2347,1.312,0.2514,0.2514,0.2514,0.2514,0.2499,0.2487,0.2487,0.2446,0.2409,0.2398,0.2369,0.2346,0.2334,0.2333,0.2333,0.2333,0.2333,0.2333,0.2333,0.2333,0.2333,0.2333,0.2333,0.2333,0.2333,0.2333,0.2333,0.2333,0.2333,0.2333,0.2333,0.2333,0.2333,0.2333,0.2333,0.2333,0.2333,0.2333,0.2333,0.2333,0.2333,0.2333,0.2333,0.2333,0.2333,0.2333,0.2333,0.2333,0.2333,0.2333,0.2333,0.2333,0.2333,0.2333,0.2333,0.2333,0.2333,0.2333,0.2333,0.2333,0.2333,0.2333,0.2333,0.2333,0.2333,0.2333,0.2333,0.2333,0.2333,0.2337,0.2349,0.2365,0.2382,0.2394,0.2421,0.2442,0.2442,0.2467,0.2487,0.2487,0.2503,0.2514,0.2514,0.2514,0.2514,0.2514,0.2514,0.2514,0.2514,0.2514,0.2514,0.2514,0.2514,0.2514,0.2514,0.2514,0.2514,0.2514,0.2514,0.2514,0.2514,0.2514,0.2514,0.2514,0.2514,0.2514,0.2514,0.2514,0.3844,0.6108,0.7123,0.8993,1.1327,1.2347,1.312,1.3667,0.2514,0.2514,0.2514,0.2514,0.2514,0.2514,0.2514,0.2488,0.2459,0.2431,0.2399,0.2368,0.2339,0.2334,0.2333,0.2333,0.2333,0.2333,0.2333,0.2333,0.2333,0.2333,0.2333,0.2333,0.2333,0.2333,0.2333,0.2333,0.2333,0.2333,0.2333,0.2333,0.2333,0.2333,0.2333,0.2333,0.2333,0.2333,0.2333,0.2333,0.2333,0.2333,0.2333,0.2333,0.2333,0.2333,0.2333,0.2333,0.2333,0.2333,0.2333,0.2333,0.2333,0.2333,0.2333,0.2333,0.2333,0.2333,0.2333,0.2333,0.2333,0.2333,0.2333,0.2333,0.2333,0.2333,0.2334,0.2337,0.2337,0.2346,0.2376,0.2384,0.2395,0.2423,0.2454,0.2473,0.2473,0.2497,0.2514,0.2514,0.2514,0.2514,0.2514,0.2514,0.2514,0.2514,0.2514,0.2514,0.2514,0.2514,0.2514,0.2514,0.2514,0.2514,0.2514,0.2514,0.2514,0.2514,0.2514,0.2514,0.2514,0.2514,0.2514,0.2514,0.2514,0.2514,0.2514,0.2671,0.4628,0.7513,0.7669,0.9925,1.3042,1.312,1.3667,1.4368,0.2514,0.2514,0.2514,0.2514,0.2514,0.2514,0.2514,0.2488,0.2466,0.2459,0.2412,0.2376,0.2369,0.2348,0.2333,0.2333,0.2333,0.2333,0.2333,0.2333,0.2333,0.2333,0.2333,0.2333,0.2333,0.2333,0.2333,0.2333,0.2333,0.2333,0.2333,0.2333,0.2333,0.2333,0.2333,0.2333,0.2333,0.2333,0.2333,0.2333,0.2333,0.2333,0.2333,0.2333,0.2333,0.2333,0.2333,0.2333,0.2333,0.2333,0.2333,0.2333,0.2333,0.2333,0.2333,0.2333,0.2333,0.2333,0.2333,0.2333,0.2333,0.2333,0.2333,0.2333,0.2333,0.2333,0.2339,0.2364,0.2368,0.2378,0.2408,0.2433,0.2451,0.2458,0.2485,0.2504,0.2504,0.251,0.2514,0.2514,0.2514,0.2514,0.2514,0.2514,0.2514,0.2514,0.2514,0.2514,0.2514,0.2514,0.2514,0.2514,0.2514,0.2514,0.2514,0.2514,0.2514,0.2514,0.2514,0.2514,0.2514,0.2514,0.2514,0.2514,0.2514,0.2514,0.2592,0.3922,0.5639,0.7591,0.8915,1.0785,1.2656,1.2965,1.3428,1.3975,0.2514,0.2514,0.2514,0.2514,0.2514,0.2514,0.2514,0.25,0.2485,0.247,0.2442,0.241,0.2382,0.2364,0.2349,0.2334,0.2333,0.2333,0.2333,0.2333,0.2333,0.2333,0.2333,0.2333,0.2333,0.2333,0.2333,0.2333,0.2333,0.2333,0.2333,0.2333,0.2333,0.2333,0.2333,0.2333,0.2333,0.2333,0.2333,0.2333,0.2333,0.2333,0.2333,0.2333,0.2333,0.2333,0.2333,0.2333,0.2333,0.2333,0.2333,0.2333,0.2333,0.2333,0.2333,0.2333,0.2333,0.2333,0.2333,0.2333,0.2333,0.2333,0.2333,0.2333,0.2333,0.2333,0.2342,0.2372,0.2378,0.2391,0.2436,0.2458,0.2474,0.2488,0.2504,0.2514,0.2514,0.2514,0.2514,0.2514,0.2514,0.2514,0.2514,0.2514,0.2514,0.2514,0.2514,0.2514,0.2514,0.2514,0.2514,0.2514,0.2514,0.2514,0.2514,0.2514,0.2514,0.2514,0.2514,0.2514,0.2514,0.2514,0.2514,0.2514,0.2514,0.2514,0.2592,0.3452,0.5251,0.7591,0.8448,1.0552,1.312,1.3274,1.3814,1.4353,0.2514,0.2514,0.2514,0.2514,0.2514,0.2514,0.2514,0.2514,0.2506,0.248,0.2472,0.245,0.2399,0.2384,0.2365,0.2335,0.2333,0.2333,0.2333,0.2333,0.2333,0.2333,0.2333,0.2333,0.2333,0.2333,0.2333,0.2333,0.2333,0.2333,0.2333,0.2333,0.2333,0.2333,0.2333,0.2333,0.2333,0.2333,0.2333,0.2333,0.2333,0.2333,0.2333,0.2333,0.2333,0.2333,0.2333,0.2333,0.2333,0.2333,0.2333,0.2333,0.2333,0.2333,0.2333,0.2333,0.2333,0.2333,0.2333,0.2333,0.2333,0.2333,0.2333,0.2333,0.2333,0.2333,0.2342,0.2372,0.2378,0.2395,0.2451,0.2461,0.2472,0.2502,0.2507,0.2508,0.2514,0.2514,0.2514,0.2514,0.2514,0.2514,0.2514,0.2514,0.2514,0.2514,0.2514,0.2514,0.2514,0.2514,0.2514,0.2514,0.2514,0.2514,0.2514,0.2514,0.2514,0.2514,0.2514,0.2514,0.2514,0.2514,0.2514,0.2514,0.2514,0.2514,0.2514,0.314,0.5016,0.7591,0.8214,1.0546,1.3583,1.3744,1.4353,1.4968,0.2514,0.2514,0.2514,0.2514,0.2514,0.2514,0.2514,0.2514,0.2512,0.2508,0.2485,0.2466,0.2458,0.2409,0.2365,0.2335,0.2333,0.2333,0.2333,0.2333,0.2333,0.2333,0.2333,0.2333,0.2333,0.2333,0.2333,0.2333,0.2333,0.2333,0.2333,0.2333,0.2333,0.2333,0.2333,0.2333,0.2333,0.2333,0.2333,0.2333,0.2333,0.2333,0.2333,0.2333,0.2333,0.2333,0.2333,0.2333,0.2333,0.2333,0.2333,0.2333,0.2333,0.2333,0.2333,0.2333,0.2333,0.2333,0.2333,0.2333,0.2333,0.2333,0.2333,0.2333,0.2333,0.2333,0.2342,0.2372,0.2378,0.2388,0.2423,0.2429,0.244,0.247,0.2476,0.2484,0.251,0.2514,0.2514,0.2514,0.2514,0.2514,0.2514,0.2514,0.2514,0.2514,0.2514,0.2514,0.2514,0.2514,0.2514,0.2514,0.2514,0.2514,0.2514,0.2514,0.2514,0.2514,0.2514,0.2514,0.2514,0.2514,0.2514,0.2514,0.2514,0.2514,0.2749,0.5642,0.7123,0.7825,1.1095,1.2656,1.3274,1.4053,1.4592,1.4968,0.2514,0.2514,0.2514,0.2514,0.2514,0.2514,0.2514,0.2514,0.2514,0.2514,0.2503,0.2488,0.247,0.2429,0.2398,0.2384,0.2383,0.2376,0.236,0.2358,0.235,0.2334,0.2333,0.2333,0.2333,0.2333,0.2333,0.2333,0.2333,0.2333,0.2333,0.2333,0.2333,0.2333,0.2333,0.2333,0.2333,0.2333,0.2333,0.2333,0.2333,0.2333,0.2333,0.2333,0.2333,0.2333,0.2333,0.2333,0.2333,0.2333,0.2333,0.2333,0.2333,0.2333,0.2333,0.2333,0.2333,0.2333,0.2333,0.2333,0.2333,0.2333,0.2333,0.2333,0.2333,0.2333,0.2342,0.2372,0.2378,0.2387,0.2418,0.2424,0.2428,0.2442,0.2443,0.2448,0.2462,0.2478,0.2495,0.2512,0.2514,0.2514,0.2514,0.2514,0.2514,0.2514,0.2514,0.2514,0.2514,0.2514,0.2514,0.2514,0.2514,0.2514,0.2514,0.2514,0.2514,0.2514,0.2514,0.2514,0.2514,0.2514,0.2514,0.2514,0.2514,0.3062,0.3999,0.5483,0.7357,0.9382,1.1095,1.2572,1.3898,1.4515,1.4814,1.4968]}]]